ftp/pub/palmer/observations_modified/2019/February/original_files/AR190228_BASE.txt

Download

Sample DateTime	Unit Id	WS Avg 2min	WD Avg 2min	WGS 10min	WGD 10min	Air Temp	Rel Humidity	Dew Point	Pyranometer	Quantum	Air Pressure	Snow Level	Rainfall	PW Current	Visibility	CBase 1	CBase 2	CBase 3	Vert Vis
2019/02/28 00:00:00	BASE	1.61	98	2.06	91	-1.2	54	-9.4	3	6	1002.9	NA	0.0000		9999	0	0	0	0
2019/02/28 00:01:00	BASE	1.70	95	2.06	97	-1.3	54	-9.4	2	6	1002.9	NA	0.0000		9999	0	0	0	0
2019/02/28 00:02:00	BASE	1.81	90	2.06	86	-1.3	54	-9.5	2	5	1002.9	NA	0.0000		9999	0	0	0	0
2019/02/28 00:03:00	BASE	1.90	89	2.16	86	-1.4	54	-9.5	2	5	1002.9	NA	0.0000		9999	0	0	0	0
2019/02/28 00:04:00	BASE	2.04	87	2.52	78	-1.4	54	-9.6	2	4	1002.9	NA	0.0000		9999	0	0	0	0
2019/02/28 00:05:00	BASE	2.08	85	2.52	78	-1.5	54	-9.6	2	4	1002.9	NA	0.0000		9999	0	0	0	0
2019/02/28 00:06:00	BASE	2.07	89	2.52	78	-1.5	54	-9.6	2	4	1003.0	NA	0.0000		9999	0	0	0	0
2019/02/28 00:07:00	BASE	1.93	96	2.52	78	-1.5	55	-9.4	2	3	1003.0	NA	0.0000		9999	0	0	0	0
2019/02/28 00:08:00	BASE	1.76	103	2.52	78	-1.5	56	-9.3	2	3	1003.0	NA	0.0000		9999	0	0	0	0
2019/02/28 00:09:00	BASE	1.86	108	2.52	78	-1.6	56	-9.2	1	3	1003.0	NA	0.0000		9999	0	0	0	0
2019/02/28 00:10:00	BASE	1.86	116	2.52	78	-1.5	56	-9.1	1	3	1003.0	NA	0.0000		9999	0	0	0	0
2019/02/28 00:11:00	BASE	1.67	121	2.52	78	-1.5	56	-9.1	1	2	1003.0	NA	0.0000		9999	0	0	0	0
2019/02/28 00:12:00	BASE	1.27	116	2.52	78	-1.5	56	-9.1	1	2	1003.0	NA	0.0000		9999	0	0	0	0
2019/02/28 00:13:00	BASE	1.18	111	2.52	78	-1.5	56	-9.1	1	2	1003.0	NA	0.0000		9999	0	0	0	0
2019/02/28 00:14:00	BASE	1.55	97	2.47	86	-1.5	57	-9.0	1	2	1003.0	NA	0.0000		9999	0	0	0	0
2019/02/28 00:15:00	BASE	1.70	93	2.47	86	-1.5	57	-9.0	1	1	1003.1	NA	0.0000		9999	0	0	0	0
2019/02/28 00:16:00	BASE	1.75	98	2.06	93	-1.6	56	-9.1	1	1	1003.2	NA	0.0000		9999	0	0	0	0
2019/02/28 00:17:00	BASE	1.80	98	2.06	93	-1.6	56	-9.2	1	1	1003.2	NA	0.0000		9999	0	0	0	0
2019/02/28 00:18:00	BASE	1.81	94	2.31	88	-1.6	55	-9.3	1	1	1003.2	NA	0.0000		9999	0	0	0	0
2019/02/28 00:19:00	BASE	1.84	88	2.31	88	-1.6	55	-9.5	0	1	1003.2	NA	0.0000		9999	0	0	0	0
2019/02/28 00:20:00	BASE	1.65	91	2.31	88	-1.6	54	-9.6	0	1	1003.2	NA	0.0000		9999	0	0	0	0
2019/02/28 00:21:00	BASE	1.49	95	2.31	88	-1.6	54	-9.6	0	1	1003.3	NA	0.0000		9999	0	0	0	0
2019/02/28 00:22:00	BASE	1.70	91	2.78	77	-1.7	55	-9.6	0	1	1003.3	NA	0.0000		9999	0	0	0	0
2019/02/28 00:23:00	BASE	2.23	85	2.78	80	-1.8	55	-9.6	0	1	1003.3	NA	0.0000		9999	0	0	0	0
2019/02/28 00:24:00	BASE	2.38	83	2.78	80	-1.8	55	-9.6	0	0	1003.3	NA	0.0000		9999	0	0	0	0
2019/02/28 00:25:00	BASE	2.29	81	2.93	74	-1.7	55	-9.7	0	0	1003.3	NA	0.0000		9999	0	0	0	0
2019/02/28 00:26:00	BASE	2.47	76	3.09	75	-1.8	55	-9.7	0	0	1003.3	NA	0.0000		9999	0	0	0	0
2019/02/28 00:27:00	BASE	2.35	76	3.09	75	-1.8	54	-9.8	0	0	1003.3	NA	0.0000		9999	0	0	0	0
2019/02/28 00:28:00	BASE	2.36	74	3.09	75	-1.9	55	-9.8	0	0	1003.4	NA	0.0000		9999	0	0	0	0
2019/02/28 00:29:00	BASE	2.41	65	3.09	75	-1.9	55	-9.8	0	0	1003.4	NA	0.0000		9999	0	0	0	0
2019/02/28 00:30:00	BASE	2.15	59	3.09	75	-2.0	56	-9.7	0	0	1003.4	NA	0.0000		9999	0	0	0	0
2019/02/28 00:31:00	BASE	1.90	60	3.09	75	-2.0	56	-9.6	0	0	1003.4	NA	0.0000		9999	0	0	0	0
2019/02/28 00:32:00	BASE	1.71	66	3.09	75	-2.0	56	-9.7	0	0	1003.4	NA	0.0000		9999	0	0	0	0
2019/02/28 00:33:00	BASE	1.57	78	3.09	75	-2.0	55	-9.7	0	0	1003.4	NA	0.0000		9999	0	0	0	0
2019/02/28 00:34:00	BASE	1.44	81	3.09	75	-1.9	55	-9.8	0	0	1003.4	NA	0.0000		9999	0	0	0	0
2019/02/28 00:35:00	BASE	1.45	77	3.09	75	-1.9	54	-10.0	0	0	1003.4	NA	0.0000		9999	0	0	0	0
2019/02/28 00:36:00	BASE	1.46	78	2.98	70	-1.8	53	-10.1	0	0	1003.4	NA	0.0000		9999	0	0	0	0
2019/02/28 00:37:00	BASE	1.20	82	2.98	70	-1.8	53	-10.1	0	0	1003.4	NA	0.0000		9999	0	0	0	0
2019/02/28 00:38:00	BASE	0.74	90	2.62	65	-1.7	53	-10.1	0	0	1003.4	NA	0.0000		9999	0	0	0	0
2019/02/28 00:39:00	BASE	0.23	104	2.16	53	-1.6	52	-10.2	0	0	1003.4	NA	0.0000		9999	0	0	0	0
2019/02/28 00:40:00	BASE	0.04	106	1.85	65	-1.6	52	-10.2	0	0	1003.4	NA	0.0000		9999	0	0	0	0
2019/02/28 00:41:00	BASE	0.47	91	1.75	72	-1.5	52	-10.2	0	0	1003.4	NA	0.0000		9999	0	0	0	0
2019/02/28 00:42:00	BASE	0.70	84	1.70	79	-1.5	51	-10.2	0	0	1003.4	NA	0.0000		9999	0	0	0	0
2019/02/28 00:43:00	BASE	0.90	85	1.65	74	-1.4	51	-10.2	0	0	1003.4	NA	0.0000		9999	0	0	0	0
2019/02/28 00:44:00	BASE	1.21	86	1.65	74	-1.5	52	-10.2	0	0	1003.4	NA	0.0000		9999	0	0	0	0
2019/02/28 00:45:00	BASE	1.17	96	1.59	85	-1.5	52	-10.1	0	0	1003.4	NA	0.0000		9999	0	0	0	0
2019/02/28 00:46:00	BASE	0.58	110	1.49	83	-1.5	52	-10.1	0	0	1003.4	NA	0.0000		9999	0	0	0	0
2019/02/28 00:47:00	BASE	0.30	113	1.34	97	-1.6	53	-10.0	0	0	1003.4	NA	0.0000		9999	0	0	0	0
2019/02/28 00:48:00	BASE	0.39	111	1.34	97	-1.6	53	-10.0	0	0	1003.4	NA	0.0000		9999	0	0	0	0
2019/02/28 00:49:00	BASE	0.22	116	1.34	97	-1.7	53	-10.0	0	0	1003.5	NA	0.0000		9999	0	0	0	0
2019/02/28 00:50:00	BASE	0.13	129	1.34	97	-1.8	53	-10.0	0	0	1003.5	NA	0.0000		9999	0	0	0	0
2019/02/28 00:51:00	BASE	0.00	133	1.34	97	-1.8	54	-10.0	0	0	1003.5	NA	0.0000		9999	0	0	0	0
2019/02/28 00:52:00	BASE	0.00	119	1.34	97	-1.8	54	-10.0	0	0	1003.5	NA	0.0000		9999	0	0	0	0
2019/02/28 00:53:00	BASE	0.00	113	1.34	97	-1.7	54	-9.9	0	0	1003.5	NA	0.0000		9999	0	0	0	0
2019/02/28 00:54:00	BASE	0.00	113	1.34	97	-1.7	54	-9.8	0	0	1003.5	NA	0.0000		9999	0	0	0	0
2019/02/28 00:55:00	BASE	0.00	110	1.08	120	-1.7	54	-9.7	0	0	1003.5	NA	0.0000		9999	0	0	0	0
2019/02/28 00:56:00	BASE	0.00	102	1.08	120	-1.7	55	-9.7	0	0	1003.5	NA	0.0000		9999	0	0	0	0
2019/02/28 00:57:00	BASE	0.39	88	1.75	76	-1.7	55	-9.6	0	0	1003.5	NA	0.0000		9999	0	0	0	0
2019/02/28 00:58:00	BASE	1.29	74	2.21	70	-1.8	55	-9.6	0	0	1003.5	NA	0.0000		9999	0	0	0	0
2019/02/28 00:59:00	BASE	1.89	65	2.21	70	-1.8	55	-9.7	0	0	1003.5	NA	0.0000		9999	0	0	0	0
2019/02/28 01:00:00	BASE	1.87	60	2.21	70	-1.9	54	-9.9	0	0	1003.5	NA	0.0000		9999	0	0	0	0
2019/02/28 01:01:00	BASE	1.67	57	2.21	70	-2.0	53	-10.2	0	0	1003.5	NA	0.0000		9999	0	0	0	0
2019/02/28 01:02:00	BASE	1.32	56	2.21	70	-2.0	52	-10.5	0	0	1003.5	NA	0.0000		9999	0	0	0	0
2019/02/28 01:03:00	BASE	0.52	50	2.21	70	-1.9	51	-10.7	0	0	1003.5	NA	0.0000		9999	0	0	0	0
2019/02/28 01:04:00	BASE	0.00	38	2.21	70	-1.8	51	-10.7	0	0	1003.5	NA	0.0000		9999	0	0	0	0
2019/02/28 01:05:00	BASE	0.57	30	2.21	70	-1.7	50	-10.7	0	0	1003.6	NA	0.0000		9999	0	0	0	0
2019/02/28 01:06:00	BASE	1.28	27	2.21	70	-1.6	50	-10.6	0	0	1003.6	NA	0.0000		9999	0	0	0	0
2019/02/28 01:07:00	BASE	1.51	22	2.21	70	-1.6	51	-10.5	0	0	1003.6	NA	0.0000		9999	0	0	0	0
2019/02/28 01:08:00	BASE	1.55	13	2.16	64	-1.6	52	-10.2	0	0	1003.6	NA	0.0000		9999	0	0	0	0
2019/02/28 01:09:00	BASE	1.18	354	1.95	64	-1.7	53	-9.9	0	0	1003.6	NA	0.0000		9999	0	0	0	0
2019/02/28 01:10:00	BASE	0.87	337	1.75	6	-1.8	55	-9.7	0	0	1003.6	NA	0.0000		9999	0	0	0	0
2019/02/28 01:11:00	BASE	0.92	324	1.75	6	-1.8	56	-9.4	0	0	1003.6	NA	0.0000		9999	0	0	0	0
2019/02/28 01:12:00	BASE	1.00	311	1.75	6	-1.9	58	-9.1	0	0	1003.6	NA	0.0000		9999	0	0	0	0
2019/02/28 01:13:00	BASE	0.54	305	1.75	6	-1.9	58	-9.0	0	0	1003.6	NA	0.0000		9999	0	0	0	0
2019/02/28 01:14:00	BASE	0.00	303	1.75	6	-1.9	59	-9.0	0	0	1003.6	NA	0.0000		9999	0	0	0	0
2019/02/28 01:15:00	BASE	0.00	304	1.75	6	-2.0	59	-9.0	0	0	1003.6	NA	0.0000		9999	0	0	0	0
2019/02/28 01:16:00	BASE	0.00	305	1.75	6	-2.0	58	-9.0	0	0	1003.6	NA	0.0000		9999	0	0	0	0
2019/02/28 01:17:00	BASE	0.00	310	1.75	6	-2.0	58	-9.1	0	0	1003.6	NA	0.0000		9999	0	0	0	0
2019/02/28 01:18:00	BASE	0.45	322	1.44	347	-1.9	58	-9.1	0	0	1003.6	NA	0.0000		9999	0	0	0	0
2019/02/28 01:19:00	BASE	1.18	340	1.85	354	-1.9	57	-9.3	0	0	1003.7	NA	0.0000		9999	0	0	0	0
2019/02/28 01:20:00	BASE	1.55	352	1.85	354	-1.9	57	-9.3	0	0	1003.8	NA	0.0000		9999	0	0	0	0
2019/02/28 01:21:00	BASE	2.06	353	3.09	3	-1.9	57	-9.3	0	0	1003.8	NA	0.0000		9999	0	0	0	0
2019/02/28 01:22:00	BASE	2.38	351	3.34	3	-2.0	57	-9.3	0	0	1003.8	NA	0.0000		9999	0	0	0	0
2019/02/28 01:23:00	BASE	2.19	354	3.34	354	-2.0	57	-9.3	0	0	1003.7	NA	0.0000		9999	0	0	0	0
2019/02/28 01:24:00	BASE	2.57	0	4.32	11	-2.0	58	-9.3	0	0	1003.7	NA	0.0000		9999	0	0	0	0
2019/02/28 01:25:00	BASE	2.91	6	4.32	11	-2.0	58	-9.2	0	0	1003.8	NA	0.0000		9999	0	0	0	0
2019/02/28 01:26:00	BASE	2.36	9	4.32	11	-2.0	58	-9.1	0	0	1003.8	NA	0.0000		9999	0	0	0	0
2019/02/28 01:27:00	BASE	1.88	5	4.32	11	-2.0	58	-9.2	0	0	1003.8	NA	0.0000		9999	0	0	0	0
2019/02/28 01:28:00	BASE	2.43	7	4.32	11	-2.0	58	-9.1	0	0	1003.8	NA	0.0000		9999	0	0	0	0
2019/02/28 01:29:00	BASE	2.26	17	4.32	11	-2.0	58	-9.2	0	0	1003.8	NA	0.0000		9999	0	0	0	0
2019/02/28 01:30:00	BASE	1.43	26	4.32	11	-2.0	57	-9.4	0	0	1003.8	NA	0.0000		9999	0	0	0	0
2019/02/28 01:31:00	BASE	1.46	29	4.32	11	-2.0	56	-9.5	0	0	1003.7	NA	0.0000		9999	0	0	0	0
2019/02/28 01:32:00	BASE	1.45	28	4.32	11	-2.0	56	-9.5	0	0	1003.6	NA	0.0000		9999	0	0	0	0
2019/02/28 01:33:00	BASE	1.30	29	4.32	11	-2.0	56	-9.5	0	0	1003.6	NA	0.0000		9999	0	0	0	0
2019/02/28 01:34:00	BASE	1.23	34	4.22	14	-2.0	56	-9.5	0	0	1003.6	NA	0.0000		9999	0	0	0	0
2019/02/28 01:35:00	BASE	1.39	35	4.22	14	-2.0	57	-9.4	0	0	1003.7	NA	0.0000		9999	0	0	0	0
2019/02/28 01:36:00	BASE	1.52	34	4.22	14	-2.0	57	-9.4	0	0	1003.8	NA	0.0000		9999	0	0	0	0
2019/02/28 01:37:00	BASE	1.53	33	4.22	14	-2.1	57	-9.4	0	0	1003.8	NA	0.0000		9999	0	0	0	0
2019/02/28 01:38:00	BASE	1.50	32	1.75	23	-2.1	58	-9.4	0	0	1003.8	NA	0.0000		9999	0	0	0	0
2019/02/28 01:39:00	BASE	1.56	35	1.75	23	-2.1	58	-9.3	0	0	1003.8	NA	0.0000		9999	0	0	0	0
2019/02/28 01:40:00	BASE	1.63	38	1.75	23	-2.2	58	-9.3	0	0	1003.8	NA	0.0000		9999	0	0	0	0
2019/02/28 01:41:00	BASE	1.61	35	1.70	37	-2.2	58	-9.3	0	0	1003.8	NA	0.0000		9999	0	0	0	0
2019/02/28 01:42:00	BASE	1.53	35	1.70	37	-2.2	58	-9.4	0	0	1003.8	NA	0.0000		9999	0	0	0	0
2019/02/28 01:43:00	BASE	1.45	39	1.70	37	-2.2	57	-9.5	0	0	1003.8	NA	0.0000		9999	0	0	0	0
2019/02/28 01:44:00	BASE	1.35	45	1.70	37	-2.2	57	-9.6	0	0	1003.8	NA	0.0000		9999	0	0	0	0
2019/02/28 01:45:00	BASE	0.82	49	1.70	37	-2.2	57	-9.6	0	0	1003.8	NA	0.0000		9999	0	0	0	0
2019/02/28 01:46:00	BASE	0.51	50	1.70	37	-2.1	56	-9.7	0	0	1003.8	NA	0.0000		9999	0	0	0	0
2019/02/28 01:47:00	BASE	0.42	53	1.70	37	-2.1	55	-9.8	0	0	1003.8	NA	0.0000		9999	0	0	0	0
2019/02/28 01:48:00	BASE	0.10	63	1.70	37	-2.0	55	-9.9	0	0	1003.8	NA	0.0000		9999	0	0	0	0
2019/02/28 01:49:00	BASE	0.00	75	1.70	37	-2.0	54	-10.1	0	0	1003.8	NA	0.0000		9999	0	0	0	0
2019/02/28 01:50:00	BASE	0.00	74	1.65	32	-1.9	53	-10.2	0	0	1003.8	NA	0.0000		9999	0	0	0	0
2019/02/28 01:51:00	BASE	0.00	74	1.54	40	-1.9	52	-10.4	0	0	1003.7	NA	0.0000		9999	0	0	0	0
2019/02/28 01:52:00	BASE	0.00	78	1.54	40	-1.8	52	-10.5	0	0	1003.8	NA	0.0000		9999	0	0	0	0
2019/02/28 01:53:00	BASE	0.00	79	1.39	47	-1.8	51	-10.5	0	0	1003.8	NA	0.0000		9999	0	0	0	0
2019/02/28 01:54:00	BASE	0.00	79	1.29	49	-1.7	51	-10.6	0	0	1003.8	NA	0.0000		9999	0	0	0	0
2019/02/28 01:55:00	BASE	0.05	79	1.29	49	-1.6	50	-10.6	0	0	1003.7	NA	0.0000		9999	0	0	0	0
2019/02/28 01:56:00	BASE	0.09	72	1.29	49	-1.6	50	-10.6	0	0	1003.7	NA	0.0000		9999	0	0	0	0
2019/02/28 01:57:00	BASE	0.05	71	1.08	57	-1.6	50	-10.6	0	0	1003.7	NA	0.0000		9999	0	0	0	0
2019/02/28 01:58:00	BASE	0.43	75	1.85	74	-1.6	51	-10.5	0	0	1003.8	NA	0.0000		9999	0	0	0	0
2019/02/28 01:59:00	BASE	0.97	72	3.65	66	-1.6	51	-10.5	0	0	1003.8	NA	0.0000		9999	0	0	0	0
2019/02/28 02:00:00	BASE	1.26	107	3.65	66	-1.7	51	-10.4	0	0	1003.7	NA	0.0000		9999	0	0	0	0
2019/02/28 02:01:00	BASE	1.48	134	3.65	66	-1.6	52	-10.3	0	0	1003.7	NA	0.0000		9999	0	0	0	0
2019/02/28 02:02:00	BASE	1.68	118	3.65	66	-1.6	52	-10.2	0	0	1003.8	NA	0.0000		9999	0	0	0	0
2019/02/28 02:03:00	BASE	1.83	109	3.65	66	-1.6	52	-10.1	0	0	1003.7	NA	0.0000		9999	0	0	0	0
2019/02/28 02:04:00	BASE	2.08	108	3.65	66	-1.7	53	-10.0	0	0	1003.7	NA	0.0000		9999	0	0	0	0
2019/02/28 02:05:00	BASE	2.70	109	3.65	66	-1.7	54	-9.8	0	0	1003.8	NA	0.0000		9999	0	0	0	0
2019/02/28 02:06:00	BASE	2.58	111	3.65	66	-1.8	55	-9.6	0	0	1003.7	NA	0.0000		9999	0	0	0	0
2019/02/28 02:07:00	BASE	1.95	114	3.65	66	-1.9	57	-9.4	0	0	1003.8	NA	0.0000		9999	0	0	0	0
2019/02/28 02:08:00	BASE	1.68	114	3.65	66	-2.0	58	-9.2	0	0	1003.8	NA	0.0000		9999	0	0	0	0
2019/02/28 02:09:00	BASE	1.48	113	3.34	107	-2.0	58	-9.1	0	0	1003.8	NA	0.0000		9999	0	0	0	0
2019/02/28 02:10:00	BASE	1.38	112	3.34	107	-2.1	59	-9.1	0	0	1003.8	NA	0.0000		9999	0	0	0	0
2019/02/28 02:11:00	BASE	1.49	112	3.34	107	-2.1	59	-9.0	0	0	1003.8	NA	0.0000		9999	0	0	0	0
2019/02/28 02:12:00	BASE	1.57	106	3.34	107	-2.1	59	-9.1	0	0	1003.8	NA	0.0000		9999	0	0	0	0
2019/02/28 02:13:00	BASE	1.41	99	3.34	107	-2.1	58	-9.2	0	0	1003.8	NA	0.0000		9999	0	0	0	0
2019/02/28 02:14:00	BASE	1.43	95	3.34	107	-2.0	58	-9.2	0	0	1003.8	NA	0.0000		9999	0	0	0	0
2019/02/28 02:15:00	BASE	1.75	95	3.34	107	-2.0	57	-9.3	0	0	1003.8	NA	0.0000		9999	0	0	0	0
2019/02/28 02:16:00	BASE	2.07	100	2.42	96	-1.9	56	-9.4	0	0	1003.8	NA	0.0000		9999	0	0	0	0
2019/02/28 02:17:00	BASE	2.16	100	2.42	96	-1.9	56	-9.5	0	0	1003.7	NA	0.0000		9999	0	0	0	0
2019/02/28 02:18:00	BASE	2.06	97	2.42	96	-1.9	56	-9.5	0	0	1003.6	NA	0.0000		9999	0	0	0	0
2019/02/28 02:19:00	BASE	2.19	96	2.93	103	-2.0	56	-9.6	0	0	1003.6	NA	0.0000		9999	0	0	0	0
2019/02/28 02:20:00	BASE	2.65	105	3.45	116	-2.0	56	-9.5	0	0	1003.6	NA	0.0000		9999	0	0	0	0
2019/02/28 02:21:00	BASE	3.00	112	3.45	116	-2.0	56	-9.5	0	0	1003.6	NA	0.0000		9999	0	0	0	0
2019/02/28 02:22:00	BASE	2.90	113	3.45	116	-1.9	56	-9.6	0	0	1003.6	NA	0.0000		9999	0	0	0	0
2019/02/28 02:23:00	BASE	2.84	115	3.45	116	-1.9	56	-9.6	0	0	1003.6	NA	0.0000		9999	0	0	0	0
2019/02/28 02:24:00	BASE	2.97	116	3.45	116	-1.9	56	-9.6	0	0	1003.6	NA	0.0000		9999	0	0	0	0
2019/02/28 02:25:00	BASE	2.93	113	3.45	116	-1.8	56	-9.5	0	0	1003.6	NA	0.0000		9999	0	0	0	0
2019/02/28 02:26:00	BASE	2.78	112	3.45	116	-1.8	56	-9.5	0	0	1003.5	NA	0.0000		9999	0	0	0	0
2019/02/28 02:27:00	BASE	2.65	111	3.45	116	-1.8	56	-9.5	0	0	1003.5	NA	0.0000		9999	0	0	0	0
2019/02/28 02:28:00	BASE	2.72	107	3.45	116	-1.9	56	-9.4	0	0	1003.5	NA	0.0000		9999	0	0	0	0
2019/02/28 02:29:00	BASE	3.04	104	3.86	110	-1.9	57	-9.4	0	0	1003.5	NA	0.0000		9999	0	0	0	0
2019/02/28 02:30:00	BASE	3.19	105	3.86	110	-1.9	56	-9.4	0	0	1003.5	NA	0.0000		9999	0	0	0	0
2019/02/28 02:31:00	BASE	3.28	104	3.86	110	-1.9	56	-9.5	0	0	1003.5	NA	0.0000		9999	0	0	0	0
2019/02/28 02:32:00	BASE	3.52	99	4.01	92	-2.0	56	-9.5	0	0	1003.5	NA	0.0000		9999	0	0	0	0
2019/02/28 02:33:00	BASE	3.73	92	4.12	87	-2.1	56	-9.7	0	0	1003.5	NA	0.0000		9999	0	0	0	0
2019/02/28 02:34:00	BASE	3.84	84	4.53	85	-2.2	55	-9.9	0	0	1003.5	NA	0.0000		9999	0	0	0	0
2019/02/28 02:35:00	BASE	3.57	76	4.53	85	-2.3	55	-10.2	0	0	1003.5	NA	0.0000		9999	0	0	0	0
2019/02/28 02:36:00	BASE	3.34	75	4.53	85	-2.3	54	-10.4	0	0	1003.5	NA	0.0000		9999	0	0	0	0
2019/02/28 02:37:00	BASE	3.40	76	4.53	85	-2.4	54	-10.5	0	0	1003.5	NA	0.0000		9999	0	0	0	0
2019/02/28 02:38:00	BASE	3.51	79	4.53	85	-2.4	53	-10.6	0	0	1003.5	NA	0.0000		9999	0	0	0	0
2019/02/28 02:39:00	BASE	3.62	87	4.53	85	-2.4	53	-10.6	0	0	1003.5	NA	0.0000		9999	0	0	0	0
2019/02/28 02:40:00	BASE	3.66	93	4.53	85	-2.4	54	-10.5	0	0	1003.5	NA	0.0000		9999	0	0	0	0
2019/02/28 02:41:00	BASE	3.66	93	4.53	85	-2.3	54	-10.4	0	0	1003.5	NA	0.0000		9999	0	0	0	0
2019/02/28 02:42:00	BASE	3.68	94	4.53	85	-2.3	54	-10.3	0	0	1003.4	NA	0.0000		9999	0	0	0	0
2019/02/28 02:43:00	BASE	3.98	96	4.53	85	-2.3	55	-10.2	0	0	1003.4	NA	0.0000		9999	0	0	0	0
2019/02/28 02:44:00	BASE	4.13	95	4.48	86	-2.3	55	-10.1	0	0	1003.4	NA	0.0000		9999	0	0	0	0
2019/02/28 02:45:00	BASE	3.97	89	4.48	86	-2.3	56	-10.0	0	0	1003.4	NA	0.0000		9999	0	0	0	0
2019/02/28 02:46:00	BASE	3.96	83	4.48	86	-2.4	56	-9.9	0	0	1003.4	NA	0.0000		9999	0	0	0	0
2019/02/28 02:47:00	BASE	3.98	84	4.48	86	-2.4	57	-9.9	0	0	1003.4	NA	0.0000		9999	0	0	0	0
2019/02/28 02:48:00	BASE	3.78	85	4.48	86	-2.5	57	-9.8	0	0	1003.4	NA	0.0000		9999	0	0	0	0
2019/02/28 02:49:00	BASE	3.85	81	4.48	77	-2.5	57	-9.9	0	0	1003.4	NA	0.0000		9999	0	0	0	0
2019/02/28 02:50:00	BASE	3.95	78	4.48	77	-2.6	57	-10.0	0	0	1003.4	NA	0.0000		9999	0	0	0	0
2019/02/28 02:51:00	BASE	3.74	79	4.48	77	-2.6	56	-10.1	0	0	1003.4	NA	0.0000		9999	0	0	0	0
2019/02/28 02:52:00	BASE	3.68	82	4.48	77	-2.6	55	-10.3	0	0	1003.4	NA	0.0000		9999	0	0	0	0
2019/02/28 02:53:00	BASE	3.92	81	4.58	79	-2.6	55	-10.4	0	0	1003.4	NA	0.0000		9999	0	0	0	0
2019/02/28 02:54:00	BASE	4.13	85	5.04	87	-2.5	54	-10.6	0	0	1003.4	NA	0.0000		9999	0	0	0	0
2019/02/28 02:55:00	BASE	4.00	94	5.04	117	-2.4	53	-10.6	0	0	1003.4	NA	0.0000		9999	0	0	0	0
2019/02/28 02:56:00	BASE	3.98	102	5.04	117	-2.3	53	-10.6	0	0	1003.4	NA	0.0000		9999	0	0	0	0
2019/02/28 02:57:00	BASE	3.76	101	5.04	117	-2.2	53	-10.6	0	0	1003.5	NA	0.0000		9999	0	0	0	0
2019/02/28 02:58:00	BASE	3.34	103	5.04	117	-2.1	52	-10.6	0	0	1003.5	NA	0.0000		9999	0	0	0	0
2019/02/28 02:59:00	BASE	3.33	106	5.04	117	-2.1	52	-10.7	0	0	1003.5	NA	0.0000		9999	0	0	0	0
2019/02/28 03:00:00	BASE	3.51	99	5.04	117	-2.0	51	-10.7	0	0	1003.5	NA	0.0000		9999	0	0	0	0
2019/02/28 03:01:00	BASE	3.36	94	5.04	117	-2.0	51	-10.7	0	0	1003.5	NA	0.0000		9999	0	0	0	0
2019/02/28 03:02:00	BASE	3.41	88	5.04	117	-2.0	52	-10.6	0	0	1003.5	NA	0.0000		9999	0	0	0	0
2019/02/28 03:03:00	BASE	3.57	85	5.04	117	-2.0	52	-10.6	0	0	1003.5	NA	0.0000		9999	0	0	0	0
2019/02/28 03:04:00	BASE	3.50	86	5.04	117	-2.1	52	-10.5	0	0	1003.5	NA	0.0000		9999	0	0	0	0
2019/02/28 03:05:00	BASE	3.48	93	4.73	124	-2.2	53	-10.4	0	0	1003.5	NA	0.0000		9999	0	0	0	0
2019/02/28 03:06:00	BASE	3.43	91	4.12	110	-2.2	54	-10.3	0	0	1003.5	NA	0.0000		9999	0	0	0	0
2019/02/28 03:07:00	BASE	3.65	84	4.17	85	-2.3	55	-10.2	0	0	1003.5	NA	0.0000		9999	0	0	0	0
2019/02/28 03:08:00	BASE	3.93	88	4.32	99	-2.3	55	-10.2	0	0	1003.5	NA	0.0000		9999	0	0	0	0
2019/02/28 03:09:00	BASE	3.90	92	4.32	88	-2.3	55	-10.2	0	0	1003.5	NA	0.0000		9999	0	0	0	0
2019/02/28 03:10:00	BASE	3.90	93	4.32	88	-2.3	54	-10.3	0	0	1003.5	NA	0.0000		9999	0	0	0	0
2019/02/28 03:11:00	BASE	3.97	96	4.32	88	-2.3	53	-10.5	0	0	1003.5	NA	0.0000		9999	0	0	0	0
2019/02/28 03:12:00	BASE	3.87	99	4.32	88	-2.3	53	-10.6	0	0	1003.5	NA	0.0000		9999	0	0	0	0
2019/02/28 03:13:00	BASE	3.95	100	4.37	101	-2.3	52	-10.7	0	0	1003.5	NA	0.0000		9999	0	0	0	0
2019/02/28 03:14:00	BASE	4.18	100	4.48	100	-2.2	52	-10.7	0	0	1003.5	NA	0.0000		9999	0	0	0	0
2019/02/28 03:15:00	BASE	4.02	100	4.48	100	-2.2	52	-10.8	0	0	1003.5	NA	0.0000		9999	0	0	0	0
2019/02/28 03:16:00	BASE	3.95	99	4.48	100	-2.2	51	-10.9	0	0	1003.5	NA	0.0000		9999	0	0	0	0
2019/02/28 03:17:00	BASE	4.06	99	4.48	100	-2.2	51	-11.0	0	0	1003.5	NA	0.0000		9999	0	0	0	0
2019/02/28 03:18:00	BASE	3.86	98	4.48	100	-2.2	51	-11.0	0	0	1003.6	NA	0.0000		9999	0	0	0	0
2019/02/28 03:19:00	BASE	3.93	97	4.48	100	-2.2	51	-11.1	0	0	1003.6	NA	0.0000		9999	0	0	0	0
2019/02/28 03:20:00	BASE	4.15	98	4.48	100	-2.3	51	-11.1	0	0	1003.6	NA	0.0000		9999	0	0	0	0
2019/02/28 03:21:00	BASE	4.27	98	4.58	103	-2.3	51	-11.1	0	0	1003.6	NA	0.0000		9999	0	0	0	0
2019/02/28 03:22:00	BASE	4.42	99	4.78	101	-2.3	51	-11.1	0	0	1003.6	NA	0.0000		9999	0	0	0	0
2019/02/28 03:23:00	BASE	4.52	99	4.89	98	-2.3	51	-11.1	0	0	1003.6	NA	0.0000		9999	0	0	0	0
2019/02/28 03:24:00	BASE	4.49	100	4.89	99	-2.3	51	-11.1	0	0	1003.5	NA	0.0000		9999	0	0	0	0
2019/02/28 03:25:00	BASE	4.52	102	4.89	99	-2.3	51	-11.0	0	0	1003.5	NA	0.0000		9999	0	0	0	0
2019/02/28 03:26:00	BASE	4.73	104	5.25	108	-2.2	51	-11.1	0	0	1003.5	NA	0.0000		9999	0	0	0	0
2019/02/28 03:27:00	BASE	4.84	104	5.25	108	-2.1	50	-11.1	0	0	1003.5	NA	0.0000		9999	0	0	0	0
2019/02/28 03:28:00	BASE	4.81	103	5.25	108	-1.9	49	-11.2	0	0	1003.6	NA	0.0000		9999	0	0	0	0
2019/02/28 03:29:00	BASE	4.79	102	5.25	108	-1.8	48	-11.3	0	0	1003.6	NA	0.0000		9999	0	0	0	0
2019/02/28 03:30:00	BASE	4.83	102	5.25	96	-1.7	47	-11.5	0	0	1003.6	NA	0.0000		9999	0	0	0	0
2019/02/28 03:31:00	BASE	5.04	101	6.12	103	-1.6	47	-11.5	0	0	1003.6	NA	0.0000		9999	0	0	0	0
2019/02/28 03:32:00	BASE	5.23	104	6.12	103	-1.7	47	-11.6	0	0	1003.6	NA	0.0000		9999	0	0	0	0
2019/02/28 03:33:00	BASE	5.07	105	6.12	103	-1.7	46	-11.7	0	0	1003.6	NA	0.0000		9999	0	0	0	0
2019/02/28 03:34:00	BASE	4.70	100	6.12	103	-1.7	46	-11.7	0	0	1003.6	NA	0.0000		9999	0	0	0	0
2019/02/28 03:35:00	BASE	4.59	101	6.12	103	-1.8	47	-11.7	0	0	1003.6	NA	0.0000		9999	0	0	0	0
2019/02/28 03:36:00	BASE	4.73	107	6.12	103	-1.8	47	-11.7	0	0	1003.6	NA	0.0000		9999	0	0	0	0
2019/02/28 03:37:00	BASE	4.97	110	6.12	103	-1.8	46	-11.8	0	0	1003.6	NA	0.0000		9999	0	0	0	0
2019/02/28 03:38:00	BASE	5.02	112	6.12	103	-1.8	46	-11.8	0	0	1003.6	NA	0.0000		9999	0	0	0	0
2019/02/28 03:39:00	BASE	4.71	112	6.12	103	-1.8	46	-11.8	0	0	1003.6	NA	0.0000		9999	0	0	0	0
2019/02/28 03:40:00	BASE	4.71	113	6.12	103	-1.8	46	-11.8	0	0	1003.6	NA	0.0000		9999	0	0	0	0
2019/02/28 03:41:00	BASE	4.56	116	5.71	114	-1.7	46	-11.9	0	0	1003.6	NA	0.0000		9999	0	0	0	0
2019/02/28 03:42:00	BASE	4.18	117	5.71	114	-1.7	46	-11.8	0	0	1003.6	NA	0.0000		9999	0	0	0	0
2019/02/28 03:43:00	BASE	3.96	115	5.71	114	-1.8	46	-11.8	0	0	1003.7	NA	0.0000		9999	0	0	0	0
2019/02/28 03:44:00	BASE	3.58	112	5.71	114	-1.8	47	-11.7	0	0	1003.8	NA	0.0000		9999	0	0	0	0
2019/02/28 03:45:00	BASE	3.42	111	5.71	114	-1.8	47	-11.7	0	0	1003.8	NA	0.0000		9999	0	0	0	0
2019/02/28 03:46:00	BASE	3.46	108	5.71	114	-1.9	48	-11.5	0	0	1003.8	NA	0.0000		9999	0	0	0	0
2019/02/28 03:47:00	BASE	3.83	108	5.50	119	-1.9	48	-11.4	0	0	1003.8	NA	0.0000		9999	0	0	0	0
2019/02/28 03:48:00	BASE	4.15	115	5.50	119	-2.0	49	-11.2	0	0	1003.8	NA	0.0000		9999	0	0	0	0
2019/02/28 03:49:00	BASE	4.24	120	5.50	119	-2.0	50	-11.1	0	0	1003.8	NA	0.0000		9999	0	0	0	0
2019/02/28 03:50:00	BASE	4.26	123	4.78	128	-2.0	50	-11.0	0	0	1003.8	NA	0.0000		9999	0	0	0	0
2019/02/28 03:51:00	BASE	4.15	123	4.78	128	-2.0	50	-11.0	0	0	1003.8	NA	0.0000		9999	0	0	0	0
2019/02/28 03:52:00	BASE	3.94	123	4.78	128	-2.0	50	-10.9	0	0	1003.8	NA	0.0000		9999	0	0	0	0
2019/02/28 03:53:00	BASE	3.77	124	4.78	128	-2.0	51	-10.9	0	0	1003.8	NA	0.0000		9999	0	0	0	0
2019/02/28 03:54:00	BASE	3.83	124	4.78	128	-2.1	51	-10.9	0	0	1003.8	NA	0.0000		9999	0	0	0	0
2019/02/28 03:55:00	BASE	3.50	128	4.78	128	-2.1	51	-10.9	0	0	1003.8	NA	0.0000		9999	0	0	0	0
2019/02/28 03:56:00	BASE	3.12	130	4.78	128	-2.0	51	-10.8	0	0	1003.8	NA	0.0000		9999	0	0	0	0
2019/02/28 03:57:00	BASE	3.23	124	4.78	128	-2.0	51	-10.8	0	0	1003.8	NA	0.0000		9999	0	0	0	0
2019/02/28 03:58:00	BASE	3.60	121	4.78	128	-2.0	51	-10.8	0	0	1003.9	NA	0.0000		9999	0	0	0	0
2019/02/28 03:59:00	BASE	3.70	123	4.68	120	-1.9	51	-10.8	0	0	1003.9	NA	0.0000		9999	0	0	0	0
2019/02/28 04:00:00	BASE	3.45	123	4.68	120	-1.9	51	-10.7	0	0	1003.9	NA	0.0000		9999	0	0	0	0
2019/02/28 04:01:00	BASE	3.33	119	4.53	125	-1.9	51	-10.7	0	0	1003.9	NA	0.0000		9999	0	0	0	0
2019/02/28 04:02:00	BASE	3.52	118	4.53	125	-1.9	51	-10.7	0	0	1003.9	NA	0.0000		9999	0	0	0	0
2019/02/28 04:03:00	BASE	3.50	116	4.53	125	-2.0	51	-10.7	0	0	1003.9	NA	0.0000		9999	0	0	0	0
2019/02/28 04:04:00	BASE	3.49	115	4.48	134	-2.0	52	-10.6	0	0	1003.9	NA	0.0000		9999	0	0	0	0
2019/02/28 04:05:00	BASE	3.82	119	4.48	134	-2.1	52	-10.6	0	0	1003.9	NA	0.0000		9999	0	0	0	0
2019/02/28 04:06:00	BASE	4.09	118	4.37	119	-2.1	52	-10.6	0	0	1003.9	NA	0.0000		9999	0	0	0	0
2019/02/28 04:07:00	BASE	4.03	118	4.37	119	-2.1	52	-10.6	0	0	1003.9	NA	0.0000		9999	0	0	0	0
2019/02/28 04:08:00	BASE	3.77	118	4.37	119	-2.1	52	-10.6	0	0	1003.9	NA	0.0000		9999	0	0	0	0
2019/02/28 04:09:00	BASE	3.80	118	4.68	115	-2.1	52	-10.7	0	0	1004.0	NA	0.0000		9999	0	0	0	0
2019/02/28 04:11:01	BASE	3.65	117	4.68	115	-2.1	51	-10.8	0	0	1003.9	NA	0.0000		9999	0	0	0	0
2019/02/28 04:12:01	BASE	3.64	121	4.68	115	-2.0	50	-11.0	0	0	1004.0	NA	0.0000		9999	0	0	0	0
2019/02/28 04:13:01	BASE	3.45	123	4.68	115	-1.9	49	-11.2	0	0	1004.0	NA	0.0000		9999	0	0	0	0
2019/02/28 04:14:01	BASE	3.42	122	4.68	115	-1.9	48	-11.4	0	0	1004.0	NA	0.0000		9999	0	0	0	0
2019/02/28 04:15:01	BASE	3.19	117	4.68	115	-1.9	48	-11.5	0	0	1004.0	NA	0.0000		9999	0	0	0	0
2019/02/28 04:16:01	BASE	2.93	115	4.68	115	-2.0	48	-11.5	0	0	1004.0	NA	0.0000		9999	0	0	0	0
2019/02/28 04:17:01	BASE	2.84	109	4.68	115	-2.1	49	-11.4	0	0	1004.0	NA	0.0000		9999	0	0	0	0
2019/02/28 04:18:01	BASE	2.86	101	4.68	115	-2.2	49	-11.4	0	0	1004.0	NA	0.0000		9999	0	0	0	0
2019/02/28 04:19:01	BASE	2.98	99	4.37	115	-2.3	50	-11.4	0	0	1004.0	NA	0.0000		9999	0	0	0	0
2019/02/28 04:20:01	BASE	3.19	104	4.37	115	-2.4	50	-11.4	0	0	1004.0	NA	0.0000		9999	0	0	0	0
2019/02/28 04:21:01	BASE	3.47	111	4.32	124	-2.3	49	-11.6	0	0	1004.0	NA	0.0000		9999	0	0	0	0
2019/02/28 04:22:01	BASE	3.73	117	4.32	123	-2.2	48	-11.7	0	0	1004.0	NA	0.0000		9999	0	0	0	0
2019/02/28 04:23:01	BASE	3.59	122	4.32	123	-2.1	47	-11.9	0	0	1004.0	NA	0.0000		9999	0	0	0	0
2019/02/28 04:24:01	BASE	3.09	116	4.32	123	-2.0	47	-11.9	0	0	1004.0	NA	0.0000		9999	0	0	0	0
2019/02/28 04:25:01	BASE	2.79	111	4.32	123	-2.0	46	-11.9	0	0	1004.0	NA	0.0000		9999	0	0	0	0
2019/02/28 04:26:01	BASE	2.43	116	4.32	123	-2.0	47	-11.9	0	0	1004.0	NA	0.0000		9999	0	0	0	0
2019/02/28 04:27:01	BASE	2.33	116	4.32	123	-2.1	47	-11.8	0	0	1004.0	NA	0.0000		9999	0	0	0	0
2019/02/28 04:28:01	BASE	2.48	111	4.32	123	-2.2	48	-11.8	0	0	1004.0	NA	0.0000		9999	0	0	0	0
2019/02/28 04:29:01	BASE	2.54	111	4.32	123	-2.3	48	-11.8	0	0	1004.0	NA	0.0000		9999	0	0	0	0
2019/02/28 04:30:01	BASE	2.60	120	4.32	123	-2.4	49	-11.7	0	0	1004.0	NA	0.0000		9999	0	0	0	0
2019/02/28 04:31:01	BASE	2.60	129	4.32	123	-2.3	49	-11.6	0	0	1004.0	NA	0.0000		9999	0	0	0	0
2019/02/28 04:32:01	BASE	2.46	131	4.06	140	-2.3	49	-11.5	0	0	1004.0	NA	0.0000		9999	0	0	0	0
2019/02/28 04:33:01	BASE	2.24	128	3.19	145	-2.2	49	-11.4	0	0	1004.0	NA	0.0000		9999	0	0	0	0
2019/02/28 04:34:01	BASE	2.09	125	3.19	145	-2.1	49	-11.3	0	0	1004.0	NA	0.0000		9999	0	0	0	0
2019/02/28 04:35:01	BASE	2.12	122	3.19	145	-2.1	50	-11.2	0	0	1004.0	NA	0.0000		9999	0	0	0	0
2019/02/28 04:36:01	BASE	2.41	117	3.19	145	-2.1	50	-11.2	0	0	1004.0	NA	0.0000		9999	0	0	0	0
2019/02/28 04:37:01	BASE	2.50	113	3.19	145	-2.1	50	-11.2	0	0	1004.0	NA	0.0000		9999	0	0	0	0
2019/02/28 04:38:00	BASE	2.37	114	3.19	145	-2.1	50	-11.3	0	0	1004.0	NA	0.0000		9999	0	0	0	0
2019/02/28 04:39:00	BASE	2.18	115	3.19	145	-2.1	49	-11.4	0	0	1004.0	NA	0.0000		9999	0	0	0	0
2019/02/28 04:40:00	BASE	1.80	114	3.19	145	-2.0	48	-11.5	0	0	1004.0	NA	0.0000		9999	0	0	0	0
2019/02/28 04:41:00	BASE	1.72	110	2.83	113	-2.0	48	-11.6	0	0	1004.0	NA	0.0000		9999	0	0	0	0
2019/02/28 04:42:00	BASE	1.98	105	2.83	113	-2.0	48	-11.7	0	0	1004.0	NA	0.0000		9999	0	0	0	0
2019/02/28 04:43:00	BASE	2.37	108	2.98	106	-2.1	48	-11.6	0	0	1004.0	NA	0.0000		9999	0	0	0	0
2019/02/28 04:44:00	BASE	2.91	109	3.55	114	-2.1	48	-11.6	0	0	1004.0	NA	0.0000		9999	0	0	0	0
2019/02/28 04:45:00	BASE	2.86	108	3.55	114	-2.2	49	-11.5	0	0	1004.0	NA	0.0000		9999	0	0	0	0
2019/02/28 04:46:00	BASE	2.83	107	3.55	114	-2.3	50	-11.4	0	0	1004.0	NA	0.0000		9999	0	0	0	0
2019/02/28 04:47:00	BASE	3.04	105	3.55	114	-2.3	50	-11.3	0	0	1004.0	NA	0.0000		9999	0	0	0	0
2019/02/28 04:48:00	BASE	3.44	101	4.58	102	-2.3	50	-11.4	0	0	1004.0	NA	0.0000		9999	0	0	0	0
2019/02/28 04:49:00	BASE	3.98	101	4.78	103	-2.3	50	-11.3	0	0	1004.0	NA	0.0000		9999	0	0	0	0
2019/02/28 04:50:00	BASE	2.97	104	4.78	103	-2.2	49	-11.4	0	0	1004.0	NA	0.0000		9999	0	0	0	0
2019/02/28 04:51:00	BASE	1.73	111	4.78	103	-2.2	49	-11.4	0	0	1004.0	NA	0.0000		9999	0	0	0	0
2019/02/28 04:52:00	BASE	1.38	115	4.78	103	-2.2	49	-11.4	0	0	1004.0	NA	0.0000		9999	0	0	0	0
2019/02/28 04:53:00	BASE	1.24	110	4.78	103	-2.2	50	-11.3	0	0	1004.0	NA	0.0000		9999	0	0	0	0
2019/02/28 04:54:00	BASE	1.29	111	4.78	103	-2.1	50	-11.3	0	0	1004.0	NA	0.0000		9999	0	0	0	0
2019/02/28 04:55:00	BASE	1.19	111	4.78	103	-2.1	50	-11.2	0	0	1004.0	NA	0.0000		9999	0	0	0	0
2019/02/28 04:56:00	BASE	1.07	110	4.78	103	-2.1	50	-11.2	0	0	1004.0	NA	0.0000		9999	0	0	0	0
2019/02/28 04:57:00	BASE	1.05	113	4.78	103	-2.1	50	-11.1	0	0	1004.0	NA	0.0000		9999	0	0	0	0
2019/02/28 04:58:00	BASE	1.13	112	4.78	103	-2.1	50	-11.1	0	0	1004.0	NA	0.0000		9999	0	0	0	0
2019/02/28 04:59:00	BASE	1.54	110	2.93	104	-2.1	51	-11.0	0	0	1004.0	NA	0.0000		9999	0	0	0	0
2019/02/28 05:00:01	BASE	1.68	111	2.47	115	-2.1	51	-10.9	0	0	1004.0	NA	0.0000		9999	0	0	0	0
2019/02/28 05:01:01	BASE	1.74	100	2.47	107	-2.0	51	-10.8	0	0	1004.0	NA	0.0000		9999	0	0	0	0
2019/02/28 05:02:01	BASE	2.03	92	2.47	107	-1.8	50	-10.8	0	0	1004.0	NA	0.0000		9999	0	0	0	0
2019/02/28 05:03:00	BASE	2.13	99	2.47	107	-1.8	50	-10.8	0	0	1004.0	NA	0.0000		9999	0	0	0	0
2019/02/28 05:04:00	BASE	2.17	106	2.78	122	-1.8	50	-10.9	0	0	1004.0	NA	0.0000		9999	0	0	0	0
2019/02/28 05:05:00	BASE	2.17	112	2.78	122	-1.8	50	-10.8	0	0	1004.0	NA	0.0000		9999	0	0	0	0
2019/02/28 05:06:00	BASE	2.01	118	2.78	122	-1.8	50	-10.9	0	0	1004.0	NA	0.0000		9999	0	0	0	0
2019/02/28 05:07:00	BASE	1.81	122	2.78	122	-1.9	50	-10.9	0	0	1004.0	NA	0.0000		9999	0	0	0	0
2019/02/28 05:08:00	BASE	1.36	132	2.78	122	-1.8	50	-10.8	0	0	1004.0	NA	0.0000		9999	0	0	0	0
2019/02/28 05:09:00	BASE	1.16	126	2.78	122	-1.8	50	-10.7	0	0	1004.0	NA	0.0000		9999	0	0	0	0
2019/02/28 05:10:00	BASE	1.43	106	2.78	122	-1.7	50	-10.7	0	0	1004.0	NA	0.0000		9999	0	0	0	0
2019/02/28 05:11:00	BASE	1.65	96	2.78	122	-1.7	50	-10.7	0	0	1004.1	NA	0.0000		9999	0	0	0	0
2019/02/28 05:12:00	BASE	1.92	92	2.78	122	-1.8	50	-10.8	0	0	1004.1	NA	0.0000		9999	0	0	0	0
2019/02/28 05:13:00	BASE	2.29	93	3.14	107	-2.0	50	-11.1	0	0	1004.1	NA	0.0000		9999	0	0	0	0
2019/02/28 05:14:00	BASE	2.43	95	3.14	107	-2.1	50	-11.2	0	0	1004.1	NA	0.0000		9999	0	0	0	0
2019/02/28 05:15:00	BASE	2.35	92	3.14	107	-2.2	49	-11.4	0	0	1004.0	NA	0.0000		9999	0	0	0	0
2019/02/28 05:16:00	BASE	2.30	90	3.14	107	-2.3	49	-11.6	0	0	1004.0	NA	0.0000		9999	0	0	0	0
2019/02/28 05:17:00	BASE	2.30	101	3.14	107	-2.3	49	-11.7	0	0	1004.0	NA	0.0000		9999	0	0	0	0
2019/02/28 05:18:00	BASE	2.47	107	3.14	107	-2.3	49	-11.6	0	0	1004.0	NA	0.0000		9999	0	0	0	0
2019/02/28 05:19:00	BASE	2.53	111	3.14	107	-2.4	49	-11.6	0	0	1004.0	NA	0.0000		9999	0	0	0	0
2019/02/28 05:20:00	BASE	2.72	110	3.65	99	-2.4	50	-11.4	0	0	1004.0	NA	0.0000		9999	0	0	0	0
2019/02/28 05:21:00	BASE	3.04	103	4.01	105	-2.4	51	-11.3	0	0	1004.0	NA	0.0000		9999	0	0	0	0
2019/02/28 05:22:00	BASE	3.15	98	4.01	105	-2.4	51	-11.2	0	0	1004.0	NA	0.0000		9999	0	0	0	0
2019/02/28 05:23:00	BASE	2.96	95	4.01	105	-2.4	51	-11.2	0	0	1004.0	NA	0.0000		9999	0	0	0	0
2019/02/28 05:24:00	BASE	2.53	96	4.01	105	-2.4	51	-11.3	0	0	1004.0	NA	0.0000		9999	0	0	0	0
2019/02/28 05:25:00	BASE	2.56	92	4.01	105	-2.5	50	-11.4	0	0	1004.0	NA	0.0000		9999	0	0	0	0
2019/02/28 05:26:00	BASE	2.70	91	4.01	105	-2.6	50	-11.5	0	0	1003.9	NA	0.0000		9999	0	0	0	0
2019/02/28 05:27:00	BASE	2.84	96	4.01	105	-2.7	51	-11.5	0	0	1003.9	NA	0.0000		9999	0	0	0	0
2019/02/28 05:28:00	BASE	2.59	95	4.01	105	-2.7	51	-11.5	0	0	1004.0	NA	0.0000		9999	0	0	0	0
2019/02/28 05:29:00	BASE	2.27	92	4.01	105	-2.7	51	-11.6	0	0	1004.0	NA	0.0000		9999	0	0	0	0
2019/02/28 05:30:00	BASE	2.36	97	4.01	105	-2.7	51	-11.6	0	0	1004.0	NA	0.0000		9999	0	0	0	0
2019/02/28 05:31:00	BASE	2.33	103	3.96	91	-2.6	51	-11.4	0	0	1003.9	NA	0.0000		9999	0	0	0	0
2019/02/28 05:32:00	BASE	2.59	100	3.96	91	-2.6	51	-11.4	0	0	1004.0	NA	0.0000		9999	0	0	0	0
2019/02/28 05:33:00	BASE	2.54	94	3.96	91	-2.6	51	-11.4	0	0	1004.0	NA	0.0000		9999	0	0	0	0
2019/02/28 05:34:00	BASE	2.02	87	3.96	91	-2.6	51	-11.3	0	0	1004.0	NA	0.0000		9999	0	0	0	0
2019/02/28 05:35:00	BASE	1.77	80	3.96	91	-2.5	51	-11.3	0	0	1004.0	NA	0.0000		9999	0	0	0	0
2019/02/28 05:36:00	BASE	1.95	84	3.96	91	-2.5	51	-11.4	0	0	1004.0	NA	0.0000		9999	0	0	0	0
2019/02/28 05:37:00	BASE	1.88	92	3.09	105	-2.5	50	-11.4	0	0	1004.0	NA	0.0000		9999	0	0	0	0
2019/02/28 05:38:00	BASE	1.52	94	3.09	105	-2.4	50	-11.3	0	0	1004.0	NA	0.0000		9999	0	0	0	0
2019/02/28 05:39:00	BASE	1.55	89	3.09	105	-2.3	50	-11.3	0	0	1004.0	NA	0.0000		9999	0	0	0	0
2019/02/28 05:40:00	BASE	1.62	83	3.09	105	-2.2	50	-11.3	0	0	1004.0	NA	0.0000		9999	0	0	0	0
2019/02/28 05:41:00	BASE	1.26	83	3.09	105	-2.2	50	-11.2	0	0	1004.0	NA	0.0000		9999	0	0	0	0
2019/02/28 05:42:00	BASE	0.50	93	2.83	109	-2.2	50	-11.3	0	0	1003.9	NA	0.0000		9999	0	0	0	0
2019/02/28 05:43:00	BASE	0.00	123	2.52	87	-2.1	50	-11.2	0	0	1003.9	NA	0.0000		9999	0	0	0	0
2019/02/28 05:44:00	BASE	0.42	142	2.52	87	-2.2	50	-11.1	0	0	1003.9	NA	0.0000		9999	0	0	0	0
2019/02/28 05:45:00	BASE	0.93	128	2.52	87	-2.3	51	-11.0	0	0	1003.9	NA	0.0000		9999	0	0	0	0
2019/02/28 05:46:00	BASE	1.34	113	2.11	82	-2.5	52	-10.9	0	0	1003.9	NA	0.0000		9999	0	0	0	0
2019/02/28 05:47:00	BASE	1.80	114	2.11	115	-2.6	54	-10.7	0	0	1003.9	NA	0.0000		9999	0	0	0	0
2019/02/28 05:48:00	BASE	1.86	118	2.16	108	-2.7	55	-10.6	0	0	1003.9	NA	0.0000		9999	0	0	0	0
2019/02/28 05:49:00	BASE	1.65	116	2.16	108	-2.8	56	-10.4	0	0	1003.9	NA	0.0000		9999	0	0	0	0
2019/02/28 05:50:00	BASE	1.64	111	2.16	108	-2.8	56	-10.4	0	0	1003.9	NA	0.0000		9999	0	0	0	0
2019/02/28 05:51:00	BASE	1.71	113	2.16	108	-2.7	56	-10.4	0	0	1003.9	NA	0.0000		9999	0	0	0	0
2019/02/28 05:52:00	BASE	1.68	115	2.16	108	-2.7	55	-10.4	0	0	1003.9	NA	0.0000		9999	0	0	0	0
2019/02/28 05:53:00	BASE	1.64	107	2.16	108	-2.6	55	-10.4	0	0	1003.9	NA	0.0000		9999	0	0	0	0
2019/02/28 05:54:00	BASE	1.28	99	2.16	108	-2.6	55	-10.5	0	0	1003.9	NA	0.0000		9999	0	0	0	0
2019/02/28 05:55:00	BASE	1.21	104	2.42	112	-2.6	55	-10.5	0	0	1003.9	NA	0.0000		9999	0	0	0	0
2019/02/28 05:56:00	BASE	2.29	107	4.06	103	-2.5	54	-10.5	0	0	1003.9	NA	0.0000		9999	0	0	0	0
2019/02/28 05:57:00	BASE	2.76	98	4.06	103	-2.5	54	-10.5	0	0	1004.0	NA	0.0000		9999	0	0	0	0
2019/02/28 05:58:00	BASE	3.09	85	6.38	73	-2.5	54	-10.6	0	0	1004.0	NA	0.0000		9999	0	0	0	0
2019/02/28 05:59:00	BASE	3.49	77	6.38	73	-2.5	54	-10.7	0	0	1004.0	NA	0.0000		9999	0	0	0	0
2019/02/28 06:00:00	BASE	2.99	69	6.38	73	-2.6	53	-10.8	0	0	1003.9	NA	0.0000		9999	0	0	0	0
2019/02/28 06:01:00	BASE	2.97	58	6.38	73	-2.6	53	-10.9	0	0	1003.9	NA	0.0000		9999	0	0	0	0
2019/02/28 06:02:00	BASE	2.83	53	6.38	73	-2.7	52	-11.1	0	0	1004.0	NA	0.0000		9999	0	0	0	0
2019/02/28 06:03:00	BASE	2.49	49	6.38	73	-2.8	53	-11.1	0	0	1004.0	NA	0.0000		9999	0	0	0	0
2019/02/28 06:04:00	BASE	2.14	45	6.38	73	-2.9	53	-11.1	0	0	1004.0	NA	0.0000		9999	0	0	0	0
2019/02/28 06:05:00	BASE	1.74	41	6.38	73	-2.9	53	-11.1	0	0	1003.9	NA	0.0000		9999	0	0	0	0
2019/02/28 06:06:00	BASE	1.65	41	6.38	73	-3.0	54	-11.0	0	0	1003.9	NA	0.0000		9999	0	0	0	0
2019/02/28 06:07:00	BASE	1.62	41	6.38	73	-3.0	54	-10.9	0	0	1004.0	NA	0.0000		9999	0	0	0	0
2019/02/28 06:08:00	BASE	1.59	41	5.09	69	-2.9	54	-10.9	0	0	1003.9	NA	0.0000		9999	0	0	0	0
2019/02/28 06:09:00	BASE	1.55	43	3.55	52	-2.9	54	-10.9	0	0	1003.9	NA	0.0000		9999	0	0	0	0
2019/02/28 06:10:00	BASE	1.52	44	3.55	52	-2.9	54	-10.9	0	0	1004.0	NA	0.0000		9999	0	0	0	0
2019/02/28 06:11:00	BASE	1.62	44	3.55	52	-2.8	53	-11.0	0	0	1004.0	NA	0.0000		9999	0	0	0	0
2019/02/28 06:12:00	BASE	1.89	43	3.19	46	-2.8	53	-11.1	0	0	1004.0	NA	0.0000		9999	0	0	0	0
2019/02/28 06:13:00	BASE	2.00	41	2.31	39	-2.8	53	-11.1	0	0	1004.0	NA	0.0000		9999	0	0	0	0
2019/02/28 06:14:00	BASE	2.03	42	2.31	39	-2.8	52	-11.2	0	0	1004.0	NA	0.0000		9999	0	0	0	0
2019/02/28 06:15:00	BASE	2.17	40	2.31	41	-2.8	53	-11.2	0	0	1004.0	NA	0.0000		9999	0	0	0	0
2019/02/28 06:16:00	BASE	2.16	38	2.31	42	-2.9	53	-11.2	0	0	1004.0	NA	0.0000		9999	0	0	0	0
2019/02/28 06:17:00	BASE	2.11	41	2.31	42	-2.9	53	-11.1	0	0	1004.0	NA	0.0000		9999	0	0	0	0
2019/02/28 06:18:00	BASE	2.02	40	2.31	42	-3.0	54	-11.1	0	0	1004.0	NA	0.0000		9999	0	0	0	0
2019/02/28 06:19:00	BASE	1.88	37	2.31	42	-2.9	54	-11.0	0	0	1004.0	NA	0.0000		9999	0	0	0	0
2019/02/28 06:20:00	BASE	1.87	33	2.31	42	-2.9	54	-10.9	0	0	1004.0	NA	0.0000		9999	0	0	0	0
2019/02/28 06:21:00	BASE	1.79	27	2.31	42	-2.9	54	-10.8	0	0	1004.0	NA	0.0000		9999	0	0	0	0
2019/02/28 06:22:00	BASE	1.59	24	2.31	42	-2.9	54	-10.8	0	0	1003.9	NA	0.0000		9999	0	0	0	0
2019/02/28 06:23:00	BASE	1.50	20	2.31	42	-2.9	55	-10.7	0	0	1003.9	NA	0.0000		9999	0	0	0	0
2019/02/28 06:24:00	BASE	1.51	17	2.31	42	-2.8	54	-10.8	0	0	1003.9	NA	0.0000		9999	0	0	0	0
2019/02/28 06:25:00	BASE	1.53	12	2.31	42	-2.8	54	-10.8	0	0	1003.9	NA	0.0000		9999	0	0	0	0
2019/02/28 06:26:00	BASE	1.46	1	2.21	50	-2.8	54	-10.8	0	0	1003.9	NA	0.0000		9999	0	0	0	0
2019/02/28 06:27:00	BASE	1.35	356	2.01	31	-2.8	54	-10.8	0	0	1003.9	NA	0.0000		9999	0	0	0	0
2019/02/28 06:28:00	BASE	1.14	359	2.01	31	-2.8	54	-10.8	0	0	1003.9	NA	0.0000		9999	0	0	0	0
2019/02/28 06:29:00	BASE	1.97	353	6.64	343	-2.8	55	-10.7	0	0	1003.9	NA	0.0000		9999	0	0	0	0
2019/02/28 06:30:00	BASE	3.66	346	8.49	347	-2.9	55	-10.6	0	0	1004.0	NA	0.0000		9999	0	0	0	0
2019/02/28 06:31:00	BASE	6.09	345	9.98	345	-2.9	55	-10.6	0	0	1004.0	NA	0.0000		9999	0	0	0	0
2019/02/28 06:32:00	BASE	8.84	342	10.03	340	-2.9	56	-10.5	0	0	1004.0	NA	0.0000		9999	0	0	0	0
2019/02/28 06:33:00	BASE	9.18	338	10.03	340	-2.9	56	-10.4	0	0	1004.0	NA	0.0000		9999	0	0	0	0
2019/02/28 06:34:00	BASE	7.47	328	10.03	320	-2.9	57	-10.3	0	0	1004.0	NA	0.0000		9999	0	0	0	0
2019/02/28 06:35:00	BASE	6.58	320	10.08	320	-2.9	57	-10.3	0	0	1004.0	NA	0.0000		9999	0	0	0	0
2019/02/28 06:36:00	BASE	3.99	320	10.08	320	-2.9	57	-10.2	0	0	1003.9	NA	0.0000		9999	0	0	0	0
2019/02/28 06:37:00	BASE	0.93	320	10.08	320	-2.9	57	-10.1	0	0	1003.9	NA	0.0000		9999	0	0	0	0
2019/02/28 06:38:00	BASE	0.30	320	10.08	320	-2.9	57	-10.1	0	0	1003.9	NA	0.0000		9999	0	0	0	0
2019/02/28 06:39:00	BASE	0.00	320	10.08	320	-2.9	57	-10.1	0	0	1003.9	NA	0.0000		9999	0	0	0	0
2019/02/28 06:40:00	BASE	0.00	320	10.08	320	-2.8	57	-10.1	0	0	1003.9	NA	0.0000		9999	0	0	0	0
2019/02/28 06:41:00	BASE	0.00	320	10.08	320	-2.8	57	-10.2	0	0	1004.0	NA	0.0000		9999	0	0	0	0
2019/02/28 06:42:00	BASE	0.00	326	10.08	320	-2.9	56	-10.4	0	0	1004.0	NA	0.0000		9999	0	0	0	0
2019/02/28 06:43:00	BASE	0.00	347	10.08	320	-2.9	55	-10.6	0	0	1004.0	NA	0.0000		9999	0	0	0	0
2019/02/28 06:44:00	BASE	0.13	6	10.08	320	-2.9	55	-10.7	0	0	1004.0	NA	0.0000		9999	0	0	0	0
2019/02/28 06:45:00	BASE	0.76	9	2.52	321	-2.8	54	-10.8	0	0	1004.0	NA	0.0000		9999	0	0	0	0
2019/02/28 06:46:00	BASE	1.29	7	2.52	321	-2.9	55	-10.7	0	0	1004.0	NA	0.0000		9999	0	0	0	0
2019/02/28 06:47:00	BASE	1.36	5	1.54	1	-2.9	55	-10.6	0	0	1004.0	NA	0.0000		9999	0	0	0	0
2019/02/28 06:48:00	BASE	1.45	14	1.65	35	-2.9	56	-10.5	0	0	1004.0	NA	0.0000		9999	0	0	0	0
2019/02/28 06:49:00	BASE	1.64	30	1.95	42	-3.0	56	-10.5	0	0	1004.0	NA	0.0000		9999	0	0	0	0
2019/02/28 06:50:00	BASE	1.55	39	1.95	42	-3.1	56	-10.6	0	0	1004.0	NA	0.0000		9999	0	0	0	0
2019/02/28 06:51:00	BASE	1.32	44	1.95	42	-3.1	56	-10.7	0	0	1004.0	NA	0.0000		9999	0	0	0	0
2019/02/28 06:52:00	BASE	1.31	48	1.95	42	-3.1	56	-10.8	0	0	1004.0	NA	0.0000		9999	0	0	0	0
2019/02/28 06:53:00	BASE	1.28	53	1.95	42	-3.2	55	-10.9	0	0	1004.0	NA	0.0000		9999	0	0	0	0
2019/02/28 06:54:00	BASE	0.80	54	1.95	42	-3.2	55	-11.0	0	0	1004.0	NA	0.0000		9999	0	0	0	0
2019/02/28 06:55:00	BASE	0.17	56	1.95	42	-3.1	54	-11.1	0	0	1004.0	NA	0.0000		9999	0	0	0	0
2019/02/28 06:56:00	BASE	0.00	67	1.95	42	-3.1	54	-11.1	0	0	1004.0	NA	0.0000		9999	0	0	0	0
2019/02/28 06:57:00	BASE	0.00	86	1.95	42	-2.9	53	-11.1	0	0	1004.0	NA	0.0000		9999	0	0	0	0
2019/02/28 06:58:00	BASE	0.00	93	1.95	42	-2.8	53	-11.2	0	0	1004.0	NA	0.0000		9999	0	0	0	0
2019/02/28 06:59:00	BASE	0.00	89	1.65	36	-2.7	52	-11.3	0	0	1004.0	NA	0.0000		9999	0	0	0	0
2019/02/28 07:00:00	BASE	0.00	90	1.54	60	-2.6	51	-11.3	0	0	1004.0	NA	0.0000		9999	0	0	0	0
2019/02/28 07:01:00	BASE	0.00	85	1.54	60	-2.5	51	-11.4	0	0	1004.0	NA	0.0000		9999	0	0	0	0
2019/02/28 07:02:00	BASE	0.00	65	1.44	56	-2.5	50	-11.6	0	0	1004.0	NA	0.0000		9999	0	0	0	0
2019/02/28 07:03:00	BASE	0.66	46	1.59	42	-2.5	49	-11.8	0	0	1004.0	NA	0.0000		9999	0	0	0	0
2019/02/28 07:04:00	BASE	1.52	40	1.85	35	-2.4	48	-12.0	0	0	1004.1	NA	0.0000		9999	0	0	0	0
2019/02/28 07:05:00	BASE	1.75	35	2.01	33	-2.4	47	-12.1	0	0	1004.1	NA	0.0000		9999	0	0	0	0
2019/02/28 07:06:00	BASE	1.81	32	2.01	33	-2.5	47	-12.3	0	0	1004.1	NA	0.0000		9999	0	0	0	0
2019/02/28 07:07:00	BASE	1.76	29	2.01	33	-2.7	48	-12.2	0	0	1004.0	NA	0.0000		9999	0	0	0	0
2019/02/28 07:08:00	BASE	1.99	30	4.12	35	-2.8	49	-12.2	0	0	1004.0	NA	0.0000		9999	0	0	0	0
2019/02/28 07:09:00	BASE	2.14	34	4.12	35	-2.9	49	-12.1	0	0	1004.0	NA	0.0000		9999	0	0	0	0
2019/02/28 07:10:00	BASE	1.89	34	4.12	35	-3.0	50	-12.1	0	0	1004.0	NA	0.0000		9999	0	0	0	0
2019/02/28 07:11:00	BASE	2.28	30	4.12	35	-3.0	50	-12.0	0	0	1004.0	NA	0.0000		9999	0	0	0	0
2019/02/28 07:12:00	BASE	2.68	31	4.12	35	-3.0	50	-12.0	0	0	1004.0	NA	0.0000		9999	0	0	0	0
2019/02/28 07:13:00	BASE	3.01	34	6.38	31	-3.0	50	-11.9	0	0	1004.0	NA	0.0000		9999	0	0	0	0
2019/02/28 07:14:00	BASE	2.74	33	6.38	31	-3.0	50	-11.9	0	0	1004.1	NA	0.0000		9999	0	0	0	0
2019/02/28 07:15:00	BASE	2.03	33	6.38	31	-3.0	51	-11.8	0	0	1004.1	NA	0.0000		9999	0	0	0	0
2019/02/28 07:16:00	BASE	1.96	32	6.38	31	-3.0	51	-11.8	0	0	1004.1	NA	0.0000		9999	0	0	0	0
2019/02/28 07:17:00	BASE	1.91	30	6.38	31	-3.0	50	-11.8	0	0	1004.1	NA	0.0000		9999	0	0	0	0
2019/02/28 07:18:00	BASE	1.81	29	6.38	31	-3.0	50	-11.8	0	0	1004.1	NA	0.0000		9999	0	0	0	0
2019/02/28 07:19:00	BASE	1.66	32	6.38	31	-3.0	50	-11.8	0	0	1004.1	NA	0.0000		9999	0	0	0	0
2019/02/28 07:20:00	BASE	1.43	32	6.38	31	-3.0	50	-11.8	0	0	1004.1	NA	0.0000		9999	0	0	0	0
2019/02/28 07:21:00	BASE	1.21	29	6.38	31	-3.0	50	-11.8	0	0	1004.1	NA	0.0000		9999	0	0	0	0
2019/02/28 07:22:00	BASE	1.15	24	6.38	31	-2.9	50	-11.8	0	0	1004.1	NA	0.0000		9999	0	0	0	0
2019/02/28 07:23:00	BASE	1.15	22	4.12	37	-2.9	50	-11.8	0	0	1004.1	NA	0.0000		9999	0	0	0	0
2019/02/28 07:24:00	BASE	1.00	23	2.37	31	-2.8	50	-11.8	0	0	1004.1	NA	0.0000		9999	0	0	0	0
2019/02/28 07:25:00	BASE	0.80	25	2.06	33	-2.8	50	-11.8	0	0	1004.1	NA	0.0000		9999	0	0	0	0
2019/02/28 07:26:00	BASE	0.84	22	2.06	33	-2.8	50	-11.7	0	0	1004.1	NA	0.0000		9999	0	0	0	0
2019/02/28 07:27:00	BASE	0.86	17	1.85	30	-2.8	50	-11.7	0	0	1004.1	NA	0.0000		9999	0	0	0	0
2019/02/28 07:28:00	BASE	0.41	13	1.65	32	-2.8	51	-11.7	0	0	1004.1	NA	0.0000		9999	0	0	0	0
2019/02/28 07:29:00	BASE	0.00	10	1.54	33	-2.8	51	-11.6	0	0	1004.1	NA	0.0000		9999	0	0	0	0
2019/02/28 07:30:00	BASE	0.04	358	1.29	27	-2.8	51	-11.6	0	0	1004.1	NA	0.0000		9999	0	0	0	0
2019/02/28 07:31:00	BASE	0.09	340	1.23	23	-2.9	51	-11.5	0	0	1004.1	NA	0.0000		9999	0	0	0	0
2019/02/28 07:32:00	BASE	0.09	333	1.23	23	-2.9	52	-11.5	0	0	1004.1	NA	0.0000		9999	0	0	0	0
2019/02/28 07:33:00	BASE	0.09	331	1.18	18	-3.0	52	-11.4	0	0	1004.1	NA	0.0000		9999	0	0	0	0
2019/02/28 07:34:00	BASE	0.41	335	1.18	339	-3.0	53	-11.2	0	0	1004.1	NA	0.0000		9999	0	0	0	0
2019/02/28 07:35:00	BASE	0.98	345	1.39	350	-3.0	54	-11.0	0	0	1004.1	NA	0.0000		9999	0	0	0	0
2019/02/28 07:36:00	BASE	1.29	347	1.54	339	-3.0	55	-10.9	0	0	1004.1	NA	0.0000		9999	0	0	0	0
2019/02/28 07:37:00	BASE	1.28	340	1.54	339	-3.1	56	-10.7	0	0	1004.1	NA	0.0000		9999	0	0	0	0
2019/02/28 07:38:00	BASE	1.21	341	1.54	339	-3.1	56	-10.6	0	0	1004.1	NA	0.0000		9999	0	0	0	0
2019/02/28 07:39:00	BASE	1.25	346	1.54	339	-3.1	56	-10.6	0	0	1004.1	NA	0.0000		9999	0	0	0	0
2019/02/28 07:40:00	BASE	1.28	353	1.54	339	-3.1	56	-10.6	0	0	1004.1	NA	0.0000		9999	0	0	0	0
2019/02/28 07:41:00	BASE	1.26	1	1.54	339	-3.1	56	-10.7	0	0	1004.1	NA	0.0000		9999	0	0	0	0
2019/02/28 07:42:00	BASE	1.23	4	1.54	339	-3.1	55	-10.8	0	0	1004.1	NA	0.0000		9999	0	0	0	0
2019/02/28 07:43:00	BASE	1.22	5	1.54	339	-3.1	55	-10.9	0	0	1004.1	NA	0.0000		9999	0	0	0	0
2019/02/28 07:44:00	BASE	1.21	3	1.54	339	-3.0	54	-11.0	0	0	1004.1	NA	0.0000		9999	0	0	0	0
2019/02/28 07:45:00	BASE	1.25	359	1.54	339	-3.0	54	-11.1	0	0	1004.1	NA	0.0000		9999	0	0	0	0
2019/02/28 07:46:00	BASE	1.34	359	1.44	354	-3.0	54	-11.1	0	0	1004.1	NA	0.0000		9999	0	0	0	0
2019/02/28 07:47:00	BASE	1.55	1	2.52	352	-3.0	54	-11.1	0	0	1004.1	NA	0.0000		9999	0	0	0	0
2019/02/28 07:48:00	BASE	1.55	1	2.52	352	-3.0	53	-11.1	0	0	1004.1	NA	0.0000		9999	0	0	0	0
2019/02/28 07:49:00	BASE	1.39	3	2.52	352	-2.9	54	-11.1	0	0	1004.1	NA	0.0000		9999	0	0	0	0
2019/02/28 07:50:00	BASE	1.60	3	2.52	352	-3.0	54	-11.0	0	0	1004.1	NA	0.0000		9999	0	0	0	0
2019/02/28 07:51:00	BASE	1.76	3	2.57	11	-3.0	54	-10.9	0	0	1004.2	NA	0.0000		9999	0	0	0	0
2019/02/28 07:52:00	BASE	1.77	10	2.57	11	-3.0	54	-10.9	0	0	1004.2	NA	0.0000		9999	0	0	0	0
2019/02/28 07:53:00	BASE	2.06	19	3.14	24	-3.0	55	-10.9	0	0	1004.2	NA	0.0000		9999	0	0	0	0
2019/02/28 07:54:00	BASE	2.19	25	3.14	24	-3.1	55	-10.9	0	0	1004.3	NA	0.0000		9999	0	0	0	0
2019/02/28 07:55:00	BASE	2.04	26	3.14	24	-3.2	55	-10.9	0	0	1004.4	NA	0.0000		9999	0	0	0	0
2019/02/28 07:56:00	BASE	1.97	26	3.14	24	-3.3	56	-10.9	0	0	1004.4	NA	0.0000		9999	0	0	0	0
2019/02/28 07:57:00	BASE	2.05	25	3.14	24	-3.3	56	-10.8	0	0	1004.4	NA	0.0000		9999	0	0	0	0
2019/02/28 07:58:00	BASE	2.15	24	3.14	24	-3.4	57	-10.7	0	0	1004.4	NA	0.0000		9999	0	0	0	0
2019/02/28 07:59:00	BASE	2.04	24	3.14	24	-3.4	57	-10.6	0	0	1004.4	NA	0.0000		9999	0	0	0	0
2019/02/28 08:00:00	BASE	1.93	24	3.14	24	-3.4	57	-10.6	0	0	1004.4	NA	0.0000		9999	0	0	0	0
2019/02/28 08:01:00	BASE	1.95	23	3.14	24	-3.3	57	-10.6	0	0	1004.4	NA	0.0000		9999	0	0	0	0
2019/02/28 08:02:00	BASE	1.98	18	3.14	24	-3.3	57	-10.7	0	0	1004.4	NA	0.0000		9999	0	0	0	0
2019/02/28 08:03:00	BASE	2.00	14	2.31	21	-3.3	56	-10.8	0	0	1004.4	NA	0.0000		9999	0	0	0	0
2019/02/28 08:04:00	BASE	2.03	12	2.31	21	-3.2	56	-10.8	0	0	1004.4	NA	0.0000		9999	0	0	0	0
2019/02/28 08:05:00	BASE	2.06	10	2.31	21	-3.2	56	-10.8	0	0	1004.4	NA	0.0000		9999	0	0	0	0
2019/02/28 08:06:00	BASE	2.04	6	2.31	21	-3.2	56	-10.8	0	0	1004.4	NA	0.0000		9999	0	0	0	0
2019/02/28 08:07:00	BASE	1.88	5	2.26	25	-3.2	56	-10.8	0	0	1004.4	NA	0.0000		9999	0	0	0	0
2019/02/28 08:08:00	BASE	1.65	8	2.21	14	-3.2	56	-10.7	0	0	1004.5	NA	0.0000		9999	0	0	0	0
2019/02/28 08:09:00	BASE	1.55	12	2.21	14	-3.2	56	-10.7	0	0	1004.5	NA	0.0000		9999	0	0	0	0
2019/02/28 08:10:00	BASE	1.79	13	2.26	5	-3.2	56	-10.7	0	0	1004.5	NA	0.0000		9999	0	0	0	0
2019/02/28 08:11:00	BASE	2.11	11	2.31	11	-3.2	57	-10.6	0	0	1004.5	NA	0.0000		9999	0	0	0	0
2019/02/28 08:12:00	BASE	2.26	11	2.52	21	-3.2	57	-10.6	0	0	1004.5	NA	0.0000		9999	0	0	0	0
2019/02/28 08:13:00	BASE	2.34	17	2.62	29	-3.2	57	-10.5	0	0	1004.5	NA	0.0000		9999	0	0	0	0
2019/02/28 08:14:00	BASE	2.33	21	2.62	29	-3.2	57	-10.5	0	0	1004.5	NA	0.0000		9999	0	0	0	0
2019/02/28 08:15:00	BASE	2.26	24	2.62	29	-3.2	57	-10.5	0	0	1004.5	NA	0.0000		9999	0	0	0	0
2019/02/28 08:16:00	BASE	2.16	26	2.62	29	-3.2	57	-10.6	0	0	1004.5	NA	0.0000		9999	0	0	0	0
2019/02/28 08:17:00	BASE	2.03	21	2.62	29	-3.2	57	-10.6	0	0	1004.5	NA	0.0000		9999	0	0	0	0
2019/02/28 08:18:00	BASE	1.80	16	2.62	29	-3.2	56	-10.7	0	0	1004.5	NA	0.0000		9999	0	0	0	0
2019/02/28 08:19:00	BASE	1.57	15	2.62	29	-3.2	56	-10.7	0	0	1004.5	NA	0.0000		9999	0	0	0	0
2019/02/28 08:20:00	BASE	1.52	16	2.62	29	-3.2	56	-10.8	0	0	1004.5	NA	0.0000		9999	0	0	0	0
2019/02/28 08:21:00	BASE	1.41	18	2.62	29	-3.2	56	-10.7	0	0	1004.5	NA	0.0000		9999	0	0	0	0
2019/02/28 08:22:00	BASE	1.35	16	2.62	29	-3.2	56	-10.7	0	0	1004.5	NA	0.0000		9999	0	0	0	0
2019/02/28 08:23:00	BASE	1.43	15	2.47	31	-3.2	56	-10.7	0	0	1004.5	NA	0.0000		9999	0	0	0	0
2019/02/28 08:24:00	BASE	1.48	15	2.47	31	-3.2	57	-10.6	0	0	1004.5	NA	0.0000		9999	0	0	0	0
2019/02/28 08:25:00	BASE	1.54	24	2.31	26	-3.2	57	-10.6	0	0	1004.5	NA	0.0000		9999	0	0	0	0
2019/02/28 08:26:00	BASE	1.73	34	2.31	26	-3.2	57	-10.6	0	0	1004.5	NA	0.0000		9999	0	0	0	0
2019/02/28 08:27:00	BASE	1.85	36	2.57	37	-3.2	56	-10.7	0	0	1004.5	NA	0.0000		9999	0	0	0	0
2019/02/28 08:28:00	BASE	1.95	36	2.57	37	-3.2	56	-10.8	0	0	1004.5	NA	0.0000		9999	0	0	0	0
2019/02/28 08:29:00	BASE	2.11	37	2.57	37	-3.1	55	-10.8	0	0	1004.6	NA	0.0000		9999	0	0	0	0
2019/02/28 08:30:00	BASE	2.14	38	2.57	37	-3.1	55	-10.8	0	0	1004.6	NA	0.0000		9999	0	0	0	0
2019/02/28 08:31:00	BASE	2.07	36	2.57	37	-3.1	55	-10.9	0	0	1004.6	NA	0.0000		9999	0	0	0	0
2019/02/28 08:32:00	BASE	2.05	33	2.57	37	-3.1	55	-10.9	0	0	1004.6	NA	0.0000		9999	0	0	0	0
2019/02/28 08:33:00	BASE	1.93	28	2.57	37	-3.1	55	-10.9	0	0	1004.6	NA	0.0000		9999	0	0	0	0
2019/02/28 08:34:00	BASE	1.71	24	2.57	37	-3.1	55	-10.9	0	0	1004.6	NA	0.0000		9999	0	0	0	0
2019/02/28 08:35:00	BASE	1.57	22	2.57	37	-3.1	55	-10.8	0	0	1004.6	NA	0.0000		9999	0	0	0	0
2019/02/28 08:36:00	BASE	1.53	22	2.57	37	-3.0	55	-10.7	0	1	1004.6	NA	0.0000		9999	0	0	0	0
2019/02/28 08:37:00	BASE	1.46	23	2.26	31	-3.0	55	-10.7	0	1	1004.6	NA	0.0000		9999	0	0	0	0
2019/02/28 08:38:00	BASE	1.35	22	2.26	31	-3.0	55	-10.7	1	1	1004.6	NA	0.0000		9999	0	0	0	0
2019/02/28 08:39:00	BASE	1.29	19	2.26	31	-3.0	55	-10.7	1	1	1004.7	NA	0.0000		9999	0	0	0	0
2019/02/28 08:40:00	BASE	1.20	17	2.26	31	-2.9	55	-10.8	1	1	1004.7	NA	0.0000		9999	0	0	0	0
2019/02/28 08:41:00	BASE	0.99	16	2.21	33	-2.9	54	-10.8	1	1	1004.7	NA	0.0000		9999	0	0	0	0
2019/02/28 08:42:00	BASE	0.87	5	1.90	25	-2.8	54	-10.8	1	1	1004.7	NA	0.0000		9999	0	0	0	0
2019/02/28 08:43:00	BASE	0.49	351	1.75	24	-2.8	54	-10.8	1	1	1004.7	NA	0.0000		9999	0	0	0	0
2019/02/28 08:44:00	BASE	0.04	350	1.65	21	-2.8	54	-10.8	1	1	1004.7	NA	0.0000		9999	0	0	0	0
2019/02/28 08:45:00	BASE	0.00	350	1.65	21	-2.8	54	-10.8	1	2	1004.7	NA	0.0000		9999	0	0	0	0
2019/02/28 08:46:00	BASE	0.40	336	1.49	22	-2.8	54	-10.8	1	2	1004.7	NA	0.0000		9999	0	0	0	0
2019/02/28 08:47:00	BASE	0.93	317	1.49	22	-2.8	55	-10.7	1	2	1004.7	NA	0.0000		9999	0	0	0	0
2019/02/28 08:48:00	BASE	1.17	312	1.39	321	-2.8	55	-10.5	1	2	1004.7	NA	0.0000		9999	0	0	0	0
2019/02/28 08:49:00	BASE	1.29	320	1.39	321	-2.8	56	-10.4	1	2	1004.7	NA	0.0000		9999	0	0	0	0
2019/02/28 08:50:00	BASE	1.31	331	1.44	337	-2.8	56	-10.3	1	3	1004.7	NA	0.0000		9999	0	0	0	0
2019/02/28 08:51:00	BASE	1.37	340	1.54	339	-2.7	57	-10.2	2	3	1004.7	NA	0.0000		9999	0	0	0	0
2019/02/28 08:52:00	BASE	1.39	346	1.54	339	-2.7	57	-10.1	2	3	1004.7	NA	0.0000		9999	0	0	0	0
2019/02/28 08:53:00	BASE	1.26	352	1.54	339	-2.7	57	-10.0	2	3	1004.7	NA	0.0000		9999	0	0	0	0
2019/02/28 08:54:00	BASE	1.20	359	1.54	339	-2.7	58	-9.8	2	4	1004.7	NA	0.0000		9999	0	0	0	0
2019/02/28 08:55:00	BASE	1.31	2	1.54	339	-2.7	58	-9.8	2	4	1004.7	NA	0.0000		9999	0	0	0	0
2019/02/28 08:56:00	BASE	1.38	3	1.65	12	-2.7	58	-9.7	2	5	1004.7	NA	0.0000		9999	0	0	0	0
2019/02/28 08:57:00	BASE	1.52	11	1.75	18	-2.7	58	-9.7	2	5	1004.7	NA	0.0000		9999	0	0	0	0
2019/02/28 08:58:00	BASE	1.67	22	1.85	28	-2.7	58	-9.8	3	5	1004.7	NA	0.0000		9999	0	0	0	0
2019/02/28 08:59:00	BASE	1.77	27	1.85	28	-2.8	58	-9.9	3	6	1004.7	NA	0.0000		9999	0	0	0	0
2019/02/28 09:00:00	BASE	1.80	28	1.85	27	-2.8	58	-9.9	3	6	1004.7	NA	0.0000		9999	0	0	0	0
2019/02/28 09:01:00	BASE	1.81	24	1.95	20	-2.8	58	-10.0	3	7	1004.7	NA	0.0000		9999	0	0	0	0
2019/02/28 09:02:00	BASE	1.83	24	1.95	22	-2.9	58	-10.0	3	7	1004.7	NA	0.0000		9999	0	0	0	0
2019/02/28 09:03:00	BASE	1.72	27	1.95	22	-2.9	58	-10.0	3	8	1004.7	NA	0.0000		9999	0	0	0	0
2019/02/28 09:04:00	BASE	1.77	31	2.01	36	-2.9	58	-10.0	4	8	1004.7	NA	0.0000		9999	0	0	0	0
2019/02/28 09:05:00	BASE	1.91	35	2.06	35	-2.9	59	-9.9	4	9	1004.7	NA	0.0000		9999	0	0	0	0
2019/02/28 09:06:00	BASE	1.87	39	2.06	35	-2.9	59	-9.8	4	10	1004.6	NA	0.0000		9999	0	0	0	0
2019/02/28 09:07:00	BASE	1.75	42	2.06	35	-2.9	60	-9.7	4	10	1004.6	NA	0.0000		9999	0	0	0	0
2019/02/28 09:08:00	BASE	1.68	40	2.06	35	-2.9	60	-9.6	4	11	1004.6	NA	0.0000		9999	0	0	0	0
2019/02/28 09:09:00	BASE	1.57	35	2.06	35	-2.8	60	-9.5	5	12	1004.6	NA	0.0000		9999	0	0	0	0
2019/02/28 09:10:00	BASE	1.43	30	2.06	35	-2.7	59	-9.5	5	12	1004.6	NA	0.0000		9999	0	0	0	0
2019/02/28 09:11:00	BASE	1.40	34	2.06	35	-2.6	58	-9.7	5	13	1004.6	NA	0.0000		9999	0	0	0	0
2019/02/28 09:12:00	BASE	1.49	41	2.06	35	-2.4	57	-9.9	5	14	1004.6	NA	0.0000		9999	0	0	0	0
2019/02/28 09:13:00	BASE	1.72	45	2.11	52	-2.4	56	-10.0	5	15	1004.5	NA	0.0000		9999	0	0	0	0
2019/02/28 09:14:00	BASE	2.01	49	2.31	59	-2.4	55	-10.1	6	16	1004.6	NA	0.0000		9999	0	0	0	0
2019/02/28 09:15:00	BASE	2.03	53	2.31	59	-2.4	55	-10.2	6	16	1004.6	NA	0.0000		9999	0	0	0	0
2019/02/28 09:16:00	BASE	1.84	52	2.31	59	-2.5	56	-10.1	6	17	1004.5	NA	0.0000		9999	0	0	0	0
2019/02/28 09:17:00	BASE	1.77	50	2.31	59	-2.7	57	-10.1	6	18	1004.5	NA	0.0000		9999	0	0	0	0
2019/02/28 09:18:00	BASE	1.81	49	2.31	59	-2.8	58	-10.0	7	19	1004.5	NA	0.0000		9999	0	0	0	0
2019/02/28 09:19:00	BASE	1.91	47	2.31	59	-2.8	58	-9.8	7	20	1004.6	NA	0.0000		9999	0	0	0	0
2019/02/28 09:20:00	BASE	1.90	44	2.31	59	-2.8	59	-9.7	7	21	1004.6	NA	0.0000		9999	0	0	0	0
2019/02/28 09:21:00	BASE	1.63	41	2.31	59	-2.8	59	-9.6	7	22	1004.6	NA	0.0000		9999	0	0	0	0
2019/02/28 09:22:00	BASE	1.33	39	2.31	59	-2.7	59	-9.6	7	23	1004.6	NA	0.0000		9999	0	0	0	0
2019/02/28 09:23:00	BASE	0.93	41	2.31	59	-2.6	59	-9.6	8	24	1004.6	NA	0.0000		9999	0	0	0	0
2019/02/28 09:24:00	BASE	0.33	39	2.21	55	-2.6	58	-9.7	8	25	1004.6	NA	0.0000		9999	0	0	0	0
2019/02/28 09:25:00	BASE	0.20	38	2.11	45	-2.5	57	-9.8	8	26	1004.6	NA	0.0000		9999	0	0	0	0
2019/02/28 09:26:00	BASE	0.54	40	2.11	45	-2.4	56	-9.9	8	27	1004.6	NA	0.0000		9999	0	0	0	0
2019/02/28 09:27:00	BASE	0.33	43	2.11	45	-2.4	56	-10.0	9	28	1004.6	NA	0.0000		9999	0	0	0	0
2019/02/28 09:28:00	BASE	0.00	52	2.11	45	-2.4	56	-10.0	9	29	1004.6	NA	0.0000		9999	0	0	0	0
2019/02/28 09:29:00	BASE	0.04	51	1.95	44	-2.3	55	-10.1	9	30	1004.6	NA	0.0000		9999	0	0	0	0
2019/02/28 09:30:00	BASE	0.04	26	1.65	40	-2.4	55	-10.2	10	31	1004.6	NA	0.0000		9999	0	0	0	0
2019/02/28 09:31:00	BASE	0.00	3	1.34	45	-2.4	55	-10.3	10	32	1004.6	NA	0.0000		9999	0	0	0	0
2019/02/28 09:32:00	BASE	0.00	348	1.29	42	-2.5	54	-10.4	10	34	1004.6	NA	0.0000		9999	0	0	0	0
2019/02/28 09:33:00	BASE	0.00	357	1.29	42	-2.5	55	-10.4	11	35	1004.6	NA	0.0000		9999	0	0	0	0
2019/02/28 09:34:00	BASE	0.00	37	1.29	42	-2.5	55	-10.4	11	36	1004.6	NA	0.0000		9999	0	0	0	0
2019/02/28 09:35:00	BASE	0.00	35	1.18	42	-2.5	55	-10.3	11	37	1004.6	NA	0.0000		9999	0	0	0	0
2019/02/28 09:36:00	BASE	0.00	3	1.03	52	-2.4	55	-10.2	11	38	1004.6	NA	0.0000		9999	0	0	0	0
2019/02/28 09:37:00	BASE	0.00	12	1.03	52	-2.3	55	-10.2	12	39	1004.6	NA	0.0000		9999	0	0	0	0
2019/02/28 09:38:00	BASE	0.19	48	1.18	76	-2.2	54	-10.4	12	40	1004.6	NA	0.0000		9999	0	0	0	0
2019/02/28 09:39:00	BASE	0.19	54	1.18	76	-2.2	53	-10.5	12	41	1004.6	NA	0.0000		9999	0	0	0	0
2019/02/28 09:40:00	BASE	0.09	51	1.18	76	-2.2	52	-10.7	12	42	1004.6	NA	0.0000		9999	0	0	0	0
2019/02/28 09:41:00	BASE	0.13	55	1.18	76	-2.2	52	-10.9	13	44	1004.6	NA	0.0000		9999	0	0	0	0
2019/02/28 09:42:00	BASE	0.34	60	1.39	70	-2.2	51	-11.1	13	45	1004.6	NA	0.0000		9999	0	0	0	0
2019/02/28 09:43:00	BASE	0.30	49	1.39	70	-2.2	50	-11.2	13	46	1004.6	NA	0.0000		9999	0	0	0	0
2019/02/28 09:44:00	BASE	0.00	32	1.39	70	-2.1	50	-11.2	13	47	1004.6	NA	0.0000		9999	0	0	0	0
2019/02/28 09:45:00	BASE	0.00	28	1.39	70	-2.0	50	-11.1	14	48	1004.6	NA	0.0000		9999	0	0	0	0
2019/02/28 09:46:00	BASE	0.00	7	1.39	70	-2.0	50	-11.1	14	49	1004.6	NA	0.0000		9999	0	0	0	0
2019/02/28 09:47:00	BASE	0.00	345	1.39	70	-2.0	51	-10.9	14	50	1004.6	NA	0.0000		9999	0	0	0	0
2019/02/28 09:48:00	BASE	0.23	338	1.39	70	-2.1	51	-10.8	14	52	1004.6	NA	0.0000		9999	0	0	0	0
2019/02/28 09:49:00	BASE	0.82	331	1.39	332	-2.1	52	-10.7	15	53	1004.6	NA	0.0000		9999	0	0	0	0
2019/02/28 09:50:00	BASE	1.26	335	1.44	336	-2.2	52	-10.7	15	54	1004.6	NA	0.0000		9999	0	0	0	0
2019/02/28 09:51:00	BASE	1.25	333	1.44	336	-2.3	53	-10.6	15	55	1004.6	NA	0.0000		9999	0	0	0	0
2019/02/28 09:52:00	BASE	1.12	325	1.44	336	-2.4	54	-10.4	15	56	1004.6	NA	0.0000		9999	0	0	0	0
2019/02/28 09:53:00	BASE	0.62	319	1.44	336	-2.5	56	-10.1	16	57	1004.7	NA	0.0000		9999	0	0	0	0
2019/02/28 09:54:00	BASE	0.31	314	1.44	336	-2.5	57	-9.9	16	58	1004.7	NA	0.0000		9999	0	0	0	0
2019/02/28 09:55:00	BASE	0.54	309	1.44	336	-2.6	59	-9.6	16	60	1004.7	NA	0.0000		9999	0	0	0	0
2019/02/28 09:56:00	BASE	0.35	306	1.44	336	-2.6	61	-9.2	16	61	1004.7	NA	0.0000		9999	0	0	0	0
2019/02/28 09:57:00	BASE	0.18	311	1.44	336	-2.7	62	-8.9	17	62	1004.7	NA	0.0000		9999	0	0	0	0
2019/02/28 09:58:00	BASE	0.65	320	1.44	336	-2.7	64	-8.6	17	63	1004.7	NA	0.0000		9999	0	0	0	0
2019/02/28 09:59:00	BASE	0.51	325	1.44	336	-2.7	66	-8.2	18	65	1004.7	NA	0.0000		9999	0	0	0	0
2019/02/28 10:00:00	BASE	0.28	329	1.34	313	-2.8	68	-7.9	21	68	1004.7	NA	0.0000		9999	0	0	0	0
2019/02/28 10:01:00	BASE	0.91	332	1.39	326	-2.8	69	-7.7	28	77	1004.7	NA	0.0000		9999	0	0	0	0
2019/02/28 10:02:00	BASE	1.31	333	1.49	329	-2.7	69	-7.7	39	88	1004.7	NA	0.0000		9999	0	0	0	0
2019/02/28 10:03:00	BASE	1.43	331	1.54	329	-2.7	68	-7.9	50	100	1004.7	NA	0.0000		9999	0	0	0	0
2019/02/28 10:04:00	BASE	1.53	331	1.70	331	-2.7	67	-8.0	60	111	1004.7	NA	0.0000		9999	0	0	0	0
2019/02/28 10:05:00	BASE	1.47	334	1.70	331	-2.7	65	-8.3	67	119	1004.7	NA	0.0000		9999	0	0	0	0
2019/02/28 10:06:00	BASE	1.20	332	1.70	331	-2.7	64	-8.5	69	123	1004.7	NA	0.0000		9999	0	0	0	0
2019/02/28 10:07:00	BASE	1.13	334	1.70	331	-2.7	64	-8.6	71	126	1004.7	NA	0.0000		9999	0	0	0	0
2019/02/28 10:08:00	BASE	1.28	341	1.70	331	-2.7	63	-8.8	74	130	1004.7	NA	0.0000		9999	0	0	0	0
2019/02/28 10:09:00	BASE	1.35	346	1.70	331	-2.7	61	-9.1	76	134	1004.7	NA	0.0000		9999	0	0	0	0
2019/02/28 10:10:00	BASE	1.35	347	1.70	331	-2.7	60	-9.3	78	138	1004.7	NA	0.0000		9999	0	0	0	0
2019/02/28 10:11:00	BASE	1.30	359	1.70	331	-2.6	59	-9.5	80	142	1004.7	NA	0.0000		9999	0	0	0	0
2019/02/28 10:12:00	BASE	1.16	10	1.70	331	-2.6	58	-9.7	82	146	1004.7	NA	0.0000		9999	0	0	0	0
2019/02/28 10:13:00	BASE	0.52	4	1.70	331	-2.6	58	-9.7	85	150	1004.7	NA	0.0000		9999	0	0	0	0
2019/02/28 10:14:00	BASE	0.23	2	1.59	336	-2.6	58	-9.7	87	154	1004.7	NA	0.0000		9999	0	0	0	0
2019/02/28 10:15:00	BASE	0.56	3	1.49	345	-2.6	59	-9.6	89	158	1004.7	NA	0.0000		9999	0	0	0	0
2019/02/28 10:16:00	BASE	0.95	4	1.49	345	-2.6	59	-9.5	92	162	1004.7	NA	0.0000		9999	0	0	0	0
2019/02/28 10:17:00	BASE	1.27	4	1.49	345	-2.6	59	-9.6	94	166	1004.7	NA	0.0000		9999	0	0	0	0
2019/02/28 10:18:00	BASE	1.36	1	1.49	354	-2.6	58	-9.8	96	170	1004.7	NA	0.0000		9999	0	0	0	0
2019/02/28 10:19:00	BASE	1.44	2	1.54	354	-2.6	57	-10.0	99	174	1004.7	NA	0.0000		9999	0	0	0	0
2019/02/28 10:20:00	BASE	1.48	5	1.59	48	-2.6	56	-10.2	101	179	1004.7	NA	0.0000		9999	0	0	0	0
2019/02/28 10:21:00	BASE	1.52	2	1.75	360	-2.6	56	-10.3	104	183	1004.7	NA	0.0000		9999	0	0	0	0
2019/02/28 10:22:00	BASE	1.61	1	1.80	360	-2.6	56	-10.3	106	187	1004.7	NA	0.0000		9999	0	0	0	0
2019/02/28 10:23:00	BASE	1.70	2	1.85	360	-2.6	56	-10.2	108	191	1004.7	NA	0.0000		9999	0	0	0	0
2019/02/28 10:24:00	BASE	1.77	1	1.95	1	-2.6	56	-10.2	110	195	1004.7	NA	0.0000		9999	0	0	0	0
2019/02/28 10:25:00	BASE	1.81	2	1.95	1	-2.5	56	-10.1	113	200	1004.7	NA	0.0000		9999	0	0	0	0
2019/02/28 10:26:00	BASE	1.76	4	1.95	1	-2.5	56	-10.1	115	204	1004.7	NA	0.0000		9999	0	0	0	0
2019/02/28 10:27:00	BASE	1.68	5	1.95	1	-2.5	56	-10.1	118	209	1004.7	NA	0.0000		9999	0	0	0	0
2019/02/28 10:28:00	BASE	1.65	5	1.95	1	-2.5	56	-10.1	120	213	1004.7	NA	0.0000		9999	0	0	0	0
2019/02/28 10:29:00	BASE	1.66	5	1.95	1	-2.6	56	-10.2	122	218	1004.7	NA	0.0000		9999	0	0	0	0
2019/02/28 10:30:00	BASE	1.64	5	1.95	1	-2.6	55	-10.3	125	222	1004.7	NA	0.0000		9999	0	0	0	0
2019/02/28 10:31:00	BASE	1.58	10	1.95	1	-2.6	55	-10.3	127	227	1004.7	NA	0.0000		9999	0	0	0	0
2019/02/28 10:32:00	BASE	1.49	16	1.95	1	-2.6	55	-10.4	129	231	1004.7	NA	0.0000		9999	0	0	0	0
2019/02/28 10:33:00	BASE	1.43	18	1.95	1	-2.6	55	-10.4	131	236	1004.7	NA	0.0000		9999	0	0	0	0
2019/02/28 10:34:00	BASE	1.39	21	1.90	1	-2.6	55	-10.3	134	240	1004.7	NA	0.0000		9999	0	0	0	0
2019/02/28 10:35:00	BASE	1.40	24	1.85	1	-2.6	56	-10.2	136	245	1004.7	NA	0.0000		9999	0	0	0	0
2019/02/28 10:36:00	BASE	1.47	25	1.85	1	-2.6	56	-10.2	139	250	1004.7	NA	0.0000		9999	0	0	0	0
2019/02/28 10:37:00	BASE	1.51	25	1.85	1	-2.6	57	-10.1	141	254	1004.7	NA	0.0000		9999	0	0	0	0
2019/02/28 10:38:00	BASE	1.53	23	1.75	2	-2.6	57	-10.1	143	259	1004.8	NA	0.0000		9999	0	0	0	0
2019/02/28 10:39:00	BASE	1.57	19	1.75	2	-2.6	57	-10.1	145	263	1004.8	NA	0.0000		9999	0	0	0	0
2019/02/28 10:40:00	BASE	1.60	18	1.65	15	-2.6	56	-10.1	147	267	1004.8	NA	0.0000		9999	0	0	0	0
2019/02/28 10:41:00	BASE	1.62	14	1.70	11	-2.6	56	-10.2	149	271	1004.7	NA	0.0000		9999	0	0	0	0
2019/02/28 10:42:00	BASE	1.68	8	1.75	4	-2.6	56	-10.3	151	275	1004.8	NA	0.0000		9999	0	0	0	0
2019/02/28 10:43:00	BASE	1.69	5	1.75	4	-2.6	56	-10.3	153	278	1004.7	NA	0.0000		9999	0	0	0	0
2019/02/28 10:44:00	BASE	1.74	3	1.85	1	-2.6	56	-10.2	155	283	1004.7	NA	0.0000		9999	0	0	0	0
2019/02/28 10:45:00	BASE	1.81	3	1.85	4	-2.6	56	-10.1	157	287	1004.7	NA	0.0000		9999	0	0	0	0
2019/02/28 10:46:00	BASE	1.76	4	1.85	354	-2.6	57	-10.0	159	291	1004.7	NA	0.0000		9999	0	0	0	0
2019/02/28 10:47:00	BASE	1.72	2	1.85	354	-2.6	57	-10.0	161	295	1004.7	NA	0.0000		9999	0	0	0	0
2019/02/28 10:48:00	BASE	1.72	1	1.85	1	-2.6	57	-9.9	163	299	1004.7	NA	0.0000		9999	0	0	0	0
2019/02/28 10:49:00	BASE	1.93	4	2.98	26	-2.6	58	-9.8	165	302	1004.7	NA	0.0000		9999	0	0	0	0
2019/02/28 10:50:00	BASE	2.82	6	4.32	344	-2.6	58	-9.7	167	307	1004.7	NA	0.0000		9999	0	0	0	0
2019/02/28 10:51:00	BASE	4.47	3	6.64	3	-2.6	59	-9.5	168	310	1004.7	NA	0.0000		9999	0	0	0	0
2019/02/28 10:52:00	BASE	6.02	4	7.15	7	-2.6	59	-9.4	169	315	1004.7	NA	0.0000		9999	0	0	0	0
2019/02/28 10:53:00	BASE	6.22	8	7.15	7	-2.6	60	-9.3	171	317	1004.7	NA	0.0000		9999	0	0	0	0
2019/02/28 10:54:00	BASE	5.26	8	7.15	7	-2.6	60	-9.3	172	320	1004.7	NA	0.0000		9999	0	0	0	0
2019/02/28 10:55:00	BASE	5.03	7	7.15	7	-2.5	60	-9.3	172	323	1004.7	NA	0.0000		9999	0	0	0	0
2019/02/28 10:56:00	BASE	5.86	7	7.15	7	-2.5	59	-9.4	172	324	1004.7	NA	0.0000		9999	0	0	0	0
2019/02/28 10:57:00	BASE	4.10	9	7.15	7	-2.5	59	-9.5	173	325	1004.7	NA	0.0000		9999	0	0	0	0
2019/02/28 10:58:00	BASE	1.69	8	7.15	7	-2.5	59	-9.5	174	327	1004.7	NA	0.0000		9999	0	0	0	0
2019/02/28 10:59:00	BASE	1.63	8	7.15	7	-2.5	58	-9.5	175	330	1004.7	NA	0.0000		9999	0	0	0	0
2019/02/28 11:00:00	BASE	1.68	14	7.15	7	-2.5	58	-9.6	178	336	1004.7	NA	0.0000		9999	0	0	0	0
2019/02/28 11:01:00	BASE	1.65	16	7.15	7	-2.5	58	-9.5	181	341	1004.7	NA	0.0000		9999	0	0	0	0
2019/02/28 11:02:00	BASE	1.61	11	6.94	13	-2.4	58	-9.5	184	347	1004.8	NA	0.0000		9999	0	0	0	0
2019/02/28 11:03:00	BASE	1.58	9	6.94	13	-2.4	58	-9.5	186	352	1004.8	NA	0.0000		9999	0	0	0	0
2019/02/28 11:04:00	BASE	1.55	7	6.94	13	-2.4	59	-9.4	189	356	1004.8	NA	0.0000		9999	0	0	0	0
2019/02/28 11:05:00	BASE	1.57	7	6.94	13	-2.4	59	-9.4	190	360	1004.8	NA	0.0000		9999	0	0	0	0
2019/02/28 11:06:00	BASE	1.59	8	3.55	8	-2.4	59	-9.4	193	365	1004.8	NA	0.0000		9999	0	0	0	0
2019/02/28 11:07:00	BASE	1.48	5	1.80	12	-2.4	59	-9.3	193	367	1004.8	NA	0.0000		9999	0	0	0	0
2019/02/28 11:08:00	BASE	1.48	7	1.80	12	-2.4	59	-9.4	195	371	1004.8	NA	0.0000		9999	0	0	0	0
2019/02/28 11:09:00	BASE	1.42	13	1.75	6	-2.3	58	-9.4	198	376	1004.8	NA	0.0000		9999	0	0	0	0
2019/02/28 11:10:00	BASE	1.30	18	1.75	6	-2.3	58	-9.5	199	380	1004.8	NA	0.0000		9999	0	0	0	0
2019/02/28 11:11:00	BASE	1.36	24	1.75	6	-2.3	58	-9.5	201	384	1004.8	NA	0.0000		9999	0	0	0	0
2019/02/28 11:12:00	BASE	1.46	29	1.75	6	-2.2	57	-9.6	204	389	1004.8	NA	0.0000		9999	0	0	0	0
2019/02/28 11:13:00	BASE	1.58	29	1.80	30	-2.2	57	-9.6	205	393	1004.8	NA	0.0000		9999	0	0	0	0
2019/02/28 11:14:00	BASE	1.71	30	1.85	34	-2.2	57	-9.5	207	397	1004.8	NA	0.0000		9999	0	0	0	0
2019/02/28 11:15:00	BASE	1.74	28	1.95	25	-2.2	58	-9.4	209	401	1004.8	NA	0.0000		9999	0	0	0	0
2019/02/28 11:16:00	BASE	1.70	23	1.95	25	-2.2	58	-9.4	211	405	1004.8	NA	0.0000		9999	0	0	0	0
2019/02/28 11:17:00	BASE	1.66	22	1.95	25	-2.2	58	-9.4	213	409	1004.8	NA	0.0000		9999	0	0	0	0
2019/02/28 11:18:00	BASE	1.63	21	1.95	25	-2.2	58	-9.4	215	413	1004.8	NA	0.0000		9999	0	0	0	0
2019/02/28 11:19:00	BASE	1.53	16	1.95	25	-2.2	58	-9.5	218	419	1004.9	NA	0.0000		9999	0	0	0	0
2019/02/28 11:20:00	BASE	1.37	8	1.95	25	-2.2	57	-9.5	220	424	1004.9	NA	0.0000		9999	0	0	0	0
2019/02/28 11:21:00	BASE	1.36	3	1.95	25	-2.2	57	-9.5	223	429	1004.9	NA	0.0000		9999	0	0	0	0
2019/02/28 11:22:00	BASE	1.42	4	1.95	25	-2.3	58	-9.5	225	433	1004.9	NA	0.0000		9999	0	0	0	0
2019/02/28 11:23:00	BASE	1.35	10	1.95	25	-2.3	58	-9.4	227	438	1004.9	NA	0.0000		9999	0	0	0	0
2019/02/28 11:24:00	BASE	1.21	9	1.95	25	-2.3	59	-9.3	229	442	1004.9	NA	0.0000		9999	0	0	0	0
2019/02/28 11:25:00	BASE	1.14	2	1.90	27	-2.3	59	-9.3	231	446	1004.8	NA	0.0000		9999	0	0	0	0
2019/02/28 11:26:00	BASE	1.03	3	1.85	23	-2.3	59	-9.3	233	450	1004.8	NA	0.0000		9999	0	0	0	0
2019/02/28 11:27:00	BASE	0.95	358	1.85	23	-2.3	59	-9.3	235	455	1004.9	NA	0.0000		9999	0	0	0	0
2019/02/28 11:28:00	BASE	1.10	358	1.75	332	-2.3	58	-9.3	237	459	1004.9	NA	0.0000		9999	0	0	0	0
2019/02/28 11:29:00	BASE	1.12	12	1.75	332	-2.2	58	-9.3	239	464	1004.9	NA	0.0000		9999	0	0	0	0
2019/02/28 11:30:00	BASE	1.27	21	1.80	21	-2.2	59	-9.2	241	468	1004.8	NA	0.0000		9999	0	0	0	0
2019/02/28 11:31:00	BASE	1.56	11	1.85	354	-2.1	59	-9.2	243	472	1004.8	NA	0.0000		9999	0	0	0	0
2019/02/28 11:32:00	BASE	1.74	14	2.06	24	-2.1	59	-9.1	245	477	1004.8	NA	0.0000		9999	0	0	0	0
2019/02/28 11:33:00	BASE	1.90	29	2.26	37	-2.1	59	-9.1	247	480	1004.8	NA	0.0000		9999	0	0	0	0
2019/02/28 11:34:00	BASE	1.89	33	2.26	37	-2.1	59	-9.0	249	484	1004.8	NA	0.0000		9999	0	0	0	0
2019/02/28 11:35:00	BASE	1.92	32	2.26	37	-2.0	59	-9.1	250	488	1004.8	NA	0.0000		9999	0	0	0	0
2019/02/28 11:36:00	BASE	1.87	31	2.26	37	-2.0	59	-9.1	0	0	1004.8	NA	0.0000		9999	0	0	0	0
2019/02/28 11:37:00	BASE	1.93	34	2.26	37	-2.0	58	-9.1	0	0	1004.8	NA	0.0000		9999	0	0	0	0
2019/02/28 11:38:00	BASE	2.03	33	2.26	37	-2.0	58	-9.1	0	0	1004.9	NA	0.0000		9999	0	0	0	0
2019/02/28 11:39:00	BASE	1.91	31	2.26	37	-2.0	58	-9.1	0	0	1004.9	NA	0.0000		9999	0	0	0	0
2019/02/28 11:40:00	BASE	1.85	30	2.26	37	-2.0	58	-9.1	0	0	1004.9	NA	0.0000		M	0	0	0	0
2019/02/28 11:41:00	BASE	1.79	27	2.26	37	-2.0	58	-9.1	0	0	1004.9	NA	0.0000		M	0	0	0	0
2019/02/28 11:42:00	BASE	1.61	25	2.26	37	-2.0	58	-9.1	0	0	1004.9	NA	0.0000		M	0	0	0	0
2019/02/28 11:43:00	BASE	1.48	22	2.21	39	-2.0	58	-9.1	0	0	1004.9	NA	0.0000		M	0	0	0	0
2019/02/28 11:44:00	BASE	3.39	19	9.98	26	-2.0	58	-9.1	0	43	1004.9	NA	0.0000		M	0	0	0	0
2019/02/28 11:45:00	BASE	6.87	21	9.98	22	-2.0	58	-9.1	0	37	M	NA	0.0000		M	0	0	0	0
2019/02/28 11:46:00	BASE	M	M	9.98	22	-2.0	58	-9.1	0	37	M	NA	0.0000		M	M	M	M	M
2019/02/28 11:47:00	BASE	M	M	M	M	-2.0	58	-9.1	M	M	M	NA	0.0000		M	M	M	M	M
2019/02/28 11:48:00	BASE	M	M	M	M	-2.0	58	-9.1	M	M	M	NA	0.0000		M	M	M	M	M
2019/02/28 11:49:00	BASE	M	M	M	M	-2.0	58	-9.1	M	M	M	NA	0.0000		M	M	M	M	M
2019/02/28 11:50:00	BASE	M	M	M	M	-2.0	58	-9.1	M	M	M	NA	0.0000		M	M	M	M	M
2019/02/28 11:51:00	BASE	M	M	M	M	-2.0	58	-9.1	M	M	M	NA	0.0000		M	M	M	M	M
2019/02/28 11:52:00	BASE	M	M	M	M	-2.0	58	-9.1	M	M	M	NA	0.0000		M	M	M	M	M
2019/02/28 11:53:00	BASE	M	M	M	M	-2.0	58	-9.1	M	M	M	NA	0.0000		M	M	M	M	M
2019/02/28 11:54:00	BASE	M	M	M	M	M	M	M	M	M	M	NA	0.0000		M	M	M	M	M
2019/02/28 11:55:00	BASE	M	M	M	M	M	M	M	M	M	M	NA	0.0000		M	M	M	M	M
2019/02/28 11:56:00	BASE	M	M	M	M	M	M	M	M	M	M	NA	0.0000		M	M	M	M	M
2019/02/28 11:57:00	BASE	M	M	M	M	M	M	M	M	M	M	NA	0.0000		M	M	M	M	M
2019/02/28 11:58:00	BASE	M	M	M	M	M	M	M	M	M	M	NA	0.0000		M	M	M	M	M
2019/02/28 11:59:00	BASE	M	M	M	M	M	M	M	M	M	M	NA	0.0000		M	M	M	M	M
2019/02/28 12:00:00	BASE	M	M	M	M	M	M	M	M	M	M	NA	0.0000		M	M	M	M	M
2019/02/28 12:01:00	BASE	M	M	M	M	M	M	M	M	M	M	NA	0.0000		M	M	M	M	M
2019/02/28 12:02:00	BASE	M	M	M	M	M	M	M	M	M	M	NA	0.0000		M	M	M	M	M
2019/02/28 12:03:00	BASE	M	M	M	M	M	M	M	M	M	M	NA	0.0000		M	M	M	M	M
2019/02/28 12:04:00	BASE	M	M	M	M	M	M	M	M	M	M	NA	0.0000		M	M	M	M	M
2019/02/28 12:05:00	BASE	M	M	M	M	M	M	M	M	M	M	NA	0.0000		M	M	M	M	M
2019/02/28 12:06:00	BASE	M	M	M	M	M	M	M	M	M	M	NA	0.0000		M	M	M	M	M
2019/02/28 12:07:00	BASE	M	M	M	M	M	M	M	M	M	M	NA	0.0000		M	M	M	M	M
2019/02/28 12:08:00	BASE	M	M	M	M	M	M	M	M	M	M	NA	0.0000		M	M	M	M	M
2019/02/28 12:09:00	BASE	M	M	M	M	M	M	M	M	M	M	NA	0.0000		M	M	M	M	M
2019/02/28 12:10:00	BASE	M	M	M	M	M	M	M	M	M	M	NA	0.0000		M	M	M	M	M
2019/02/28 12:11:00	BASE	M	M	M	M	M	M	M	M	M	M	NA	0.0000		M	M	M	M	M
2019/02/28 12:12:00	BASE	M	M	M	M	M	M	M	M	M	M	NA	0.0000		M	M	M	M	M
2019/02/28 12:13:00	BASE	M	M	M	M	M	M	M	M	M	M	NA	0.0000		M	M	M	M	M
2019/02/28 12:14:00	BASE	M	M	M	M	M	M	M	M	M	M	NA	0.0000		M	M	M	M	M
2019/02/28 12:15:00	BASE	M	M	M	M	M	M	M	M	M	M	NA	0.0000		M	M	M	M	M
2019/02/28 12:16:00	BASE	M	M	M	M	M	M	M	M	M	M	NA	0.0000		M	M	M	M	M
2019/02/28 12:17:00	BASE	M	M	M	M	M	M	M	M	M	M	NA	0.0000		M	M	M	M	M
2019/02/28 12:18:00	BASE	M	M	M	M	M	M	M	M	M	M	NA	0.0000		M	M	M	M	M
2019/02/28 12:19:00	BASE	M	M	M	M	M	M	M	M	M	M	NA	0.0000		M	M	M	M	M
2019/02/28 12:20:00	BASE	M	M	M	M	M	M	M	M	M	M	NA	0.0000		M	M	M	M	M
2019/02/28 12:21:00	BASE	M	M	M	M	M	M	M	M	M	M	NA	0.0000		M	M	M	M	M
2019/02/28 12:22:00	BASE	M	M	M	M	M	M	M	M	M	M	NA	0.0000		M	M	M	M	M
2019/02/28 12:23:00	BASE	M	M	M	M	M	M	M	M	M	M	NA	0.0000		M	M	M	M	M
2019/02/28 12:24:00	BASE	M	M	M	M	M	M	M	M	M	M	NA	0.0000		M	M	M	M	M
2019/02/28 12:25:00	BASE	M	M	M	M	M	M	M	M	M	M	NA	0.0000		M	M	M	M	M
2019/02/28 12:26:00	BASE	M	M	M	M	M	M	M	M	M	M	NA	0.0000		M	M	M	M	M
2019/02/28 12:27:00	BASE	M	M	M	M	M	M	M	M	M	M	NA	0.0000		M	M	M	M	M
2019/02/28 12:28:00	BASE	M	M	M	M	M	M	M	M	M	M	NA	0.0000		M	M	M	M	M
2019/02/28 12:29:00	BASE	M	M	M	M	M	M	M	M	M	M	NA	0.0000		M	M	M	M	M
2019/02/28 12:30:00	BASE	M	M	M	M	M	M	M	M	M	M	NA	0.0000		M	M	M	M	M
2019/02/28 12:31:00	BASE	M	M	M	M	M	M	M	M	M	M	NA	0.0000		M	M	M	M	M
2019/02/28 12:32:00	BASE	M	M	M	M	M	M	M	M	M	M	NA	0.0000		M	M	M	M	M
2019/02/28 12:33:00	BASE	M	M	M	M	M	M	M	M	M	M	NA	0.0000		M	M	M	M	M
2019/02/28 12:34:00	BASE	M	M	M	M	M	M	M	M	M	M	NA	0.0000		M	M	M	M	M
2019/02/28 12:35:00	BASE	M	M	M	M	M	M	M	M	M	M	NA	0.0000		M	M	M	M	M
2019/02/28 12:36:00	BASE	M	M	M	M	M	M	M	M	M	M	NA	0.0000		M	M	M	M	M
2019/02/28 12:37:00	BASE	M	M	M	M	M	M	M	M	M	M	NA	0.0000		M	M	M	M	M
2019/02/28 12:38:00	BASE	M	M	M	M	M	M	M	M	M	M	NA	0.0000		M	M	M	M	M
2019/02/28 12:39:00	BASE	M	M	M	M	M	M	M	M	M	M	NA	0.0000		M	M	M	M	M
2019/02/28 12:40:00	BASE	M	M	M	M	M	M	M	M	M	M	NA	0.0000		M	M	M	M	M
2019/02/28 12:41:00	BASE	M	M	M	M	M	M	M	M	M	M	NA	0.0000		M	M	M	M	M
2019/02/28 12:42:00	BASE	M	M	M	M	M	M	M	M	M	M	NA	0.0000		M	M	M	M	M
2019/02/28 12:43:00	BASE	M	M	M	M	M	M	M	M	M	M	NA	0.0000		M	M	M	M	M
2019/02/28 12:44:00	BASE	M	M	M	M	M	M	M	M	M	M	NA	0.0000		M	M	M	M	M
2019/02/28 12:45:00	BASE	M	M	M	M	M	M	M	M	M	M	NA	0.0000		M	M	M	M	M
2019/02/28 12:46:00	BASE	M	M	M	M	M	M	M	M	M	M	NA	0.0000		M	M	M	M	M
2019/02/28 12:47:00	BASE	M	M	M	M	M	M	M	M	M	M	NA	0.0000		M	M	M	M	M
2019/02/28 12:48:00	BASE	M	M	M	M	M	M	M	M	M	M	NA	0.0000		M	M	M	M	M
2019/02/28 12:49:00	BASE	M	M	M	M	M	M	M	M	M	M	NA	0.0000		M	M	M	M	M
2019/02/28 12:50:00	BASE	M	M	M	M	M	M	M	M	M	M	NA	0.0000		M	M	M	M	M
2019/02/28 12:51:00	BASE	M	M	M	M	M	M	M	M	M	M	NA	0.0000		M	M	M	M	M
2019/02/28 12:52:00	BASE	M	M	M	M	M	M	M	M	M	M	NA	0.0000		M	M	M	M	M
2019/02/28 12:53:00	BASE	M	M	M	M	M	M	M	M	M	M	NA	0.0000		M	M	M	M	M
2019/02/28 12:54:00	BASE	M	M	M	M	M	M	M	M	M	M	NA	0.0000		M	M	M	M	M
2019/02/28 12:55:00	BASE	M	M	M	M	M	M	M	M	M	M	NA	0.0000		M	M	M	M	M
2019/02/28 12:56:00	BASE	M	M	M	M	M	M	M	M	M	M	NA	0.0000		M	M	M	M	M
2019/02/28 12:57:00	BASE	M	M	M	M	M	M	M	M	M	M	NA	0.0000		M	M	M	M	M
2019/02/28 12:58:00	BASE	M	M	M	M	M	M	M	M	M	M	NA	0.0000		M	M	M	M	M
2019/02/28 12:59:00	BASE	M	M	M	M	M	M	M	M	M	M	NA	0.0000		M	M	M	M	M
2019/02/28 13:00:00	BASE	M	M	M	M	M	M	M	M	M	M	NA	0.0000		M	M	M	M	M
2019/02/28 13:01:00	BASE	M	M	M	M	M	M	M	M	M	M	NA	0.0000		M	M	M	M	M
2019/02/28 13:02:00	BASE	M	M	M	M	M	M	M	M	M	M	NA	0.0000		M	M	M	M	M
2019/02/28 13:03:00	BASE	M	M	M	M	M	M	M	M	M	M	NA	0.0000		M	M	M	M	M
2019/02/28 13:04:00	BASE	M	M	M	M	M	M	M	M	M	M	NA	0.0000		M	M	M	M	M
2019/02/28 13:05:00	BASE	M	M	M	M	M	M	M	M	M	M	NA	0.0000		M	M	M	M	M
2019/02/28 13:06:00	BASE	M	M	M	M	M	M	M	M	M	M	NA	0.0000		M	M	M	M	M
2019/02/28 13:07:00	BASE	M	M	M	M	M	M	M	M	M	M	NA	0.0000		M	M	M	M	M
2019/02/28 13:08:00	BASE	M	M	M	M	M	M	M	M	M	M	NA	0.0000		M	M	M	M	M
2019/02/28 13:09:00	BASE	M	M	M	M	M	M	M	M	M	M	NA	0.0000		M	M	M	M	M
2019/02/28 13:10:00	BASE	M	M	M	M	M	M	M	M	M	M	NA	0.0000		M	M	M	M	M
2019/02/28 13:11:00	BASE	M	M	M	M	M	M	M	M	M	M	NA	0.0000		M	M	M	M	M
2019/02/28 13:12:00	BASE	M	M	M	M	M	M	M	M	M	M	NA	0.0000		M	M	M	M	M
2019/02/28 13:13:00	BASE	M	M	M	M	M	M	M	M	M	M	NA	0.0000		M	M	M	M	M
2019/02/28 13:14:00	BASE	M	M	M	M	M	M	M	M	M	M	NA	0.0000		M	M	M	M	M
2019/02/28 13:15:00	BASE	M	M	M	M	M	M	M	M	M	M	NA	0.0000		M	M	M	M	M
2019/02/28 13:16:00	BASE	M	M	M	M	M	M	M	M	M	M	NA	0.0000		M	M	M	M	M
2019/02/28 13:17:00	BASE	M	M	M	M	M	M	M	M	M	M	NA	0.0000		M	M	M	M	M
2019/02/28 13:18:00	BASE	M	M	M	M	M	M	M	M	M	M	NA	0.0000		M	M	M	M	M
2019/02/28 13:19:00	BASE	M	M	M	M	M	M	M	M	M	M	NA	0.0000		M	M	M	M	M
2019/02/28 13:20:00	BASE	M	M	M	M	M	M	M	M	M	M	NA	0.0000		M	M	M	M	M
2019/02/28 13:21:00	BASE	M	M	M	M	M	M	M	M	M	M	NA	0.0000		M	M	M	M	M
2019/02/28 13:22:00	BASE	M	M	M	M	M	M	M	M	M	M	NA	0.0000		M	M	M	M	M
2019/02/28 13:23:00	BASE	M	M	M	M	M	M	M	M	M	M	NA	0.0000		M	M	M	M	M
2019/02/28 13:24:00	BASE	M	M	M	M	M	M	M	M	M	M	NA	0.0000		M	M	M	M	M
2019/02/28 13:25:00	BASE	M	M	M	M	M	M	M	M	M	M	NA	0.0000		M	M	M	M	M
2019/02/28 13:26:00	BASE	M	M	M	M	M	M	M	M	M	M	NA	0.0000		M	M	M	M	M
2019/02/28 13:27:00	BASE	M	M	M	M	M	M	M	M	M	M	NA	0.0000		M	M	M	M	M
2019/02/28 13:28:00	BASE	M	M	M	M	M	M	M	M	M	M	NA	0.0000		M	M	M	M	M
2019/02/28 13:29:00	BASE	M	M	M	M	M	M	M	M	M	M	NA	0.0000		M	M	M	M	M
2019/02/28 13:30:00	BASE	M	M	M	M	M	M	M	M	M	M	NA	0.0000		M	M	M	M	M
2019/02/28 13:31:00	BASE	M	M	M	M	M	M	M	M	M	M	NA	0.0000		M	M	M	M	M
2019/02/28 13:32:00	BASE	M	M	M	M	M	M	M	M	M	M	NA	0.0000		M	M	M	M	M
2019/02/28 13:33:00	BASE	M	M	M	M	M	M	M	M	M	M	NA	0.0000		M	M	M	M	M
2019/02/28 13:34:00	BASE	M	M	M	M	M	M	M	M	M	M	NA	0.0000		M	M	M	M	M
2019/02/28 13:35:00	BASE	M	M	M	M	M	M	M	M	M	M	NA	0.0000		M	M	M	M	M
2019/02/28 13:36:00	BASE	M	M	M	M	M	M	M	M	M	M	NA	0.0000		M	M	M	M	M
2019/02/28 13:37:00	BASE	M	M	M	M	M	M	M	M	M	M	NA	0.0000		M	M	M	M	M
2019/02/28 13:38:00	BASE	M	M	M	M	M	M	M	M	M	M	NA	0.0000		M	M	M	M	M
2019/02/28 13:39:00	BASE	M	M	M	M	M	M	M	M	M	M	NA	0.0000		M	M	M	M	M
2019/02/28 13:40:00	BASE	M	M	M	M	M	M	M	M	M	M	NA	0.0000		M	M	M	M	M
2019/02/28 13:41:00	BASE	M	M	M	M	M	M	M	M	M	M	NA	0.0000		M	M	M	M	M
2019/02/28 13:42:00	BASE	M	M	M	M	M	M	M	M	M	M	NA	0.0000		M	M	M	M	M
2019/02/28 13:43:00	BASE	M	M	M	M	M	M	M	M	M	M	NA	0.0000		M	M	M	M	M
2019/02/28 13:44:00	BASE	M	M	M	M	M	M	M	M	M	M	NA	0.0000		M	M	M	M	M
2019/02/28 13:45:00	BASE	M	M	M	M	M	M	M	M	M	M	NA	0.0000		M	M	M	M	M
2019/02/28 13:46:00	BASE	M	M	M	M	M	M	M	M	M	M	NA	0.0000		M	M	M	M	M
2019/02/28 13:47:00	BASE	M	M	M	M	M	M	M	M	M	M	NA	0.0000		M	M	M	M	M
2019/02/28 13:48:00	BASE	M	M	M	M	M	M	M	M	M	M	NA	0.0000		M	M	M	M	M
2019/02/28 13:49:00	BASE	M	M	M	M	M	M	M	M	M	M	NA	0.0000		M	M	M	M	M
2019/02/28 13:50:01	BASE	M	M	M	M	M	M	M	M	M	M	NA	0.0000		M	M	M	M	M
2019/02/28 13:51:00	BASE	M	M	M	M	M	M	M	M	M	M	NA	0.0000		M	M	M	M	M
2019/02/28 13:52:00	BASE	M	M	M	M	M	M	M	M	M	M	NA	0.0000		M	M	M	M	M
2019/02/28 13:53:00	BASE	M	M	M	M	M	M	M	M	M	M	NA	0.0000		M	M	M	M	M
2019/02/28 13:54:00	BASE	M	M	M	M	M	M	M	M	M	M	NA	0.0000		M	M	M	M	M
2019/02/28 13:55:00	BASE	M	M	M	M	M	M	M	M	M	M	NA	0.0000		M	M	M	M	M
2019/02/28 13:56:00	BASE	M	M	M	M	M	M	M	M	M	M	NA	0.0000		M	M	M	M	M
2019/02/28 13:57:00	BASE	M	M	M	M	M	M	M	M	M	M	NA	0.0000		M	M	M	M	M
2019/02/28 13:58:00	BASE	M	M	M	M	M	M	M	M	M	M	NA	0.0000		M	M	M	M	M
2019/02/28 13:59:00	BASE	M	M	M	M	M	M	M	M	M	M	NA	0.0000		M	M	M	M	M
2019/02/28 14:00:01	BASE	M	M	M	M	M	M	M	M	M	M	NA	0.0000		M	M	M	M	M
2019/02/28 14:01:00	BASE	M	M	M	M	M	M	M	M	M	M	NA	0.0000		M	M	M	M	M
2019/02/28 14:02:00	BASE	M	M	M	M	M	M	M	M	M	M	NA	0.0000		M	M	M	M	M
2019/02/28 14:03:00	BASE	M	M	M	M	M	M	M	M	M	M	NA	0.0000		M	M	M	M	M
2019/02/28 14:04:00	BASE	M	M	M	M	M	M	M	M	M	M	NA	0.0000		M	M	M	M	M
2019/02/28 14:05:00	BASE	M	M	M	M	M	M	M	M	M	M	NA	0.0000		M	M	M	M	M
2019/02/28 14:06:00	BASE	M	M	M	M	M	M	M	M	M	M	NA	0.0000		M	M	M	M	M
2019/02/28 14:07:00	BASE	M	M	M	M	M	M	M	M	M	M	NA	0.0000		M	M	M	M	M
2019/02/28 14:08:00	BASE	M	M	M	M	M	M	M	M	M	M	NA	0.0000		M	M	M	M	M
2019/02/28 14:09:00	BASE	M	M	M	M	M	M	M	M	M	M	NA	0.0000		M	M	M	M	M
2019/02/28 14:10:00	BASE	M	M	M	M	M	M	M	M	M	M	NA	0.0000		M	M	M	M	M
2019/02/28 14:11:00	BASE	M	M	M	M	M	M	M	M	M	M	NA	0.0000		M	M	M	M	M
2019/02/28 14:12:00	BASE	M	M	M	M	M	M	M	M	M	M	NA	0.0000		M	M	M	M	M
2019/02/28 14:13:00	BASE	M	M	M	M	M	M	M	M	M	M	NA	0.0000		M	M	M	M	M
2019/02/28 14:14:00	BASE	M	M	M	M	M	M	M	M	M	M	NA	0.0000		M	M	M	M	M
2019/02/28 14:15:00	BASE	M	M	M	M	M	M	M	M	M	M	NA	0.0000		M	M	M	M	M
2019/02/28 14:16:00	BASE	M	M	M	M	M	M	M	M	M	M	NA	0.0000		M	M	M	M	M
2019/02/28 14:17:00	BASE	M	M	M	M	M	M	M	M	M	M	NA	0.0000		M	M	M	M	M
2019/02/28 14:18:00	BASE	M	M	M	M	M	M	M	M	M	M	NA	0.0000		M	M	M	M	M
2019/02/28 14:19:00	BASE	M	M	M	M	M	M	M	M	M	M	NA	0.0000		M	M	M	M	M
2019/02/28 14:20:00	BASE	M	M	M	M	M	M	M	M	M	M	NA	0.0000		M	M	M	M	M
2019/02/28 14:21:00	BASE	M	M	M	M	M	M	M	M	M	M	NA	0.0000		M	M	M	M	M
2019/02/28 14:22:00	BASE	M	M	M	M	M	M	M	M	M	M	NA	0.0000		M	M	M	M	M
2019/02/28 14:23:00	BASE	M	M	M	M	M	M	M	M	M	M	NA	0.0000		M	M	M	M	M
2019/02/28 14:24:00	BASE	M	M	M	M	M	M	M	M	M	M	NA	0.0000		M	M	M	M	M
2019/02/28 14:25:00	BASE	M	M	M	M	M	M	M	M	M	M	NA	0.0000		M	M	M	M	M
2019/02/28 14:26:00	BASE	M	M	M	M	M	M	M	M	M	M	NA	0.0000		M	M	M	M	M
2019/02/28 14:27:00	BASE	M	M	M	M	M	M	M	M	M	M	NA	0.0000		M	M	M	M	M
2019/02/28 14:28:00	BASE	M	M	M	M	M	M	M	M	M	M	NA	0.0000		M	M	M	M	M
2019/02/28 14:29:00	BASE	M	M	M	M	M	M	M	M	M	M	NA	0.0000		M	M	M	M	M
2019/02/28 14:30:00	BASE	M	M	M	M	M	M	M	M	M	M	NA	0.0000		M	M	M	M	M
2019/02/28 14:31:00	BASE	M	M	M	M	M	M	M	M	M	M	NA	0.0000		M	M	M	M	M
2019/02/28 14:32:00	BASE	M	M	M	M	M	M	M	M	M	M	NA	0.0000		M	M	M	M	M
2019/02/28 14:33:00	BASE	M	M	M	M	M	M	M	M	M	M	NA	0.0000		M	M	M	M	M
2019/02/28 14:34:00	BASE	M	M	M	M	M	M	M	M	M	M	NA	0.0000		M	M	M	M	M
2019/02/28 14:35:00	BASE	M	M	M	M	M	M	M	M	M	M	NA	0.0000		M	M	M	M	M
2019/02/28 14:36:00	BASE	M	M	M	M	M	M	M	M	M	M	NA	0.0000		M	M	M	M	M
2019/02/28 14:37:00	BASE	M	M	M	M	M	M	M	M	M	M	NA	0.0000		M	M	M	M	M
2019/02/28 14:38:00	BASE	M	M	M	M	M	M	M	M	M	M	NA	0.0000		M	M	M	M	M
2019/02/28 14:39:00	BASE	M	M	M	M	M	M	M	M	M	M	NA	0.0000		M	M	M	M	M
2019/02/28 14:40:00	BASE	M	M	M	M	M	M	M	M	M	M	NA	0.0000		M	M	M	M	M
2019/02/28 14:41:00	BASE	M	M	M	M	M	M	M	M	M	M	NA	0.0000		M	M	M	M	M
2019/02/28 14:42:00	BASE	M	M	M	M	M	M	M	M	M	M	NA	0.0000		M	M	M	M	M
2019/02/28 14:43:00	BASE	M	M	M	M	M	M	M	M	M	M	NA	0.0000		M	M	M	M	M
2019/02/28 14:44:00	BASE	M	M	M	M	M	M	M	M	M	M	NA	0.0000		M	M	M	M	M
2019/02/28 14:45:00	BASE	M	M	M	M	M	M	M	M	M	M	NA	0.0000		M	M	M	M	M
2019/02/28 14:46:00	BASE	M	M	M	M	M	M	M	M	M	M	NA	0.0000		M	M	M	M	M
2019/02/28 14:47:00	BASE	M	M	M	M	M	M	M	M	M	M	NA	0.0000		M	M	M	M	M
2019/02/28 14:48:00	BASE	M	M	M	M	M	M	M	M	M	M	NA	0.0000		M	M	M	M	M
2019/02/28 14:49:00	BASE	M	M	M	M	M	M	M	M	M	M	NA	0.0000		M	M	M	M	M
2019/02/28 14:50:00	BASE	M	M	M	M	M	M	M	M	M	M	NA	0.0000		M	M	M	M	M
2019/02/28 14:51:00	BASE	M	M	M	M	M	M	M	M	M	M	NA	0.0000		M	M	M	M	M
2019/02/28 14:52:00	BASE	M	M	M	M	M	M	M	M	M	M	NA	0.0000		M	M	M	M	M
2019/02/28 14:53:00	BASE	M	M	M	M	M	M	M	M	M	M	NA	0.0000		M	M	M	M	M
2019/02/28 14:54:00	BASE	M	M	M	M	M	M	M	M	M	M	NA	0.0000		M	M	M	M	M
2019/02/28 14:55:00	BASE	M	M	M	M	M	M	M	M	M	M	NA	0.0000		M	M	M	M	M
2019/02/28 14:56:00	BASE	M	M	M	M	M	M	M	M	M	M	NA	0.0000		M	M	M	M	M
2019/02/28 14:57:00	BASE	M	M	M	M	M	M	M	M	M	M	NA	0.0000		M	M	M	M	M
2019/02/28 14:58:00	BASE	M	M	M	M	M	M	M	M	M	M	NA	0.0000		M	M	M	M	M
2019/02/28 14:59:00	BASE	M	M	M	M	M	M	M	M	M	M	NA	0.0000		M	M	M	M	M
2019/02/28 15:00:00	BASE	M	M	M	M	M	M	M	M	M	M	NA	0.0000		M	M	M	M	M
2019/02/28 15:01:00	BASE	M	M	M	M	M	M	M	M	M	M	NA	0.0000		M	M	M	M	M
2019/02/28 15:02:00	BASE	M	M	M	M	M	M	M	M	M	M	NA	0.0000		M	M	M	M	M
2019/02/28 15:03:00	BASE	M	M	M	M	M	M	M	M	M	M	NA	0.0000		M	M	M	M	M
2019/02/28 15:04:00	BASE	M	M	M	M	M	M	M	M	M	M	NA	0.0000		M	M	M	M	M
2019/02/28 15:05:00	BASE	M	M	M	M	M	M	M	M	M	M	NA	0.0000		M	M	M	M	M
2019/02/28 15:06:00	BASE	M	M	M	M	M	M	M	M	M	M	NA	0.0000		M	M	M	M	M
2019/02/28 15:07:00	BASE	M	M	M	M	M	M	M	M	M	M	NA	0.0000		M	M	M	M	M
2019/02/28 15:08:00	BASE	M	M	M	M	M	M	M	M	M	M	NA	0.0000		M	M	M	M	M
2019/02/28 15:09:00	BASE	M	M	M	M	M	M	M	M	M	M	NA	0.0000		M	M	M	M	M
2019/02/28 15:10:00	BASE	M	M	M	M	M	M	M	M	M	M	NA	0.0000		M	M	M	M	M
2019/02/28 15:11:00	BASE	M	M	M	M	M	M	M	M	M	M	NA	0.0000		M	M	M	M	M
2019/02/28 15:12:00	BASE	M	M	M	M	M	M	M	M	M	M	NA	0.0000		M	M	M	M	M
2019/02/28 15:13:00	BASE	M	M	M	M	M	M	M	M	M	M	NA	0.0000		M	M	M	M	M
2019/02/28 15:14:00	BASE	M	M	M	M	M	M	M	M	M	M	NA	0.0000		M	M	M	M	M
2019/02/28 15:15:00	BASE	M	M	M	M	M	M	M	M	M	M	NA	0.0000		M	M	M	M	M
2019/02/28 15:16:00	BASE	M	M	M	M	M	M	M	M	M	M	NA	0.0000		M	M	M	M	M
2019/02/28 15:17:00	BASE	M	M	M	M	M	M	M	M	M	M	NA	0.0000		M	M	M	M	M
2019/02/28 15:18:00	BASE	M	M	M	M	M	M	M	M	M	M	NA	0.0000		M	M	M	M	M
2019/02/28 15:19:00	BASE	M	M	M	M	M	M	M	M	M	M	NA	0.0000		M	M	M	M	M
2019/02/28 15:20:00	BASE	M	M	M	M	M	M	M	M	M	M	NA	0.0000		M	M	M	M	M
2019/02/28 15:21:00	BASE	M	M	M	M	M	M	M	M	M	M	NA	0.0000		M	M	M	M	M
2019/02/28 15:22:00	BASE	M	M	M	M	M	M	M	M	M	M	NA	0.0000		M	M	M	M	M
2019/02/28 15:23:00	BASE	M	M	M	M	M	M	M	M	M	M	NA	0.0000		M	M	M	M	M
2019/02/28 15:24:00	BASE	M	M	M	M	M	M	M	M	M	M	NA	0.0000		M	M	M	M	M
2019/02/28 15:25:00	BASE	M	M	M	M	M	M	M	M	M	M	NA	0.0000		M	M	M	M	M
2019/02/28 15:26:00	BASE	M	M	M	M	M	M	M	M	M	M	NA	0.0000		M	M	M	M	M
2019/02/28 15:27:00	BASE	M	M	M	M	M	M	M	M	M	M	NA	0.0000		M	M	M	M	M
2019/02/28 15:28:00	BASE	M	M	M	M	M	M	M	M	M	M	NA	0.0000		M	M	M	M	M
2019/02/28 15:29:00	BASE	M	M	M	M	M	M	M	M	M	M	NA	0.0000		M	M	M	M	M
2019/02/28 15:30:00	BASE	M	M	M	M	M	M	M	M	M	M	NA	0.0000		M	M	M	M	M
2019/02/28 15:31:00	BASE	M	M	M	M	M	M	M	M	M	M	NA	0.0000		M	M	M	M	M
2019/02/28 15:32:00	BASE	M	M	M	M	M	M	M	M	M	M	NA	0.0000		M	M	M	M	M
2019/02/28 15:33:00	BASE	M	M	M	M	M	M	M	M	M	M	NA	0.0000		M	M	M	M	M
2019/02/28 15:34:00	BASE	M	M	M	M	M	M	M	M	M	M	NA	0.0000		M	M	M	M	M
2019/02/28 15:35:00	BASE	M	M	M	M	M	M	M	M	M	M	NA	0.0000		M	M	M	M	M
2019/02/28 15:36:00	BASE	M	M	M	M	M	M	M	M	M	M	NA	0.0000		M	M	M	M	M
2019/02/28 15:37:00	BASE	M	M	M	M	M	M	M	M	M	M	NA	0.0000		M	M	M	M	M
2019/02/28 15:38:00	BASE	M	M	M	M	M	M	M	M	M	M	NA	0.0000		M	M	M	M	M
2019/02/28 15:39:00	BASE	M	M	M	M	M	M	M	M	M	M	NA	0.0000		M	M	M	M	M
2019/02/28 15:40:00	BASE	M	M	M	M	M	M	M	M	M	M	NA	0.0000		M	M	M	M	M
2019/02/28 15:41:00	BASE	M	M	M	M	M	M	M	M	M	M	NA	0.0000		M	M	M	M	M
2019/02/28 15:42:00	BASE	M	M	M	M	M	M	M	M	M	M	NA	0.0000		M	M	M	M	M
2019/02/28 15:43:00	BASE	M	M	M	M	M	M	M	M	M	M	NA	0.0000		M	M	M	M	M
2019/02/28 15:44:00	BASE	M	M	M	M	M	M	M	M	M	M	NA	0.0000		M	M	M	M	M
2019/02/28 15:45:00	BASE	M	M	M	M	M	M	M	M	M	M	NA	0.0000		M	M	M	M	M
2019/02/28 15:46:00	BASE	M	M	M	M	M	M	M	M	M	M	NA	0.0000		M	M	M	M	M
2019/02/28 15:47:00	BASE	M	M	M	M	M	M	M	M	M	M	NA	0.0000		M	M	M	M	M
2019/02/28 15:48:00	BASE	M	M	M	M	M	M	M	M	M	M	NA	0.0000		M	M	M	M	M
2019/02/28 15:49:00	BASE	M	M	M	M	M	M	M	M	M	M	NA	0.0000		M	M	M	M	M
2019/02/28 15:50:00	BASE	M	M	M	M	M	M	M	M	M	M	NA	0.0000		M	M	M	M	M
2019/02/28 15:51:00	BASE	M	M	M	M	M	M	M	M	M	M	NA	0.0000		M	M	M	M	M
2019/02/28 15:52:00	BASE	M	M	M	M	M	M	M	M	M	M	NA	0.0000		M	M	M	M	M
2019/02/28 15:53:00	BASE	M	M	M	M	M	M	M	M	M	M	NA	0.0000		M	M	M	M	M
2019/02/28 15:54:00	BASE	M	M	M	M	M	M	M	M	M	M	NA	0.0000		M	M	M	M	M
2019/02/28 15:55:00	BASE	M	M	M	M	M	M	M	M	M	M	NA	0.0000		M	M	M	M	M
2019/02/28 15:56:00	BASE	M	M	M	M	M	M	M	M	M	M	NA	0.0000		M	M	M	M	M
2019/02/28 15:57:00	BASE	M	M	M	M	M	M	M	M	M	M	NA	0.0000		M	M	M	M	M
2019/02/28 15:58:00	BASE	M	M	M	M	M	M	M	M	M	M	NA	0.0000		M	M	M	M	M
2019/02/28 15:59:00	BASE	M	M	M	M	M	M	M	M	M	M	NA	0.0000		M	M	M	M	M
2019/02/28 16:00:00	BASE	M	M	M	M	M	M	M	M	M	M	NA	0.0000		M	M	M	M	M
2019/02/28 16:01:00	BASE	M	M	M	M	M	M	M	M	M	M	NA	0.0000		M	M	M	M	M
2019/02/28 16:02:00	BASE	M	M	M	M	M	M	M	M	M	M	NA	0.0000		M	M	M	M	M
2019/02/28 16:03:00	BASE	M	M	M	M	M	M	M	M	M	M	NA	0.0000		M	M	M	M	M
2019/02/28 16:04:00	BASE	M	M	M	M	M	M	M	M	M	M	NA	0.0000		M	M	M	M	M
2019/02/28 16:05:00	BASE	M	M	M	M	M	M	M	M	M	M	NA	0.0000		M	M	M	M	M
2019/02/28 16:06:00	BASE	M	M	M	M	M	M	M	M	M	M	NA	0.0000		M	M	M	M	M
2019/02/28 16:07:00	BASE	M	M	M	M	M	M	M	M	M	M	NA	0.0000		M	M	M	M	M
2019/02/28 16:08:00	BASE	M	M	M	M	M	M	M	M	M	M	NA	0.0000		M	M	M	M	M
2019/02/28 16:09:00	BASE	M	M	M	M	M	M	M	M	M	M	NA	0.0000		M	M	M	M	M
2019/02/28 16:10:00	BASE	M	M	M	M	M	M	M	M	M	M	NA	0.0000		M	M	M	M	M
2019/02/28 16:11:00	BASE	M	M	M	M	M	M	M	M	M	M	NA	0.0000		M	M	M	M	M
2019/02/28 16:12:00	BASE	M	M	M	M	M	M	M	M	M	M	NA	0.0000		M	M	M	M	M
2019/02/28 16:13:00	BASE	M	M	M	M	M	M	M	M	M	M	NA	0.0000		M	M	M	M	M
2019/02/28 16:14:00	BASE	M	M	M	M	M	M	M	M	M	M	NA	0.0000		M	M	M	M	M
2019/02/28 16:15:00	BASE	M	M	M	M	M	M	M	M	M	M	NA	0.0000		M	M	M	M	M
2019/02/28 16:16:00	BASE	M	M	M	M	M	M	M	M	M	M	NA	0.0000		M	M	M	M	M
2019/02/28 16:17:00	BASE	M	M	M	M	M	M	M	M	M	M	NA	0.0000		M	M	M	M	M
2019/02/28 16:18:00	BASE	M	M	M	M	M	M	M	M	M	M	NA	0.0000		M	M	M	M	M
2019/02/28 16:19:00	BASE	M	M	M	M	M	M	M	M	M	M	NA	0.0000		M	M	M	M	M
2019/02/28 16:20:01	BASE	M	M	M	M	M	M	M	M	M	M	NA	0.0000		M	M	M	M	M
2019/02/28 16:21:00	BASE	M	M	M	M	M	M	M	M	M	M	NA	0.0000		M	M	M	M	M
2019/02/28 16:22:00	BASE	M	M	M	M	M	M	M	M	M	M	NA	0.0000		M	M	M	M	M
2019/02/28 16:23:00	BASE	M	M	M	M	M	M	M	M	M	M	NA	0.0000		M	M	M	M	M
2019/02/28 16:24:00	BASE	M	M	M	M	M	M	M	M	M	M	NA	0.0000		M	M	M	M	M
2019/02/28 16:25:00	BASE	M	M	M	M	M	M	M	M	M	M	NA	0.0000		M	M	M	M	M
2019/02/28 16:26:00	BASE	M	M	M	M	M	M	M	M	M	M	NA	0.0000		M	M	M	M	M
2019/02/28 16:27:00	BASE	M	M	M	M	M	M	M	M	M	M	NA	0.0000		M	M	M	M	M
2019/02/28 16:28:00	BASE	M	M	M	M	M	M	M	M	M	M	NA	0.0000		M	M	M	M	M
2019/02/28 16:29:00	BASE	M	M	M	M	M	M	M	M	M	M	NA	0.0000		M	M	M	M	M
2019/02/28 16:30:00	BASE	M	M	M	M	M	M	M	M	M	M	NA	0.0000		M	M	M	M	M
2019/02/28 16:31:00	BASE	M	M	M	M	M	M	M	M	M	M	NA	0.0000		M	M	M	M	M
2019/02/28 16:32:00	BASE	M	M	M	M	M	M	M	M	M	M	NA	0.0000		M	M	M	M	M
2019/02/28 16:33:00	BASE	M	M	M	M	M	M	M	M	M	M	NA	0.0000		M	M	M	M	M
2019/02/28 16:34:00	BASE	M	M	M	M	M	M	M	M	M	M	NA	0.0000		M	M	M	M	M
2019/02/28 16:35:00	BASE	M	M	M	M	M	M	M	M	M	M	NA	0.0000		M	M	M	M	M
2019/02/28 16:36:00	BASE	M	M	M	M	M	M	M	M	M	M	NA	0.0000		M	M	M	M	M
2019/02/28 16:37:00	BASE	M	M	M	M	M	M	M	M	M	M	NA	0.0000		M	M	M	M	M
2019/02/28 16:38:00	BASE	M	M	M	M	M	M	M	M	M	M	NA	0.0000		M	M	M	M	M
2019/02/28 16:39:00	BASE	M	M	M	M	M	M	M	M	M	M	NA	0.0000		M	M	M	M	M
2019/02/28 16:40:00	BASE	M	M	M	M	M	M	M	M	M	M	NA	0.0000		M	M	M	M	M
2019/02/28 16:41:00	BASE	M	M	M	M	M	M	M	M	M	M	NA	0.0000		M	M	M	M	M
2019/02/28 16:42:00	BASE	M	M	M	M	M	M	M	M	M	M	NA	0.0000		M	M	M	M	M
2019/02/28 16:43:00	BASE	M	M	M	M	M	M	M	M	M	M	NA	0.0000		M	M	M	M	M
2019/02/28 16:44:00	BASE	M	M	M	M	M	M	M	M	M	M	NA	0.0000		M	M	M	M	M
2019/02/28 16:45:00	BASE	M	M	M	M	M	M	M	M	M	M	NA	0.0000		M	M	M	M	M
2019/02/28 16:46:00	BASE	M	M	M	M	M	M	M	M	M	M	NA	0.0000		M	M	M	M	M
2019/02/28 16:47:00	BASE	M	M	M	M	M	M	M	M	M	M	NA	0.0000		M	M	M	M	M
2019/02/28 16:48:00	BASE	M	M	M	M	M	M	M	M	M	M	NA	0.0000		M	M	M	M	M
2019/02/28 16:49:00	BASE	M	M	M	M	M	M	M	M	M	M	NA	0.0000		M	M	M	M	M
2019/02/28 16:50:00	BASE	M	M	M	M	M	M	M	M	M	M	NA	0.0000		M	M	M	M	M
2019/02/28 16:51:00	BASE	M	M	M	M	M	M	M	M	M	M	NA	0.0000		M	M	M	M	M
2019/02/28 16:52:00	BASE	M	M	M	M	M	M	M	M	M	M	NA	0.0000		M	M	M	M	M
2019/02/28 16:53:00	BASE	M	M	M	M	M	M	M	M	M	M	NA	0.0000		M	M	M	M	M
2019/02/28 16:54:00	BASE	M	M	M	M	M	M	M	M	M	M	NA	0.0000		M	M	M	M	M
2019/02/28 16:55:00	BASE	M	M	M	M	M	M	M	M	M	M	NA	0.0000		M	M	M	M	M
2019/02/28 16:56:00	BASE	M	M	M	M	M	M	M	M	M	M	NA	0.0000		M	M	M	M	M
2019/02/28 16:57:00	BASE	M	M	M	M	M	M	M	M	M	M	NA	0.0000		M	M	M	M	M
2019/02/28 16:58:00	BASE	M	M	M	M	M	M	M	M	M	M	NA	0.0000		M	M	M	M	M
2019/02/28 16:59:00	BASE	M	M	M	M	M	M	M	M	M	M	NA	0.0000		M	M	M	M	M
2019/02/28 17:00:00	BASE	M	M	M	M	M	M	M	M	M	M	NA	0.0000		M	M	M	M	M
2019/02/28 17:01:00	BASE	M	M	M	M	M	M	M	M	M	M	NA	0.0000		M	M	M	M	M
2019/02/28 17:02:00	BASE	M	M	M	M	M	M	M	M	M	M	NA	0.0000		M	M	M	M	M
2019/02/28 17:03:00	BASE	M	M	M	M	M	M	M	M	M	M	NA	0.0000		M	M	M	M	M
2019/02/28 17:04:00	BASE	M	M	M	M	M	M	M	M	M	M	NA	0.0000		M	M	M	M	M
2019/02/28 17:05:00	BASE	M	M	M	M	M	M	M	M	M	M	NA	0.0000		M	M	M	M	M
2019/02/28 17:06:00	BASE	M	M	M	M	M	M	M	M	M	M	NA	0.0000		M	M	M	M	M
2019/02/28 17:07:00	BASE	M	M	M	M	M	M	M	M	M	M	NA	0.0000		M	M	M	M	M
2019/02/28 17:08:00	BASE	M	M	M	M	M	M	M	M	M	M	NA	0.0000		M	M	M	M	M
2019/02/28 17:09:00	BASE	M	M	M	M	M	M	M	M	M	M	NA	0.0000		M	M	M	M	M
2019/02/28 17:10:00	BASE	M	M	M	M	M	M	M	M	M	M	NA	0.0000		M	M	M	M	M
2019/02/28 17:11:00	BASE	M	M	M	M	M	M	M	M	M	M	NA	0.0000		M	M	M	M	M
2019/02/28 17:12:00	BASE	M	M	M	M	M	M	M	M	M	M	NA	0.0000		M	M	M	M	M
2019/02/28 17:13:00	BASE	M	M	M	M	M	M	M	M	M	M	NA	0.0000		M	M	M	M	M
2019/02/28 17:14:00	BASE	M	M	M	M	M	M	M	M	M	M	NA	0.0000		M	M	M	M	M
2019/02/28 17:15:00	BASE	M	M	M	M	M	M	M	M	M	M	NA	0.0000		M	M	M	M	M
2019/02/28 17:16:00	BASE	M	M	M	M	M	M	M	M	M	M	NA	0.0000		M	M	M	M	M
2019/02/28 17:17:00	BASE	M	M	M	M	M	M	M	M	M	M	NA	0.0000		M	M	M	M	M
2019/02/28 17:18:00	BASE	M	M	M	M	M	M	M	M	M	M	NA	0.0000		M	M	M	M	M
2019/02/28 17:19:00	BASE	M	M	M	M	M	M	M	M	M	M	NA	0.0000		M	M	M	M	M
2019/02/28 17:20:00	BASE	M	M	M	M	M	M	M	M	M	M	NA	0.0000		M	M	M	M	M
2019/02/28 17:21:00	BASE	M	M	M	M	M	M	M	M	M	M	NA	0.0000		M	M	M	M	M
2019/02/28 17:22:00	BASE	M	M	M	M	M	M	M	M	M	M	NA	0.0000		M	M	M	M	M
2019/02/28 17:23:00	BASE	M	M	M	M	M	M	M	M	M	M	NA	0.0000		M	M	M	M	M
2019/02/28 17:24:00	BASE	M	M	M	M	M	M	M	M	M	M	NA	0.0000		M	M	M	M	M
2019/02/28 17:25:00	BASE	M	M	M	M	M	M	M	M	M	M	NA	0.0000		M	M	M	M	M
2019/02/28 17:26:00	BASE	M	M	M	M	M	M	M	M	M	M	NA	0.0000		M	M	M	M	M
2019/02/28 17:27:00	BASE	M	M	M	M	M	M	M	M	M	M	NA	0.0000		M	M	M	M	M
2019/02/28 17:28:00	BASE	M	M	M	M	M	M	M	M	M	M	NA	0.0000		M	M	M	M	M
2019/02/28 17:29:00	BASE	M	M	M	M	M	M	M	M	M	M	NA	0.0000		M	M	M	M	M
2019/02/28 17:30:00	BASE	M	M	M	M	M	M	M	M	M	M	NA	0.0000		M	M	M	M	M
2019/02/28 17:31:00	BASE	M	M	M	M	M	M	M	M	M	M	NA	0.0000		M	M	M	M	M
2019/02/28 17:32:00	BASE	M	M	M	M	M	M	M	M	M	M	NA	0.0000		M	M	M	M	M
2019/02/28 17:33:00	BASE	M	M	M	M	M	M	M	M	M	M	NA	0.0000		M	M	M	M	M
2019/02/28 17:34:00	BASE	M	M	M	M	M	M	M	M	M	M	NA	0.0000		M	M	M	M	M
2019/02/28 17:35:00	BASE	M	M	M	M	M	M	M	M	M	M	NA	0.0000		M	M	M	M	M
2019/02/28 17:36:00	BASE	M	M	M	M	M	M	M	M	M	M	NA	0.0000		M	M	M	M	M
2019/02/28 17:37:00	BASE	M	M	M	M	M	M	M	M	M	M	NA	0.0000		M	M	M	M	M
2019/02/28 17:38:00	BASE	M	M	M	M	M	M	M	M	M	M	NA	0.0000		M	M	M	M	M
2019/02/28 17:39:00	BASE	M	M	M	M	M	M	M	M	M	M	NA	0.0000		M	M	M	M	M
2019/02/28 17:40:00	BASE	M	M	M	M	M	M	M	M	M	M	NA	0.0000		M	M	M	M	M
2019/02/28 17:41:00	BASE	M	M	M	M	M	M	M	M	M	M	NA	0.0000		M	M	M	M	M
2019/02/28 17:42:00	BASE	M	M	M	M	M	M	M	M	M	M	NA	0.0000		M	M	M	M	M
2019/02/28 17:43:00	BASE	M	M	M	M	M	M	M	M	M	M	NA	0.0000		M	M	M	M	M
2019/02/28 17:44:00	BASE	M	M	M	M	M	M	M	M	M	M	NA	0.0000		M	M	M	M	M
2019/02/28 17:45:00	BASE	M	M	M	M	M	M	M	M	M	M	NA	0.0000		M	M	M	M	M
2019/02/28 17:46:00	BASE	M	M	M	M	M	M	M	M	M	M	NA	0.0000		M	M	M	M	M
2019/02/28 17:47:00	BASE	M	M	M	M	M	M	M	M	M	M	NA	0.0000		M	M	M	M	M
2019/02/28 17:48:00	BASE	M	M	M	M	M	M	M	M	M	M	NA	0.0000		M	M	M	M	M
2019/02/28 17:49:00	BASE	M	M	M	M	M	M	M	M	M	M	NA	0.0000		M	M	M	M	M
2019/02/28 17:50:00	BASE	M	M	M	M	M	M	M	M	M	M	NA	0.0000		M	M	M	M	M
2019/02/28 17:51:00	BASE	M	M	M	M	M	M	M	M	M	M	NA	0.0000		M	M	M	M	M
2019/02/28 17:52:00	BASE	M	M	M	M	M	M	M	M	M	M	NA	0.0000		M	M	M	M	M
2019/02/28 17:53:00	BASE	M	M	M	M	M	M	M	M	M	M	NA	0.0000		M	M	M	M	M
2019/02/28 17:54:00	BASE	M	M	M	M	M	M	M	M	M	M	NA	0.0000		M	M	M	M	M
2019/02/28 17:55:00	BASE	M	M	M	M	M	M	M	583	0	1005.8	NA	0.0000		6000	0	0	0	0
2019/02/28 17:56:00	BASE	3.48	240	M	M	M	M	M	581	0	1005.8	NA	0.0000		6000	0	0	0	0
2019/02/28 17:57:00	BASE	3.44	238	M	M	M	M	M	581	0	1005.8	NA	0.0000		6000	0	0	0	0
2019/02/28 17:58:00	BASE	3.16	229	M	M	0.6	80	-2.5	576	0	1005.8	NA	0.0000		6000	0	0	0	0
2019/02/28 17:59:00	BASE	2.78	228	M	M	0.5	80	-2.5	574	0	1005.8	NA	0.0000		6000	0	0	0	0
2019/02/28 18:00:00	BASE	2.82	245	M	M	0.5	80	-2.6	563	0	1005.8	NA	0.0000		7000	0	0	0	0
2019/02/28 18:01:00	BASE	2.63	249	M	M	0.4	80	-2.6	574	0	1005.8	NA	0.0000		7000	0	0	0	0
2019/02/28 18:02:00	BASE	2.39	242	4.89	257	0.4	80	-2.6	580	0	1005.8	NA	0.0000	HZ	6000	0	0	0	0
2019/02/28 18:03:00	BASE	2.92	238	4.89	257	0.4	80	-2.6	587	0	1005.8	NA	0.0000	HZ	6000	0	0	0	0
2019/02/28 18:04:00	BASE	3.24	231	4.89	257	0.4	81	-2.6	587	0	1005.8	NA	0.0000	HZ	6000	0	0	0	0
2019/02/28 18:05:00	BASE	3.11	222	4.17	227	0.3	81	-2.6	599	0	1005.8	NA	0.0000	HZ	6000	0	0	0	0
2019/02/28 18:06:00	BASE	3.46	226	4.63	226	0.3	81	-2.6	605	0	1005.8	NA	0.0000	HZ	6000	1840	0	0	0
2019/02/28 18:07:00	BASE	3.35	227	4.63	226	0.3	81	-2.6	631	0	1005.8	NA	0.0000	HZ	6000	1870	0	0	0
2019/02/28 18:08:00	BASE	3.11	227	4.63	226	0.3	81	-2.5	629	0	1005.8	NA	0.0000	HZ	6000	1840	0	0	0
2019/02/28 18:09:00	BASE	3.51	238	4.63	226	0.4	81	-2.4	641	0	1005.8	NA	0.0000	HZ	6000	1840	0	0	0
2019/02/28 18:10:00	BASE	3.78	239	4.63	226	0.4	82	-2.4	628	0	1005.9	NA	0.0000	HZ	6000	1840	0	0	0
2019/02/28 18:11:00	BASE	3.98	231	4.68	220	0.5	82	-2.3	603	0	1005.9	NA	0.0000	HZ	6000	0	0	0	0
2019/02/28 18:12:00	BASE	4.02	229	4.68	220	0.5	82	-2.2	617	0	1005.9	NA	0.0000	HZ	6000	0	0	0	0
2019/02/28 18:13:00	BASE	3.93	234	4.68	220	0.5	82	-2.2	615	0	1005.9	NA	0.0000	HZ	6000	0	0	0	0
2019/02/28 18:14:00	BASE	3.82	234	4.68	220	0.5	82	-2.3	605	0	1005.9	NA	0.0000	HZ	6000	0	0	0	0
2019/02/28 18:15:00	BASE	3.79	231	4.68	220	0.5	82	-2.3	590	0	1005.9	NA	0.0000	HZ	6000	0	0	0	0
2019/02/28 18:16:00	BASE	3.52	232	4.68	220	0.5	82	-2.3	576	0	1005.9	NA	0.0000	HZ	6000	0	0	0	0
2019/02/28 18:17:00	BASE	2.69	226	4.68	220	0.5	82	-2.2	565	0	1005.8	NA	0.0000	HZ	6000	0	0	0	0
2019/02/28 18:18:00	BASE	2.09	223	4.68	220	0.5	82	-2.2	548	0	1005.9	NA	0.0000	HZ	6000	0	0	0	0
2019/02/28 18:19:00	BASE	2.62	232	4.68	220	0.5	82	-2.2	538	0	1005.8	NA	0.0000	HZ	6000	0	0	0	0
2019/02/28 18:20:00	BASE	3.01	239	4.68	220	0.5	82	-2.3	511	0	1005.9	NA	0.0000	HZ	6000	0	0	0	0
2019/02/28 18:21:00	BASE	2.93	238	4.53	229	0.4	82	-2.3	550	0	1005.9	NA	0.0000	HZ	6000	0	0	0	0
2019/02/28 18:22:00	BASE	3.15	239	4.32	237	0.4	82	-2.3	543	0	1005.8	NA	0.0000	HZ	6000	0	0	0	0
2019/02/28 18:23:00	BASE	2.97	236	4.22	225	0.3	82	-2.4	542	0	1005.8	NA	0.0000	HZ	6000	0	0	0	0
2019/02/28 18:24:00	BASE	2.75	236	4.12	229	0.3	82	-2.4	543	0	1005.8	NA	0.0000	HZ	6000	0	0	0	0
2019/02/28 18:25:00	BASE	2.19	240	4.06	227	0.3	82	-2.4	538	0	1005.8	NA	0.0000	HZ	7000	0	0	0	0
2019/02/28 18:26:00	BASE	1.50	238	3.76	224	0.3	83	-2.3	533	0	1005.8	NA	0.0000	HZ	6000	0	0	0	0
2019/02/28 18:27:00	BASE	1.62	231	3.76	224	0.3	83	-2.3	522	0	1005.8	NA	0.0000	HZ	6000	0	0	0	0
2019/02/28 18:28:00	BASE	2.03	213	3.76	224	0.4	83	-2.2	506	0	1005.8	NA	0.0000	HZ	6000	0	0	0	0
2019/02/28 18:29:00	BASE	2.08	204	3.76	224	0.4	83	-2.1	521	0	1005.8	NA	0.0000	HZ	6000	0	0	0	0
2019/02/28 18:30:00	BASE	1.90	216	3.76	224	0.4	83	-2.1	496	0	1005.8	NA	0.0000	HZ	6000	0	0	0	0
2019/02/28 18:31:00	BASE	1.18	228	3.65	228	0.4	83	-2.1	494	0	1005.8	NA	0.0000	HZ	6000	0	0	0	0
2019/02/28 18:32:00	BASE	0.58	221	3.65	228	0.4	83	-2.2	472	0	1005.8	NA	0.0000	HZ	6000	0	0	0	0
2019/02/28 18:33:00	BASE	0.88	215	3.14	234	0.3	83	-2.2	444	0	1005.8	NA	0.0000	HZ	6000	0	0	0	0
2019/02/28 18:34:00	BASE	1.48	211	2.68	197	0.3	83	-2.2	271	0	1005.8	NA	0.0000	HZ	6000	0	0	0	0
2019/02/28 18:35:00	BASE	2.04	200	2.73	209	0.3	83	-2.2	283	0	1005.9	NA	0.0000	HZ	7000	0	0	0	0
2019/02/28 18:36:00	BASE	1.52	196	2.73	209	0.4	83	-2.2	247	0	1005.9	NA	0.0000	HZ	7000	2260	0	0	0
2019/02/28 18:37:00	BASE	1.23	206	2.78	212	0.4	83	-2.1	215	0	1005.9	NA	0.0000	HZ	7000	2200	0	0	0
2019/02/28 18:38:00	BASE	1.48	218	2.78	212	0.4	83	-2.1	195	0	1005.9	NA	0.0000	HZ	4900	2130	0	0	0
2019/02/28 18:39:00	BASE	1.22	216	2.78	212	0.4	83	-2.2	177	0	1005.9	NA	0.0000	HZ	4200	2100	0	0	0
2019/02/28 18:40:00	BASE	1.54	214	2.78	212	0.3	83	-2.1	169	0	1005.9	NA	0.0000	HZ	4300	2030	0	0	0
2019/02/28 18:41:00	BASE	2.25	216	2.98	217	0.4	83	-2.1	169	0	1005.9	NA	0.0000	HZ	4500	1940	21560	22700	0
2019/02/28 18:42:00	BASE	2.23	215	2.98	217	0.3	83	-2.2	180	0	1005.9	NA	0.0000	HZ	4600	1940	0	0	0
2019/02/28 18:43:00	BASE	1.79	209	2.98	217	0.3	83	-2.2	207	0	1005.9	NA	0.0000	HZ	4600	1900	0	0	0
2019/02/28 18:44:00	BASE	1.72	211	2.98	217	0.2	84	-2.2	242	0	1005.9	NA	0.0000	HZ	4400	1870	0	0	0
2019/02/28 18:45:01	BASE	1.67	215	2.98	217	0.2	84	-2.2	271	0	1005.8	NA	0.0000	HZ	4400	1870	0	0	0
2019/02/28 18:46:00	BASE	1.71	213	2.98	217	0.2	84	-2.2	265	0	1005.9	NA	0.0000	HZ	4200	1840	0	0	0
2019/02/28 18:47:00	BASE	1.84	213	2.98	217	0.3	84	-2.1	254	0	1005.9	NA	0.0000	HZ	4300	1840	0	0	0
2019/02/28 18:48:00	BASE	1.91	210	2.98	217	0.3	84	-2.1	257	0	1005.9	NA	0.0000	HZ	4300	1870	0	0	0
2019/02/28 18:49:00	BASE	2.19	207	2.98	217	0.3	84	-2.1	260	0	1005.9	NA	0.0000	HZ	4200	1800	0	0	0
2019/02/28 18:50:00	BASE	2.47	216	3.55	219	0.3	84	-2.1	287	0	1005.8	NA	0.0000	HZ	4200	1800	0	0	0
2019/02/28 18:51:00	BASE	2.10	221	4.32	221	0.2	84	-2.2	291	0	1005.9	NA	0.0000	HZ	4300	1740	0	0	0
2019/02/28 18:52:00	BASE	1.78	223	4.32	221	0.2	84	-2.2	347	0	1005.8	NA	0.0000	HZ	4300	1770	0	0	0
2019/02/28 18:53:00	BASE	1.59	220	4.32	221	0.2	84	-2.2	336	0	1004.5	NA	0.0000	HZ	4300	2170	0	0	0
2019/02/28 18:54:00	BASE	1.54	216	4.32	221	0.2	84	-2.1	373	0	1005.9	NA	0.0000	HZ	5000	1770	0	0	0
2019/02/28 18:55:00	BASE	1.61	215	4.32	221	0.3	84	-2.1	530	0	1005.9	NA	0.0000	HZ	6000	1770	0	0	0
2019/02/28 18:56:00	BASE	1.53	217	4.32	221	0.2	84	-2.1	660	0	1005.9	NA	0.0000	HZ	6000	1770	0	0	0
2019/02/28 18:57:00	BASE	1.72	214	4.32	221	0.2	84	-2.1	736	0	1005.9	NA	0.0000	HZ	6000	1740	0	0	0
2019/02/28 18:58:00	BASE	1.75	203	4.32	221	0.3	84	-2.1	792	0	1005.9	NA	0.0000	HZ	7000	2430	0	0	0
2019/02/28 18:59:00	BASE	1.91	207	4.32	221	0.3	84	-2.0	648	0	1005.9	NA	0.0000	HZ	7000	1740	0	0	0
2019/02/28 19:00:00	BASE	2.27	214	4.32	221	0.3	84	-2.0	361	0	1005.9	NA	0.0000	HZ	6000	1710	0	0	0
2019/02/28 19:01:00	BASE	2.56	211	2.98	213	0.4	84	-2.0	385	0	1005.9	NA	0.0000	HZ	7000	1740	0	0	0
2019/02/28 19:02:00	BASE	2.31	208	2.98	213	0.3	84	-2.0	589	0	1005.9	NA	0.0000	HZ	6000	1870	0	0	0
2019/02/28 19:03:00	BASE	1.69	207	2.98	213	0.3	84	-2.1	692	0	1005.9	NA	0.0000	HZ	7000	1710	0	0	0
2019/02/28 19:04:00	BASE	1.54	211	2.98	213	0.3	84	-2.0	304	0	1005.9	NA	0.0000	HZ	7000	1710	0	0	0
2019/02/28 19:05:00	BASE	1.83	219	2.98	213	0.3	85	-2.0	231	0	1005.8	NA	0.0000	HZ	5000	2100	0	0	0
2019/02/28 19:06:00	BASE	1.88	222	2.98	213	0.3	85	-1.9	218	0	1005.8	NA	0.0000	HZ	4600	2200	0	0	0
2019/02/28 19:07:00	BASE	2.01	215	2.98	213	0.3	85	-1.9	247	0	1005.9	NA	0.0000	HZ	5000	2130	0	0	0
2019/02/28 19:08:00	BASE	2.02	207	2.98	213	0.4	85	-1.9	528	0	1005.8	NA	0.0000	HZ	6000	2030	2560	0	0
2019/02/28 19:09:00	BASE	1.73	204	2.98	213	0.4	85	-1.9	679	0	1005.8	NA	0.0000	HZ	7000	1840	0	0	0
2019/02/28 19:10:00	BASE	1.50	213	2.98	213	0.4	85	-1.9	683	0	1005.8	NA	0.0000	HZ	8000	1670	0	0	0
2019/02/28 19:11:00	BASE	1.45	221	2.52	205	0.3	85	-1.9	689	0	1005.8	NA	0.0000	HZ	9000	1710	0	0	0
2019/02/28 19:12:00	BASE	1.66	216	2.52	205	0.3	85	-1.9	319	0	1005.8	NA	0.0000	HZ	9000	2130	0	0	0
2019/02/28 19:13:00	BASE	1.81	207	2.52	205	0.4	85	-1.9	586	0	1005.8	NA	0.0000	HZ	9999	1740	2360	21420	0
2019/02/28 19:14:00	BASE	1.88	203	2.73	211	0.3	85	-1.9	366	0	1005.8	NA	0.0000	HZ	9999	2000	0	0	0
2019/02/28 19:15:00	BASE	1.99	205	2.73	211	0.3	85	-1.9	330	0	1005.8	NA	0.0000	HZ	9000	1640	0	0	0
2019/02/28 19:16:00	BASE	2.38	215	3.45	233	0.4	85	-1.9	215	0	1005.8	NA	0.0000	HZ	7000	2000	0	0	0
2019/02/28 19:17:00	BASE	2.66	218	3.45	233	0.4	85	-1.9	203	0	1005.8	NA	0.0000	HZ	8000	2000	0	0	0
2019/02/28 19:18:00	BASE	2.45	213	3.45	233	0.4	85	-1.9	244	0	1005.8	NA	0.0000	HZ	9999	1870	0	0	0
2019/02/28 19:19:00	BASE	1.98	211	3.45	233	0.4	85	-1.9	377	0	1005.8	NA	0.0000	HZ	9000	0	0	0	0
2019/02/28 19:20:00	BASE	1.92	207	3.45	233	0.4	85	-1.9	432	0	1005.8	NA	0.0000	HZ	9000	2200	0	0	0
2019/02/28 19:21:00	BASE	2.09	211	3.45	233	0.4	85	-1.9	461	0	1005.8	NA	0.0000	HZ	9000	0	0	0	0
2019/02/28 19:22:00	BASE	1.96	211	3.45	233	0.4	85	-1.8	268	0	1005.8	NA	0.0000	HZ	9000	0	0	0	0
2019/02/28 19:23:00	BASE	1.70	195	3.45	233	0.4	85	-1.9	458	0	1005.8	NA	0.0000	HZ	8000	0	0	0	0
2019/02/28 19:24:00	BASE	1.49	189	3.45	233	0.4	85	-1.8	577	0	1005.8	NA	0.0000	HZ	6000	0	0	0	0
2019/02/28 19:25:00	BASE	1.90	201	3.45	233	0.4	85	-1.8	596	0	1005.9	NA	0.0000	HZ	8000	0	0	0	0
2019/02/28 19:26:00	BASE	2.46	208	3.24	208	0.4	85	-1.8	601	0	1005.9	NA	0.0000	HZ	9999	0	0	0	0
2019/02/28 19:27:00	BASE	2.55	206	3.24	208	0.4	85	-1.8	575	0	1005.9	NA	0.0000	HZ	9999	1740	0	0	0
2019/02/28 19:28:00	BASE	2.46	204	3.24	208	0.4	85	-1.8	536	0	1005.8	NA	0.0000	HZ	9999	0	0	0	0
2019/02/28 19:29:00	BASE	2.72	211	3.24	217	0.4	85	-1.9	572	0	1005.8	NA	0.0000	HZ	9999	0	0	0	0
2019/02/28 19:30:00	BASE	2.81	221	3.24	217	0.3	85	-1.9	562	0	1005.8	NA	0.0000	HZ	9000	0	0	0	0
2019/02/28 19:31:00	BASE	2.59	216	3.24	217	0.3	85	-1.9	564	0	1005.9	NA	0.0000	HZ	9999	0	0	0	0
2019/02/28 19:32:00	BASE	2.81	213	4.22	214	0.3	85	-1.9	272	0	1005.9	NA	0.0000	HZ	9999	1800	0	0	0
2019/02/28 19:33:00	BASE	3.45	215	4.22	214	0.4	85	-1.9	220	0	1005.9	NA	0.0000	HZ	9000	1770	0	0	0
2019/02/28 19:34:00	BASE	3.88	215	4.37	215	0.3	85	-1.9	269	0	1005.9	NA	0.0000	HZ	9000	1800	0	0	0
2019/02/28 19:35:00	BASE	3.81	215	4.37	215	0.3	85	-1.9	299	0	1005.9	NA	0.0000	HZ	9999	1900	0	0	0
2019/02/28 19:36:00	BASE	3.63	215	4.37	215	0.3	85	-1.8	262	0	1005.9	NA	0.0000	BR	9000	2070	0	0	0
2019/02/28 19:37:00	BASE	3.45	212	4.37	215	0.3	85	-1.8	400	0	1005.9	NA	0.0000	BR	9000	2000	0	0	0
2019/02/28 19:38:01	BASE	3.32	213	4.37	215	0.3	85	-1.9	318	0	1005.9	NA	0.0000	BR	9000	1840	0	0	0
2019/02/28 19:39:01	BASE	3.65	216	4.37	215	0.3	85	-1.8	281	0	1005.9	NA	0.0000	BR	9000	1840	0	0	0
2019/02/28 19:40:01	BASE	3.87	215	4.37	216	0.3	85	-1.9	218	0	1005.9	NA	0.0000	BR	9999	1840	0	0	0
2019/02/28 19:41:01	BASE	3.84	210	4.37	216	0.3	85	-1.9	403	0	1005.9	NA	0.0000	BR	9999	1940	0	0	0
2019/02/28 19:42:01	BASE	3.99	206	4.37	212	0.2	85	-2.0	203	0	1005.9	NA	0.0000	HZ	7000	0	0	0	0
2019/02/28 19:43:01	BASE	3.91	203	4.37	212	0.2	85	-2.0	171	0	1005.9	NA	0.0000	BR	8000	0	0	0	0
2019/02/28 19:44:01	BASE	3.60	203	4.37	212	0.2	85	-2.0	202	0	1005.9	NA	0.0000	BR	9000	0	0	0	0
2019/02/28 19:45:01	BASE	3.69	212	4.37	212	0.2	85	-2.0	207	0	1005.9	NA	0.0000	BR	9000	2170	0	0	0
2019/02/28 19:46:01	BASE	3.47	216	4.37	212	0.2	85	-2.0	266	0	1005.9	NA	0.0000	BR	9000	0	0	0	0
2019/02/28 19:47:01	BASE	3.26	216	4.37	216	0.2	85	-2.0	401	0	1005.8	NA	0.0000	BR	9000	2070	0	0	0
2019/02/28 19:48:01	BASE	3.80	213	4.58	208	0.2	85	-2.0	406	0	1005.8	NA	0.0000	HZ	9000	0	0	0	0
2019/02/28 19:49:01	BASE	3.82	207	4.58	208	0.2	85	-2.0	436	0	1005.8	NA	0.0000	HZ	9000	0	0	0	0
2019/02/28 19:50:01	BASE	3.65	204	4.58	208	0.2	85	-2.0	417	0	1005.8	NA	0.0000	HZ	9000	0	0	0	0
2019/02/28 19:51:01	BASE	3.59	204	4.58	208	0.2	85	-2.0	400	0	1005.8	NA	0.0000	HZ	9999	0	0	0	0
2019/02/28 19:52:01	BASE	3.38	205	4.58	208	0.3	85	-2.0	188	0	1005.9	NA	0.0000	HZ	9000	0	0	0	0
2019/02/28 19:53:01	BASE	3.85	213	5.56	217	0.3	85	-2.0	159	0	1005.9	NA	0.0000	HZ	9000	0	0	0	0
2019/02/28 19:54:01	BASE	4.65	218	5.56	217	0.2	85	-2.0	136	0	1005.9	NA	0.0000	HZ	9999	1970	0	0	0
2019/02/28 19:55:01	BASE	4.68	217	5.56	217	0.2	85	-2.1	129	0	1005.9	NA	0.0000	HZ	9000	0	0	0	0
2019/02/28 19:56:01	BASE	4.53	220	5.56	217	0.1	85	-2.1	145	0	1005.9	NA	0.0000	HZ	9000	0	0	0	0
2019/02/28 19:57:01	BASE	4.19	223	5.56	217	0.1	85	-2.2	296	0	1005.9	NA	0.0000	BR	9000	1770	0	0	0
2019/02/28 19:58:01	BASE	3.86	223	5.56	217	0.0	85	-2.2	325	0	1005.9	NA	0.0000	BR	9000	1740	0	0	0
2019/02/28 19:59:01	BASE	3.95	220	5.56	217	0.0	85	-2.2	342	0	1005.9	NA	0.0000	BR	9000	0	0	0	0
2019/02/28 20:00:01	BASE	3.93	217	5.56	217	0.1	85	-2.1	182	0	1005.9	NA	0.0000	BR	9000	0	0	0	0
2019/02/28 20:01:01	BASE	3.85	213	5.56	217	0.1	85	-2.1	380	0	1005.9	NA	0.0000	BR	9000	0	0	0	0
2019/02/28 20:02:01	BASE	4.12	211	5.56	217	0.1	85	-2.1	238	0	1005.9	NA	0.0000	HZ	9999	0	0	0	0
2019/02/28 20:03:01	BASE	4.31	212	5.14	227	0.1	85	-2.2	398	0	1005.9	NA	0.0000	HZ	9999	0	0	0	0
2019/02/28 20:04:01	BASE	4.16	215	5.14	227	0.1	85	-2.2	413	0	1005.9	NA	0.0000	HZ	9999	0	0	0	0
2019/02/28 20:05:01	BASE	3.69	213	5.14	227	0.1	84	-2.2	435	0	1005.9	NA	0.0000	HZ	9999	0	0	0	0
2019/02/28 20:06:01	BASE	3.25	210	4.73	213	0.1	84	-2.2	276	0	1005.9	NA	0.0000	HZ	9999	0	0	0	0
2019/02/28 20:07:01	BASE	3.04	209	4.73	213	0.1	84	-2.3	412	0	1005.9	NA	0.0000	HZ	9000	0	0	0	0
2019/02/28 20:08:01	BASE	3.12	209	4.73	213	0.2	84	-2.3	410	0	1005.9	NA	0.0000	HZ	9000	0	0	0	0
2019/02/28 20:09:01	BASE	3.33	212	4.73	213	0.2	83	-2.3	403	0	1005.9	NA	0.0000	HZ	9999	0	0	0	0
2019/02/28 20:10:01	BASE	3.37	211	4.73	213	0.2	83	-2.4	218	0	1005.9	NA	0.0000	HZ	9000	0	0	0	0
2019/02/28 20:11:01	BASE	3.17	207	4.73	213	0.2	82	-2.5	328	0	1005.9	NA	0.0000	HZ	9000	0	0	0	0
2019/02/28 20:12:01	BASE	3.36	210	4.73	213	0.1	82	-2.6	232	0	1005.9	NA	0.0000	HZ	9999	0	0	0	0
2019/02/28 20:13:01	BASE	3.51	216	4.53	217	0.1	81	-2.7	339	0	1005.9	NA	0.0000	HZ	9000	0	0	0	0
2019/02/28 20:14:01	BASE	3.05	214	4.17	217	0.1	81	-2.8	374	0	1005.9	NA	0.0000	HZ	9000	0	0	0	0
2019/02/28 20:15:01	BASE	3.09	213	4.17	217	0.1	80	-2.9	370	0	1005.9	NA	0.0000	HZ	9000	0	0	0	0
2019/02/28 20:16:01	BASE	3.20	214	4.17	217	0.1	80	-2.9	381	0	1005.9	NA	0.0000	HZ	9000	0	0	0	0
2019/02/28 20:17:01	BASE	3.15	214	4.17	217	0.1	80	-2.9	291	0	1005.9	NA	0.0000	HZ	9000	0	0	0	0
2019/02/28 20:18:01	BASE	3.16	219	4.17	217	0.2	80	-2.9	279	0	1005.9	NA	0.0000	HZ	9999	0	0	0	0
2019/02/28 20:19:01	BASE	3.09	224	4.17	217	0.2	80	-2.9	346	0	1005.9	NA	0.0000	HZ	9999	0	0	0	0
2019/02/28 20:20:01	BASE	3.01	222	4.17	217	0.2	80	-2.9	367	0	1005.9	NA	0.0000	HZ	9000	0	0	0	0
2019/02/28 20:21:01	BASE	3.12	219	4.17	217	0.2	80	-2.9	359	0	1005.9	NA	0.0000	HZ	9000	0	0	0	0
2019/02/28 20:22:01	BASE	3.11	219	3.86	216	0.2	80	-2.9	357	0	1005.9	NA	0.0000	HZ	9000	0	0	0	0
2019/02/28 20:23:01	BASE	2.64	219	3.86	216	0.1	80	-2.9	354	0	1005.9	NA	0.0000	HZ	9999	0	0	0	0
2019/02/28 20:24:01	BASE	2.20	218	3.86	216	0.1	80	-2.9	349	0	1005.9	NA	0.0000	HZ	9999	0	0	0	0
2019/02/28 20:25:01	BASE	2.83	218	3.91	214	0.1	80	-2.9	327	0	1005.9	NA	0.0000	HZ	9999	0	0	0	0
2019/02/28 20:26:01	BASE	3.43	218	4.17	215	0.1	80	-2.9	318	0	1005.9	NA	0.0000	HZ	9000	0	0	0	0
2019/02/28 20:27:01	BASE	3.17	215	4.17	215	0.1	80	-2.9	312	0	1005.9	NA	0.0000	HZ	9000	0	0	0	0
2019/02/28 20:28:01	BASE	2.86	217	4.17	215	0.1	80	-2.8	291	0	1005.9	NA	0.0000	HZ	9000	0	0	0	0
2019/02/28 20:29:01	BASE	2.86	216	4.17	215	0.2	81	-2.8	283	0	1005.9	NA	0.0000	HZ	9000	0	0	0	0
2019/02/28 20:30:01	BASE	2.85	212	4.17	215	0.2	81	-2.7	271	0	1005.9	NA	0.0000	HZ	9000	0	0	0	0
2019/02/28 20:31:01	BASE	2.85	214	4.17	215	0.2	81	-2.7	284	0	1005.9	NA	0.0000	HZ	9000	0	0	0	0
2019/02/28 20:32:01	BASE	2.83	213	4.17	215	0.1	81	-2.8	284	0	1005.9	NA	0.0000	HZ	9000	0	0	0	0
2019/02/28 20:33:01	BASE	2.35	210	4.17	215	0.1	81	-2.8	281	0	1005.9	NA	0.0000	HZ	9000	0	0	0	0
2019/02/28 20:34:01	BASE	2.07	210	4.17	215	0.1	80	-2.8	280	0	1005.8	NA	0.0000	HZ	9999	0	0	0	0
2019/02/28 20:35:01	BASE	2.13	212	4.17	215	0.1	80	-2.9	287	0	1005.8	NA	0.0000	HZ	9000	0	0	0	0
2019/02/28 20:36:01	BASE	2.43	216	3.65	217	0.1	80	-2.9	295	0	1005.8	NA	0.0000	HZ	9000	0	0	0	0
2019/02/28 20:37:01	BASE	2.67	215	3.50	208	0.1	80	-2.9	288	0	1005.8	NA	0.0000	HZ	9000	0	0	0	0
2019/02/28 20:38:01	BASE	2.76	214	3.50	208	0.1	80	-2.9	280	0	1005.9	NA	0.0000	HZ	9000	0	0	0	0
2019/02/28 20:39:01	BASE	2.77	218	3.29	221	0.0	81	-2.9	273	0	1005.9	NA	0.0000	HZ	9999	0	0	0	0
2019/02/28 20:40:01	BASE	2.65	219	3.29	221	0.0	81	-2.9	289	0	1005.9	NA	0.0000	HZ	9999	0	0	0	0
2019/02/28 20:41:01	BASE	2.70	219	3.24	222	0.0	81	-2.8	298	0	1005.8	NA	0.0000	HZ	9999	0	0	0	0
2019/02/28 20:42:01	BASE	2.89	219	3.24	222	0.0	81	-2.9	296	0	1005.8	NA	0.0000	HZ	9999	0	0	0	0
2019/02/28 20:43:01	BASE	2.80	217	3.24	222	0.0	81	-2.9	285	0	1005.8	NA	0.0000	HZ	9999	0	0	0	0
2019/02/28 20:44:01	BASE	2.89	213	3.45	214	-0.0	80	-3.0	296	0	1005.8	NA	0.0000	HZ	9999	0	0	0	0
2019/02/28 20:45:01	BASE	3.11	213	3.45	214	-0.0	80	-3.0	299	0	1005.8	NA	0.0000	HZ	9999	0	0	0	0
2019/02/28 20:46:00	BASE	2.77	213	3.45	214	-0.0	80	-3.1	298	0	1005.8	NA	0.0000	HZ	9999	0	0	0	0
2019/02/28 20:47:00	BASE	2.36	213	3.45	214	-0.0	80	-3.1	293	0	1005.8	NA	0.0000	HZ	9999	0	0	0	0
2019/02/28 20:48:01	BASE	2.65	218	3.50	231	0.0	80	-3.0	283	0	1005.8	NA	0.0000	HZ	9000	0	0	0	0
2019/02/28 20:49:01	BASE	2.81	225	3.50	231	0.0	80	-3.0	282	0	1005.8	NA	0.0000	HZ	9000	0	0	0	0
2019/02/28 20:50:01	BASE	2.55	225	3.50	231	0.0	80	-3.0	282	0	1005.8	NA	0.0000	HZ	9999	0	0	0	0
2019/02/28 20:51:01	BASE	2.68	225	3.50	231	0.0	80	-3.1	283	0	1005.8	NA	0.0000	HZ	9999	0	0	0	0
2019/02/28 20:52:01	BASE	2.73	228	3.50	231	0.0	80	-3.1	284	0	1005.8	NA	0.0000	HZ	9000	0	0	0	0
2019/02/28 20:53:01	BASE	2.58	229	3.50	231	0.0	80	-3.1	282	0	1005.9	NA	0.0000	HZ	9999	0	0	0	0
2019/02/28 20:54:01	BASE	2.75	229	3.65	229	0.0	79	-3.1	277	0	1005.9	NA	0.0000	HZ	9999	0	0	0	0
2019/02/28 20:55:01	BASE	3.02	230	3.65	229	0.1	79	-3.1	273	0	1005.9	NA	0.0000	HZ	9999	0	0	0	0
2019/02/28 20:56:01	BASE	3.39	232	4.42	236	0.1	79	-3.2	272	0	1005.9	NA	0.0000	HZ	9000	0	0	0	0
2019/02/28 20:57:01	BASE	3.76	232	4.42	236	0.1	78	-3.2	268	0	1005.9	NA	0.0000	HZ	9000	0	0	0	0
2019/02/28 20:58:01	BASE	3.79	233	4.53	224	0.1	78	-3.2	263	0	1005.9	NA	0.0000	HZ	9999	0	0	0	0
2019/02/28 20:59:01	BASE	3.89	238	4.73	245	0.1	78	-3.3	259	0	1005.9	NA	0.0000	HZ	9999	0	0	0	0
2019/02/28 21:00:01	BASE	4.07	239	4.84	244	0.1	78	-3.2	251	0	1005.9	NA	0.0000	HZ	9999	0	0	0	0
2019/02/28 21:01:01	BASE	3.89	235	4.84	244	0.2	78	-3.2	256	0	1005.9	NA	0.0000	HZ	9999	0	0	0	0
2019/02/28 21:02:01	BASE	4.17	234	5.35	233	0.2	78	-3.3	249	0	1005.9	NA	0.0000	HZ	9999	0	0	0	0
2019/02/28 21:03:01	BASE	4.94	236	6.12	232	0.2	77	-3.4	254	0	1005.9	NA	0.0000	HZ	9999	0	0	0	0
2019/02/28 21:04:01	BASE	4.67	239	6.12	232	0.1	76	-3.7	251	0	1005.9	NA	0.0000	HZ	9999	0	0	0	0
2019/02/28 21:05:01	BASE	4.49	249	6.12	232	0.1	74	-4.0	240	0	1005.9	NA	0.0000	HZ	9999	0	0	0	0
2019/02/28 21:06:01	BASE	4.69	253	6.12	232	0.1	72	-4.2	237	0	1005.9	NA	0.0000		9999	0	0	0	0
2019/02/28 21:07:01	BASE	4.51	253	6.12	232	0.2	71	-4.4	226	0	1005.9	NA	0.0000		9999	0	0	0	0
2019/02/28 21:08:01	BASE	4.51	258	6.12	232	0.2	70	-4.6	228	0	1005.9	NA	0.0000		9999	0	0	0	0
2019/02/28 21:09:01	BASE	3.96	260	6.12	232	0.2	70	-4.6	217	0	1005.9	NA	0.0000		9999	0	0	0	0
2019/02/28 21:10:01	BASE	3.04	268	6.12	232	0.2	70	-4.6	212	0	1005.9	NA	0.0000		9999	0	0	0	0
2019/02/28 21:11:01	BASE	2.84	264	6.12	232	0.2	70	-4.6	220	0	1005.9	NA	0.0000	HZ	9999	0	0	0	0
2019/02/28 21:12:01	BASE	2.93	246	6.12	232	0.2	70	-4.5	205	0	1005.9	NA	0.0000		9999	0	0	0	0
2019/02/28 21:13:01	BASE	2.93	239	5.50	265	0.2	71	-4.5	189	0	1005.9	NA	0.0000		9999	0	0	0	0
2019/02/28 21:14:01	BASE	3.50	239	5.50	265	0.2	71	-4.4	189	0	1005.9	NA	0.0000		9999	0	0	0	0
2019/02/28 21:15:01	BASE	4.30	234	5.50	265	0.2	71	-4.4	182	0	1005.9	NA	0.0000		9000	0	0	0	0
2019/02/28 21:16:01	BASE	4.10	234	5.20	258	0.2	72	-4.3	209	0	1005.9	NA	0.0000	HZ	9000	0	0	0	0
2019/02/28 21:17:01	BASE	3.33	238	4.94	231	0.1	72	-4.4	240	0	1005.9	NA	0.0000	HZ	9999	0	0	0	0
2019/02/28 21:18:01	BASE	2.29	239	4.94	231	0.0	72	-4.3	244	0	1005.9	NA	0.0000	HZ	9000	0	0	0	0
2019/02/28 21:19:01	BASE	1.68	249	4.94	231	0.0	73	-4.3	256	0	1005.9	NA	0.0000	HZ	9999	0	0	0	0
2019/02/28 21:20:01	BASE	2.26	252	4.94	231	0.0	73	-4.3	257	0	1005.9	NA	0.0000	HZ	9999	0	0	0	0
2019/02/28 21:21:01	BASE	2.88	241	4.94	231	0.0	73	-4.3	262	0	1005.9	NA	0.0000	HZ	9999	0	0	0	0
2019/02/28 21:22:01	BASE	3.18	235	4.94	231	0.0	73	-4.2	257	0	1005.9	NA	0.0000	HZ	9999	0	0	0	0
2019/02/28 21:23:01	BASE	3.07	238	4.94	231	0.1	73	-4.1	247	0	1005.9	NA	0.0000	HZ	9999	0	0	0	0
2019/02/28 21:24:01	BASE	2.35	241	4.94	231	0.0	74	-4.1	248	0	1005.9	NA	0.0000	HZ	9999	0	0	0	0
2019/02/28 21:25:01	BASE	1.86	241	4.63	237	-0.0	74	-4.1	246	0	1005.9	NA	0.0000	HZ	9999	0	0	0	0
2019/02/28 21:26:01	BASE	1.52	240	3.65	236	-0.1	75	-4.0	243	0	1005.9	NA	0.0000	HZ	9999	0	0	0	0
2019/02/28 21:27:01	BASE	1.70	249	3.65	236	-0.0	75	-3.9	243	0	1005.9	NA	0.0000	HZ	9999	0	0	0	0
2019/02/28 21:28:01	BASE	2.47	261	3.65	236	-0.0	75	-3.9	242	0	1005.9	NA	0.0000	HZ	9999	0	0	0	0
2019/02/28 21:29:01	BASE	2.46	265	3.65	236	0.0	75	-3.9	226	0	1005.9	NA	0.0000	HZ	9000	0	0	0	0
2019/02/28 21:30:01	BASE	2.39	267	3.65	236	0.1	75	-3.8	202	0	1006.0	NA	0.0000	HZ	9999	0	0	0	0
2019/02/28 21:31:01	BASE	2.48	273	3.65	236	0.2	75	-3.7	182	0	1006.0	NA	0.0000	HZ	9999	0	0	0	0
2019/02/28 21:32:01	BASE	2.60	273	3.29	272	0.2	75	-3.8	173	0	1006.0	NA	0.0000	HZ	9999	0	0	0	0
2019/02/28 21:33:01	BASE	2.77	273	3.29	272	0.3	75	-3.7	178	0	1005.9	NA	0.0000	HZ	9999	0	0	0	0
2019/02/28 21:34:01	BASE	2.89	274	3.86	253	0.3	75	-3.6	197	0	1005.9	NA	0.0000		9999	0	0	0	0
2019/02/28 21:35:01	BASE	3.13	267	4.22	258	0.3	75	-3.6	202	0	1006.0	NA	0.0000		9999	0	0	0	0
2019/02/28 21:36:01	BASE	2.68	263	4.22	258	0.3	75	-3.6	218	0	1006.0	NA	0.0000		9999	0	0	0	0
2019/02/28 21:37:01	BASE	2.25	260	4.22	258	0.3	76	-3.5	202	0	1006.1	NA	0.0000		9999	0	0	0	0
2019/02/28 21:38:01	BASE	2.58	251	4.22	258	0.3	76	-3.4	193	0	1006.1	NA	0.0000		9999	0	0	0	0
2019/02/28 21:39:01	BASE	2.95	242	4.22	258	0.3	77	-3.3	185	0	1006.1	NA	0.0000		9999	0	0	0	0
2019/02/28 21:40:01	BASE	2.90	244	4.22	258	0.2	77	-3.3	163	0	1006.1	NA	0.0000		9999	0	0	0	0
2019/02/28 21:41:01	BASE	2.49	245	4.22	258	0.2	78	-3.2	140	0	1006.1	NA	0.0000	HZ	9999	0	0	0	0
2019/02/28 21:42:01	BASE	2.54	242	4.22	258	0.1	78	-3.2	120	0	1006.1	NA	0.0000	HZ	9999	0	0	0	0
2019/02/28 21:43:01	BASE	3.20	239	4.22	258	0.0	79	-3.2	153	0	1006.1	NA	0.0000	HZ	9999	0	0	0	0
2019/02/28 21:44:01	BASE	3.62	232	4.22	258	-0.0	79	-3.2	175	0	1006.1	NA	0.0000	HZ	9999	0	0	0	0
2019/02/28 21:45:01	BASE	3.26	227	4.06	227	-0.1	79	-3.3	185	0	1006.1	NA	0.0000	HZ	9999	0	0	0	0
2019/02/28 21:46:01	BASE	3.09	230	4.06	227	-0.1	79	-3.4	168	0	1006.1	NA	0.0000	HZ	9999	0	0	0	0
2019/02/28 21:47:01	BASE	3.30	229	4.06	227	-0.1	78	-3.5	187	0	1006.0	NA	0.0000	HZ	9999	0	0	0	0
2019/02/28 21:48:01	BASE	3.23	228	4.06	227	-0.1	77	-3.6	186	0	1006.1	NA	0.0000	HZ	9999	0	0	0	0
2019/02/28 21:49:01	BASE	3.34	229	4.06	227	-0.1	77	-3.7	186	0	1006.0	NA	0.0000	HZ	9999	0	0	0	0
2019/02/28 21:50:01	BASE	3.40	231	4.06	227	-0.1	77	-3.7	181	0	1005.9	NA	0.0000	HZ	9999	0	0	0	0
2019/02/28 21:51:01	BASE	3.12	227	4.06	227	-0.1	77	-3.7	194	0	1005.9	NA	0.0000	HZ	9000	0	0	0	0
2019/02/28 21:52:01	BASE	2.93	222	4.06	227	-0.1	76	-3.8	192	0	1005.9	NA	0.0000	HZ	9999	0	0	0	0
2019/02/28 21:53:01	BASE	2.92	222	4.06	227	-0.1	76	-3.9	188	0	1005.9	NA	0.0000	HZ	9999	0	0	0	0
2019/02/28 21:54:01	BASE	2.89	220	4.01	222	-0.2	76	-3.9	185	0	1005.9	NA	0.0000	HZ	9999	0	0	0	0
2019/02/28 21:55:01	BASE	3.19	218	4.01	222	-0.2	76	-4.0	188	0	1005.9	NA	0.0000	HZ	9999	0	0	0	0
2019/02/28 21:56:01	BASE	3.55	219	4.01	216	-0.2	76	-3.9	176	0	1005.9	NA	0.0000	HZ	9999	0	0	0	0
2019/02/28 21:57:01	BASE	3.29	225	4.01	216	-0.2	76	-3.9	170	0	1005.9	NA	0.0000	HZ	9999	0	0	0	0
2019/02/28 21:58:01	BASE	2.92	232	4.01	216	-0.1	77	-3.7	174	0	1005.9	NA	0.0000	HZ	9999	0	0	0	0
2019/02/28 21:59:01	BASE	2.98	237	4.01	216	-0.1	77	-3.7	171	0	1006.0	NA	0.0000	HZ	9999	0	0	0	0
2019/02/28 22:00:01	BASE	3.17	241	4.01	216	-0.2	77	-3.6	165	0	1005.9	NA	0.0000	HZ	9000	0	0	0	0
2019/02/28 22:01:01	BASE	2.93	243	4.01	216	-0.2	78	-3.6	162	0	1006.0	NA	0.0000	HZ	9999	0	0	0	0
2019/02/28 22:02:01	BASE	2.63	238	4.01	216	-0.2	78	-3.5	162	0	1005.9	NA	0.0000	HZ	9999	0	0	0	0
2019/02/28 22:03:01	BASE	2.46	232	4.01	216	-0.2	78	-3.5	170	0	1005.9	NA	0.0000	HZ	9999	0	0	0	0
2019/02/28 22:04:01	BASE	2.81	231	4.01	216	-0.1	78	-3.4	169	0	1006.0	NA	0.0000	HZ	9999	0	0	0	0
2019/02/28 22:05:01	BASE	2.94	227	4.01	216	-0.1	78	-3.4	165	0	1006.0	NA	0.0000	HZ	9000	0	0	0	0
2019/02/28 22:06:01	BASE	2.51	222	3.76	229	-0.1	78	-3.4	160	0	1006.0	NA	0.0000	HZ	9000	0	0	0	0
2019/02/28 22:07:01	BASE	2.29	218	3.76	229	-0.0	78	-3.4	160	0	1006.0	NA	0.0000	HZ	9999	0	0	0	0
2019/02/28 22:08:01	BASE	1.99	218	3.76	229	-0.0	78	-3.4	150	0	1005.9	NA	0.0000	HZ	9999	0	0	0	0
2019/02/28 22:09:01	BASE	1.66	222	3.76	229	-0.0	78	-3.4	141	0	1006.0	NA	0.0000	HZ	9999	0	0	0	0
2019/02/28 22:10:01	BASE	1.69	224	3.76	229	-0.1	78	-3.4	133	0	1005.9	NA	0.0000	HZ	9999	0	0	0	0
2019/02/28 22:11:01	BASE	2.05	229	3.76	229	-0.1	78	-3.5	137	0	1005.9	NA	0.0000	HZ	9999	0	0	0	0
2019/02/28 22:12:01	BASE	2.44	227	3.76	229	-0.1	78	-3.5	138	0	1005.9	NA	0.0000	HZ	9999	0	0	0	0
2019/02/28 22:13:01	BASE	2.37	225	3.76	229	-0.1	78	-3.5	127	0	1006.0	NA	0.0000	HZ	9999	0	0	0	0
2019/02/28 22:14:01	BASE	2.30	221	3.34	223	-0.1	78	-3.5	117	0	1006.0	NA	0.0000	HZ	9999	0	0	0	0
2019/02/28 22:15:01	BASE	2.75	215	3.24	213	-0.1	78	-3.6	111	0	1005.9	NA	0.0000	HZ	8000	0	0	0	0
2019/02/28 22:16:01	BASE	2.92	214	3.24	213	-0.1	78	-3.6	109	0	1005.9	NA	0.0000	HZ	7000	0	0	0	0
2019/02/28 22:17:01	BASE	2.62	213	3.24	213	-0.2	77	-3.6	102	0	1005.9	NA	0.0000	HZ	7000	0	0	0	0
2019/02/28 22:18:01	BASE	2.38	211	3.24	213	-0.2	77	-3.7	93	0	1005.9	NA	0.0000	HZ	7000	0	0	0	0
2019/02/28 22:19:01	BASE	2.78	213	3.45	211	-0.2	77	-3.7	88	0	1005.9	NA	0.0000	HZ	7000	0	0	0	0
2019/02/28 22:20:01	BASE	2.79	217	3.45	211	-0.2	77	-3.7	92	0	1005.9	NA	0.0000	HZ	7000	0	0	0	0
2019/02/28 22:21:01	BASE	2.68	216	3.55	221	-0.2	77	-3.7	94	0	1005.9	NA	0.0000	HZ	7000	0	0	0	0
2019/02/28 22:22:01	BASE	2.81	219	3.55	221	-0.2	77	-3.8	98	0	1005.9	NA	0.0000	HZ	7000	0	0	0	0
2019/02/28 22:23:01	BASE	2.23	224	3.55	221	-0.2	77	-3.8	100	0	1005.9	NA	0.0000	HZ	7000	0	0	0	0
2019/02/28 22:24:01	BASE	1.80	226	3.55	221	-0.2	76	-3.9	91	0	1005.9	NA	0.0000	HZ	7000	0	0	0	0
2019/02/28 22:25:01	BASE	1.83	228	3.55	221	-0.2	76	-3.9	88	0	1005.9	NA	0.0000	HZ	7000	0	0	0	0
2019/02/28 22:26:01	BASE	2.12	225	3.55	221	-0.2	76	-3.9	88	0	1005.9	NA	0.0000	HZ	7000	0	0	0	0
2019/02/28 22:27:01	BASE	2.15	224	3.55	221	-0.2	76	-3.9	87	0	1005.9	NA	0.0000	HZ	7000	0	0	0	0
2019/02/28 22:28:01	BASE	1.87	228	3.55	221	-0.2	76	-3.9	89	0	1005.9	NA	0.0000	HZ	7000	0	0	0	0
2019/02/28 22:29:01	BASE	2.23	225	3.55	221	-0.2	77	-3.8	82	0	1005.9	NA	0.0000	HZ	7000	0	0	0	0
2019/02/28 22:30:01	BASE	2.64	218	3.55	221	-0.2	77	-3.8	76	0	1005.9	NA	0.0000	HZ	7000	0	0	0	0
2019/02/28 22:31:01	BASE	2.30	214	3.19	220	-0.3	77	-3.8	76	0	1005.9	NA	0.0000	HZ	8000	0	0	0	0
2019/02/28 22:32:01	BASE	1.98	219	2.98	218	-0.3	77	-3.8	77	0	1005.9	NA	0.0000	HZ	7000	0	0	0	0
2019/02/28 22:33:00	BASE	2.03	217	2.98	218	-0.3	77	-3.8	84	0	1005.9	NA	0.0000	HZ	7000	0	0	0	0
2019/02/28 22:34:00	BASE	1.91	213	2.98	218	-0.3	77	-3.8	89	0	1005.9	NA	0.0000	HZ	7000	0	0	0	0
2019/02/28 22:35:00	BASE	2.35	213	3.29	218	-0.3	77	-3.8	86	0	1005.9	NA	0.0000	HZ	7000	0	0	0	0
2019/02/28 22:36:01	BASE	2.96	212	3.76	217	-0.3	77	-3.8	86	0	1005.9	NA	0.0000	HZ	7000	0	0	0	0
2019/02/28 22:37:00	BASE	2.92	214	3.76	217	-0.2	77	-3.8	89	0	1005.9	NA	0.0000	HZ	7000	0	0	0	0
2019/02/28 22:38:01	BASE	2.72	217	3.76	217	-0.2	77	-3.8	91	0	1005.9	NA	0.0000	HZ	7000	0	0	0	0
2019/02/28 22:39:00	BASE	2.22	217	3.76	217	-0.3	77	-3.8	91	0	1005.9	NA	0.0000	HZ	7000	0	0	0	0
2019/02/28 22:40:01	BASE	1.75	216	3.76	217	-0.3	77	-3.8	92	0	1005.9	NA	0.0000	HZ	9000	0	0	0	0
2019/02/28 22:41:00	BASE	1.58	220	3.76	217	-0.3	77	-3.8	91	0	1005.9	NA	0.0000	HZ	9999	0	0	0	0
2019/02/28 22:42:00	BASE	1.72	220	3.76	217	-0.3	77	-3.8	84	0	1005.9	NA	0.0000	HZ	9999	0	0	0	0
2019/02/28 22:43:00	BASE	1.74	216	3.76	217	-0.3	77	-3.8	81	0	1005.9	NA	0.0000	HZ	9999	0	0	0	0
2019/02/28 22:44:00	BASE	1.65	214	3.76	217	-0.3	77	-3.8	78	0	1005.9	NA	0.0000	HZ	9999	0	0	0	0
2019/02/28 22:45:00	BASE	1.93	217	3.76	217	-0.3	77	-3.7	77	0	1005.9	NA	0.0000	HZ	9999	0	0	0	0
2019/02/28 22:46:00	BASE	2.19	223	3.09	213	-0.2	78	-3.7	76	0	1005.9	NA	0.0000	HZ	9999	0	0	0	0
2019/02/28 22:47:00	BASE	2.06	225	2.83	219	-0.2	78	-3.6	69	0	1005.9	NA	0.0000		9999	0	0	0	0
2019/02/28 22:48:00	BASE	1.74	229	2.42	223	-0.2	78	-3.6	64	0	1005.9	NA	0.0000		9999	0	0	0	0
2019/02/28 22:49:00	BASE	1.82	231	2.42	223	-0.2	78	-3.6	69	0	1005.9	NA	0.0000		9999	0	0	0	0
2019/02/28 22:50:01	BASE	2.04	226	2.42	236	-0.2	78	-3.6	71	0	1005.9	NA	0.0000		9999	0	0	0	0
2019/02/28 22:51:00	BASE	1.81	218	2.42	236	-0.2	78	-3.6	72	0	1005.9	NA	0.0000		9999	0	0	0	0
2019/02/28 22:52:01	BASE	1.62	214	2.42	236	-0.3	78	-3.6	71	0	1005.9	NA	0.0000		9999	0	0	0	0
2019/02/28 22:53:01	BASE	1.53	215	2.42	236	-0.3	78	-3.6	69	0	1005.9	NA	0.0000		9999	0	0	0	0
2019/02/28 22:54:01	BASE	1.55	217	2.42	236	-0.2	78	-3.6	67	0	1005.9	NA	0.0000		9999	0	0	0	0
2019/02/28 22:55:01	BASE	1.67	221	2.42	236	-0.3	78	-3.6	66	0	1005.9	NA	0.0000		9999	0	0	0	0
2019/02/28 22:56:01	BASE	1.53	222	2.42	236	-0.3	78	-3.6	64	0	1005.9	NA	0.0000		9999	0	0	0	0
2019/02/28 22:57:01	BASE	1.39	220	2.42	236	-0.3	78	-3.6	62	0	1005.9	NA	0.0000		9999	0	0	0	0
2019/02/28 22:58:01	BASE	1.51	217	2.42	236	-0.3	78	-3.6	60	0	1005.9	NA	0.0000		9999	0	0	0	0
2019/02/28 22:59:01	BASE	1.43	222	2.42	236	-0.3	79	-3.6	58	0	1005.9	NA	0.0000		9999	0	0	0	0
2019/02/28 23:00:01	BASE	1.55	226	2.47	219	-0.3	79	-3.5	54	0	1005.9	NA	0.0000		9999	0	0	0	0
2019/02/28 23:01:01	BASE	2.07	221	2.47	219	-0.3	79	-3.5	53	0	1005.9	NA	0.0000		9999	0	0	0	0
2019/02/28 23:02:01	BASE	1.94	226	2.47	219	-0.3	79	-3.5	50	0	1005.9	NA	0.0000		9999	0	0	0	0
2019/02/28 23:03:01	BASE	1.37	225	2.47	219	-0.3	79	-3.5	46	0	1005.8	NA	0.0000		9999	0	0	0	0
2019/02/28 23:04:01	BASE	0.72	218	2.47	219	-0.3	79	-3.5	42	0	1005.8	NA	0.0000		9999	0	0	0	0
2019/02/28 23:05:01	BASE	0.27	215	2.47	219	-0.3	79	-3.5	43	0	1005.8	NA	0.0000		9999	0	0	0	0
2019/02/28 23:06:01	BASE	0.09	216	2.47	219	-0.3	79	-3.6	40	0	1005.8	NA	0.0000		9999	0	0	0	0
2019/02/28 23:07:01	BASE	0.00	230	2.47	219	-0.3	79	-3.6	36	0	1005.8	NA	0.0000		9999	0	0	0	0
2019/02/28 23:08:01	BASE	0.00	236	2.47	219	-0.3	78	-3.6	33	0	1005.8	NA	0.0000		9999	0	0	0	0
2019/02/28 23:09:01	BASE	0.00	224	2.47	219	-0.2	78	-3.6	32	0	1005.8	NA	0.0000		9999	0	0	0	0
2019/02/28 23:10:01	BASE	0.00	197	2.47	219	-0.2	78	-3.6	31	0	1005.8	NA	0.0000		9999	0	0	0	0
2019/02/28 23:11:01	BASE	0.00	41	2.06	238	-0.2	78	-3.5	31	0	1005.8	NA	0.0000		9999	0	0	0	0
2019/02/28 23:12:01	BASE	0.00	25	1.34	218	-0.2	78	-3.5	31	0	1005.8	NA	0.0000		9999	0	0	0	0
2019/02/28 23:13:01	BASE	0.00	24	1.08	210	-0.3	79	-3.5	31	0	1005.8	NA	0.0000		9999	0	0	0	0
2019/02/28 23:14:01	BASE	0.00	25	1.08	210	-0.3	79	-3.5	31	0	1005.8	NA	0.0000		9999	0	0	0	0
2019/02/28 23:15:01	BASE	0.00	38	M	M	-0.4	80	-3.5	30	0	1005.8	NA	0.0000		9999	0	0	0	0
2019/02/28 23:16:01	BASE	0.04	226	1.03	257	-0.4	80	-3.4	29	0	1005.8	NA	0.0000		9999	0	0	0	0
2019/02/28 23:17:01	BASE	0.18	239	1.08	248	-0.4	80	-3.4	28	0	1005.8	NA	0.0000		9999	0	0	0	0
2019/02/28 23:18:01	BASE	0.13	246	1.08	248	-0.4	80	-3.4	27	0	1005.8	NA	0.0000		9999	0	0	0	0
2019/02/28 23:19:01	BASE	0.04	242	1.08	248	-0.4	80	-3.4	26	0	1005.8	NA	0.0000		9999	0	0	0	0
2019/02/28 23:20:01	BASE	0.27	238	1.65	232	-0.3	80	-3.4	25	0	1005.7	NA	0.0000		9999	0	0	0	0
2019/02/28 23:21:01	BASE	0.75	229	1.65	232	-0.3	79	-3.5	24	0	1005.7	NA	0.0000		9999	0	0	0	0
2019/02/28 23:22:01	BASE	0.82	220	1.85	202	-0.3	78	-3.6	22	0	1005.7	NA	0.0000		9999	0	0	0	0
2019/02/28 23:23:01	BASE	0.59	225	1.85	202	-0.3	78	-3.7	20	0	1005.7	NA	0.0000		9999	0	0	0	0
2019/02/28 23:24:01	BASE	1.39	232	2.88	238	-0.3	77	-3.8	19	0	1005.7	NA	0.0000		9999	0	0	0	0
2019/02/28 23:25:01	BASE	2.30	236	2.88	238	-0.4	77	-3.9	19	0	1005.7	NA	0.0000		9999	0	0	0	0
2019/02/28 23:26:01	BASE	2.12	234	2.88	238	-0.4	77	-4.0	18	0	1005.7	NA	0.0000		9999	0	0	0	0
2019/02/28 23:27:01	BASE	1.54	227	2.88	238	-0.4	77	-4.0	17	0	1005.7	NA	0.0000		9999	0	0	0	0
2019/02/28 23:28:01	BASE	1.37	226	2.88	238	-0.4	77	-4.0	16	0	1005.7	NA	0.0000		9999	0	0	0	0
2019/02/28 23:29:01	BASE	1.34	230	2.88	238	-0.5	77	-4.0	15	0	1005.7	NA	0.0000		9999	0	0	0	0
2019/02/28 23:30:01	BASE	1.17	234	2.88	238	-0.5	77	-4.0	14	0	1005.7	NA	0.0000		9999	0	0	0	0
2019/02/28 23:31:01	BASE	1.29	239	2.88	238	-0.5	77	-4.0	13	0	1005.7	NA	0.0000		9999	0	0	0	0
2019/02/28 23:32:01	BASE	1.19	246	2.88	238	-0.5	77	-4.0	12	0	1005.7	NA	0.0000		9999	0	0	0	0
2019/02/28 23:33:01	BASE	0.80	270	2.88	238	-0.5	77	-4.0	11	0	1005.7	NA	0.0000		9999	0	0	0	0
2019/02/28 23:34:01	BASE	0.41	302	2.62	237	-0.5	77	-4.0	11	0	1005.7	NA	0.0000		9999	0	0	0	0
2019/02/28 23:35:01	BASE	0.09	329	2.26	236	-0.5	78	-4.0	10	0	1005.7	NA	0.0000		9999	0	0	0	0
2019/02/28 23:36:01	BASE	0.00	359	1.85	225	-0.6	78	-3.9	9	0	1005.7	NA	0.0000		9999	0	0	0	0
2019/02/28 23:37:01	BASE	0.00	348	1.85	225	-0.6	79	-3.8	9	0	1005.6	NA	0.0000		9999	0	0	0	0
2019/02/28 23:38:01	BASE	0.00	301	1.65	244	-0.6	80	-3.7	8	0	1005.6	NA	0.0000		9999	0	0	0	0
2019/02/28 23:39:01	BASE	0.00	247	1.65	244	-0.6	80	-3.6	8	0	1005.6	NA	0.0000		9999	0	0	0	0
2019/02/28 23:40:01	BASE	0.14	221	1.65	244	-0.6	81	-3.5	8	0	1005.6	NA	0.0000		9999	0	0	0	0
2019/02/28 23:41:01	BASE	0.50	226	1.54	249	-0.6	81	-3.5	7	0	1005.6	NA	0.0000		9999	0	0	0	0
2019/02/28 23:42:01	BASE	0.67	235	1.49	246	-0.5	80	-3.5	7	0	1005.6	NA	0.0000		9999	0	0	0	0
2019/02/28 23:43:00	BASE	0.77	223	1.65	218	-0.5	80	-3.6	7	0	1005.6	NA	0.0000		9999	0	0	0	0
2019/02/28 23:44:01	BASE	0.61	204	1.65	218	-0.5	80	-3.6	6	0	1005.6	NA	0.0000		9999	0	0	0	0
2019/02/28 23:45:00	BASE	0.13	201	1.65	218	-0.5	79	-3.7	6	0	1005.7	NA	0.0000		9999	0	0	0	0
2019/02/28 23:46:00	BASE	0.00	211	1.65	218	-0.5	79	-3.7	6	0	1005.7	NA	0.0000		9999	0	0	0	0
2019/02/28 23:47:00	BASE	0.00	217	1.65	218	-0.5	79	-3.7	5	0	1005.6	NA	0.0000		9999	0	0	0	0
2019/02/28 23:48:01	BASE	0.00	228	1.65	218	-0.5	79	-3.8	5	0	1005.6	NA	0.0000		9999	0	0	0	0
2019/02/28 23:49:00	BASE	0.00	237	1.65	218	-0.5	78	-3.8	5	0	1005.6	NA	0.0000		9999	0	0	0	0
2019/02/28 23:50:00	BASE	0.00	239	1.65	218	-0.4	78	-3.8	5	0	1005.6	NA	0.0000		9999	0	0	0	0
2019/02/28 23:51:00	BASE	0.00	230	1.65	218	-0.4	78	-3.8	5	0	1005.6	NA	0.0000		9999	0	0	0	0
2019/02/28 23:52:01	BASE	0.00	216	1.65	218	-0.4	78	-3.8	5	0	1005.6	NA	0.0000		9999	0	0	0	0
2019/02/28 23:53:00	BASE	0.00	212	1.08	197	-0.4	78	-3.8	5	0	1005.6	NA	0.0000		9999	0	0	0	0
2019/02/28 23:54:00	BASE	0.00	258	M	M	-0.3	77	-3.8	4	0	1005.6	NA	0.0000		9999	0	0	0	0
2019/02/28 23:55:01	BASE	0.00	313	M	M	-0.3	77	-3.8	4	0	1005.6	NA	0.0000		9999	0	0	0	0
2019/02/28 23:56:00	BASE	0.00	317	M	M	-0.4	77	-3.9	4	0	1005.6	NA	0.0000		9999	0	0	0	0
2019/02/28 23:57:00	BASE	0.00	21	M	M	-0.4	78	-3.9	4	0	1005.6	NA	0.0000		9999	0	0	0	0
2019/02/28 23:58:01	BASE	0.00	67	M	M	-0.5	78	-3.9	4	0	1005.6	NA	0.0000		9999	0	0	0	0
2019/02/28 23:59:01	BASE	0.00	56	M	M	-0.6	79	-3.8	4	0	1005.6	NA	0.0000		9999	0	0	0	0